Time,TemperatureF,DewpointF,PressureIn,WindDirection,WindDirectionDegrees,WindSpeedMPH,WindSpeedGustMPH,Humidity,HourlyPrecipIn,Conditions,Clouds,dailyrainin,SolarRadiationWatts/m^2,SoftwareType,DateUTC
2012-10-22 00:00:00,65.5,60.5,30.07,NE,48,0.0,5.0,84,0.00,,---,0.00,0.00,VWS V14.01,2012-10-22 04:00:00,
2012-10-22 00:01:00,65.5,60.5,30.07,NE,48,0.0,5.0,84,0.00,,---,0.00,0.00,VWS V14.01,2012-10-22 04:01:00,
2012-10-22 00:02:00,65.5,60.5,30.07,ENE,70,2.0,5.0,84,0.00,,---,0.00,0.00,VWS V14.01,2012-10-22 04:02:00,
2012-10-22 00:04:00,65.3,60.3,30.07,ENE,69,1.0,4.0,84,0.00,,---,0.00,0.00,VWS V14.01,2012-10-22 04:04:00,
2012-10-22 00:05:00,65.3,60.3,30.07,NE,54,3.0,4.0,84,0.00,,---,0.00,0.00,VWS V14.01,2012-10-22 04:05:00,
2012-10-22 00:06:00,65.3,60.3,30.07,ENE,59,2.0,4.0,84,0.00,,---,0.00,0.00,VWS V14.01,2012-10-22 04:06:00,
2012-10-22 00:07:00,65.4,60.5,30.07,NNE,29,3.0,5.0,84,0.00,,---,0.00,0.00,VWS V14.01,2012-10-22 04:07:00,
2012-10-22 00:08:00,65.2,60.2,30.07,NNE,29,1.0,4.0,84,0.00,,---,0.00,0.00,VWS V14.01,2012-10-22 04:08:00,
2012-10-22 00:10:00,65.1,60.2,30.07,NE,53,3.0,4.0,84,0.00,,---,0.00,0.00,VWS V14.01,2012-10-22 04:10:00,
2012-10-22 00:11:00,65.1,60.2,30.07,NNE,27,1.0,4.0,84,0.00,,---,0.00,0.00,VWS V14.01,2012-10-22 04:11:00,
2012-10-22 00:12:00,65.3,60.3,30.07,ENE,64,2.0,4.0,84,0.00,,---,0.00,0.00,VWS V14.01,2012-10-22 04:12:00,
2012-10-22 00:13:00,65.1,60.2,30.06,East,97,3.0,5.0,84,0.00,,---,0.00,0.00,VWS V14.01,2012-10-22 04:13:00,
2012-10-22 00:14:00,65.1,60.2,30.07,ENE,62,0.0,5.0,84,0.00,,---,0.00,0.00,VWS V14.01,2012-10-22 04:14:00,
2012-10-22 00:15:00,65.1,59.8,30.06,ENE,62,0.0,5.0,83,0.00,,---,0.00,0.00,VWS V14.01,2012-10-22 04:15:00,
2012-10-22 00:17:00,65.2,60.2,30.07,NNE,22,0.0,4.0,84,0.00,,---,0.00,0.00,VWS V14.01,2012-10-22 04:17:00,
2012-10-22 00:18:00,65.1,59.8,30.06,ENE,70,2.0,5.0,83,0.00,,---,0.00,0.00,VWS V14.01,2012-10-22 04:18:00,
2012-10-22 00:20:00,65.1,60.2,30.06,ENE,60,2.0,5.0,84,0.00,,---,0.00,0.00,VWS V14.01,2012-10-22 04:20:00,
2012-10-22 00:21:00,65.1,60.2,30.06,ENE,66,1.0,5.0,84,0.00,,---,0.00,0.00,VWS V14.01,2012-10-22 04:21:00,
2012-10-22 00:22:00,65.1,60.2,30.06,NNE,27,3.0,4.0,84,0.00,,---,0.00,0.00,VWS V14.01,2012-10-22 04:22:00,
2012-10-22 00:23:00,65.1,60.2,30.06,ESE,102,1.0,5.0,84,0.00,,---,0.00,0.00,VWS V14.01,2012-10-22 04:23:00,
2012-10-22 00:24:00,65.1,60.2,30.06,ENE,58,2.0,5.0,84,0.00,,---,0.00,0.00,VWS V14.01,2012-10-22 04:24:00,
2012-10-22 00:25:00,65.1,59.8,30.06,ENE,65,0.0,5.0,83,0.00,,---,0.00,0.00,VWS V14.01,2012-10-22 04:25:00,
2012-10-22 00:26:00,65.0,59.7,30.06,NNE,29,2.0,5.0,83,0.00,,---,0.00,0.00,VWS V14.01,2012-10-22 04:26:00,
2012-10-22 00:27:00,65.1,59.8,30.06,ENE,72,0.0,5.0,83,0.00,,---,0.00,0.00,VWS V14.01,2012-10-22 04:27:00,
2012-10-22 00:28:00,65.0,59.7,30.06,NNW,343,1.0,5.0,83,0.00,,---,0.00,0.00,VWS V14.01,2012-10-22 04:28:00,
2012-10-22 00:29:00,65.0,59.7,30.06,ENE,69,2.0,5.0,83,0.00,,---,0.00,0.00,VWS V14.01,2012-10-22 04:29:00,
2012-10-22 00:30:00,65.0,59.7,30.06,NE,56,4.0,5.0,83,0.00,,---,0.00,0.00,VWS V14.01,2012-10-22 04:30:00,
2012-10-22 00:31:00,65.0,59.7,30.06,ENE,69,2.0,5.0,83,0.00,,---,0.00,0.00,VWS V14.01,2012-10-22 04:31:00,
2012-10-22 00:32:00,65.1,60.2,30.06,East,81,4.0,5.0,84,0.00,,---,0.00,0.00,VWS V14.01,2012-10-22 04:32:00,
2012-10-22 00:33:00,65.0,59.7,30.06,ENE,72,0.0,5.0,83,0.00,,---,0.00,0.00,VWS V14.01,2012-10-22 04:33:00,
2012-10-22 00:34:00,65.0,59.7,30.06,ENE,67,3.0,5.0,83,0.00,,---,0.00,0.00,VWS V14.01,2012-10-22 04:34:00,
2012-10-22 00:35:00,65.0,59.7,30.06,East,89,1.0,5.0,83,0.00,,---,0.00,0.00,VWS V14.01,2012-10-22 04:35:00,
2012-10-22 00:36:00,64.9,59.6,30.06,NE,43,2.0,5.0,83,0.00,,---,0.00,0.00,VWS V14.01,2012-10-22 04:36:00,
2012-10-22 00:37:00,65.0,59.7,30.06,ENE,68,3.0,5.0,83,0.00,,---,0.00,0.00,VWS V14.01,2012-10-22 04:37:00,
2012-10-22 00:38:00,64.9,60.0,30.06,ENE,63,2.0,5.0,84,0.00,,---,0.00,0.00,VWS V14.01,2012-10-22 04:38:00,
2012-10-22 00:39:00,64.9,59.6,30.06,ENE,70,2.0,5.0,83,0.00,,---,0.00,0.00,VWS V14.01,2012-10-22 04:39:00,
2012-10-22 00:41:00,64.9,60.0,30.06,NE,54,3.0,5.0,84,0.00,,---,0.00,0.00,VWS V14.01,2012-10-22 04:41:00,
2012-10-22 00:42:00,65.0,59.7,30.06,ENE,73,2.0,5.0,83,0.00,,---,0.00,0.00,VWS V14.01,2012-10-22 04:42:00,
2012-10-22 00:43:00,64.8,59.5,30.06,ENE,74,3.0,5.0,83,0.00,,---,0.00,0.00,VWS V14.01,2012-10-22 04:43:00,
2012-10-22 00:44:00,64.8,59.5,30.06,East,91,3.0,5.0,83,0.00,,---,0.00,0.00,VWS V14.01,2012-10-22 04:44:00,
2012-10-22 00:45:00,64.8,59.5,30.06,East,81,1.0,5.0,83,0.00,,---,0.00,0.00,VWS V14.01,2012-10-22 04:45:00,
2012-10-22 00:46:00,64.8,59.5,30.06,East,97,0.0,5.0,83,0.00,,---,0.00,0.00,VWS V14.01,2012-10-22 04:46:00,
2012-10-22 00:47:00,64.9,60.0,30.06,NE,50,2.0,5.0,84,0.00,,---,0.00,0.00,VWS V14.01,2012-10-22 04:47:00,
2012-10-22 00:50:00,64.6,59.7,30.06,East,100,1.0,5.0,84,0.00,,---,0.00,0.00,VWS V14.01,2012-10-22 04:50:00,
2012-10-22 00:51:00,64.6,59.7,30.06,ENE,70,1.0,5.0,84,0.00,,---,0.00,0.00,VWS V14.01,2012-10-22 04:51:00,
2012-10-22 00:52:00,64.9,59.6,30.06,ENE,62,2.0,5.0,83,0.00,,---,0.00,0.00,VWS V14.01,2012-10-22 04:52:00,
2012-10-22 00:53:00,64.6,59.7,30.05,East,82,3.0,5.0,84,0.00,,---,0.00,0.00,VWS V14.01,2012-10-22 04:53:00,
2012-10-22 00:54:00,64.6,59.7,30.06,East,93,1.0,5.0,84,0.00,,---,0.00,0.00,VWS V14.01,2012-10-22 04:54:00,
2012-10-22 00:56:00,64.5,59.6,30.06,ENE,59,3.0,5.0,84,0.00,,---,0.00,0.00,VWS V14.01,2012-10-22 04:56:00,
2012-10-22 00:57:00,64.7,59.8,30.06,ENE,58,0.0,5.0,84,0.00,,---,0.00,0.00,VWS V14.01,2012-10-22 04:57:00,
2012-10-22 00:58:00,64.5,59.6,30.05,ENE,62,2.0,5.0,84,0.00,,---,0.00,0.00,VWS V14.01,2012-10-22 04:58:00,
2012-10-22 00:59:00,64.5,59.6,30.05,ENE,63,1.0,5.0,84,0.00,,---,0.00,0.00,VWS V14.01,2012-10-22 04:59:00,
2012-10-22 01:00:00,64.5,59.6,30.05,ENE,59,1.0,2.0,84,0.00,,---,0.00,0.00,VWS V14.01,2012-10-22 05:00:00,
2012-10-22 01:01:00,64.5,59.6,30.05,ENE,70,2.0,4.0,84,0.00,,---,0.00,0.00,VWS V14.01,2012-10-22 05:01:00,
2012-10-22 01:02:00,64.6,59.7,30.05,East,90,2.0,5.0,84,0.00,,---,0.00,0.00,VWS V14.01,2012-10-22 05:02:00,
2012-10-22 01:03:00,64.5,59.6,30.05,ENE,60,2.0,4.0,84,0.00,,---,0.00,0.00,VWS V14.01,2012-10-22 05:03:00,
2012-10-22 01:04:00,64.5,59.6,30.05,ENE,64,1.0,4.0,84,0.00,,---,0.00,0.00,VWS V14.01,2012-10-22 05:04:00,
2012-10-22 01:05:00,64.5,59.6,30.05,ENE,62,1.0,4.0,84,0.00,,---,0.00,0.00,VWS V14.01,2012-10-22 05:05:00,
2012-10-22 01:06:00,64.5,59.6,30.05,NE,54,0.0,4.0,84,0.00,,---,0.00,0.00,VWS V14.01,2012-10-22 05:06:00,
2012-10-22 01:07:00,64.5,59.6,30.05,NE,53,1.0,5.0,84,0.00,,---,0.00,0.00,VWS V14.01,2012-10-22 05:07:00,
2012-10-22 01:08:00,64.4,59.5,30.05,ENE,66,3.0,4.0,84,0.00,,---,0.00,0.00,VWS V14.01,2012-10-22 05:08:00,
2012-10-22 01:09:00,64.4,59.5,30.05,NE,46,2.0,4.0,84,0.00,,---,0.00,0.00,VWS V14.01,2012-10-22 05:09:00,
2012-10-22 01:11:00,64.4,59.5,30.05,NE,39,2.0,4.0,84,0.00,,---,0.00,0.00,VWS V14.01,2012-10-22 05:11:00,
2012-10-22 01:12:00,64.5,59.6,30.05,ENE,59,2.0,4.0,84,0.00,,---,0.00,0.00,VWS V14.01,2012-10-22 05:12:00,
2012-10-22 01:13:00,64.3,59.4,30.05,ENE,57,1.0,4.0,84,0.00,,---,0.00,0.00,VWS V14.01,2012-10-22 05:13:00,
2012-10-22 01:14:00,64.3,59.4,30.05,ENE,57,0.0,4.0,84,0.00,,---,0.00,0.00,VWS V14.01,2012-10-22 05:14:00,
2012-10-22 01:15:00,64.3,59.4,30.05,ENE,57,1.0,4.0,84,0.00,,---,0.00,0.00,VWS V14.01,2012-10-22 05:15:00,
2012-10-22 01:16:00,64.3,59.4,30.05,NE,48,2.0,4.0,84,0.00,,---,0.00,0.00,VWS V14.01,2012-10-22 05:16:00,
2012-10-22 01:17:00,64.5,59.6,30.05,NE,54,1.0,4.0,84,0.00,,---,0.00,0.00,VWS V14.01,2012-10-22 05:17:00,
2012-10-22 01:18:00,64.2,59.3,30.05,NE,52,2.0,4.0,84,0.00,,---,0.00,0.00,VWS V14.01,2012-10-22 05:18:00,
2012-10-22 01:19:00,64.2,59.3,30.05,ENE,68,0.0,4.0,84,0.00,,---,0.00,0.00,VWS V14.01,2012-10-22 05:19:00,
2012-10-22 01:20:00,64.1,59.5,30.05,ENE,58,2.0,4.0,85,0.00,,---,0.00,0.00,VWS V14.01,2012-10-22 05:20:00,
2012-10-22 01:21:00,64.1,59.5,30.05,NE,51,1.0,4.0,85,0.00,,---,0.00,0.00,VWS V14.01,2012-10-22 05:21:00,
2012-10-22 01:22:00,64.3,59.4,30.05,ENE,57,1.0,4.0,84,0.00,,---,0.00,0.00,VWS V14.01,2012-10-22 05:22:00,
2012-10-22 01:23:00,64.0,59.4,30.05,NNE,32,0.0,4.0,85,0.00,,---,0.00,0.00,VWS V14.01,2012-10-22 05:23:00,
2012-10-22 01:24:00,64.0,59.4,30.05,SE,124,1.0,4.0,85,0.00,,---,0.00,0.00,VWS V14.01,2012-10-22 05:24:00,
2012-10-22 01:25:00,64.0,59.4,30.05,ENE,61,2.0,4.0,85,0.00,,---,0.00,0.00,VWS V14.01,2012-10-22 05:25:00,
2012-10-22 01:26:00,64.0,59.4,30.05,ENE,64,0.0,4.0,85,0.00,,---,0.00,0.00,VWS V14.01,2012-10-22 05:26:00,
2012-10-22 01:27:00,64.2,59.3,30.05,NE,48,1.0,4.0,84,0.00,,---,0.00,0.00,VWS V14.01,2012-10-22 05:27:00,
2012-10-22 01:28:00,63.9,59.3,30.05,NNE,24,0.0,4.0,85,0.00,,---,0.00,0.00,VWS V14.01,2012-10-22 05:28:00,
2012-10-22 01:29:00,63.9,59.3,30.05,East,83,1.0,4.0,85,0.00,,---,0.00,0.00,VWS V14.01,2012-10-22 05:29:00,
2012-10-22 01:30:00,63.9,59.3,30.05,ENE,64,0.0,4.0,85,0.00,,---,0.00,0.00,VWS V14.01,2012-10-22 05:30:00,
2012-10-22 01:31:00,63.9,59.3,30.05,ENE,75,3.0,4.0,85,0.00,,---,0.00,0.00,VWS V14.01,2012-10-22 05:31:00,
2012-10-22 01:32:00,64.1,59.5,30.05,NNE,32,0.0,4.0,85,0.00,,---,0.00,0.00,VWS V14.01,2012-10-22 05:32:00,
2012-10-22 01:36:00,64.0,59.4,30.05,NNE,13,1.0,4.0,85,0.00,,---,0.00,0.00,VWS V14.01,2012-10-22 05:36:00,
2012-10-22 01:37:00,63.9,59.3,30.05,NNE,24,2.0,4.0,85,0.00,,---,0.00,0.00,VWS V14.01,2012-10-22 05:37:00,
2012-10-22 01:38:00,64.0,59.4,30.05,East,90,2.0,4.0,85,0.00,,---,0.00,0.00,VWS V14.01,2012-10-22 05:38:00,
2012-10-22 01:39:00,64.0,59.4,30.05,ENE,66,1.0,4.0,85,0.00,,---,0.00,0.00,VWS V14.01,2012-10-22 05:39:00,
2012-10-22 01:40:00,64.1,59.5,30.05,ENE,61,2.0,4.0,85,0.00,,---,0.00,0.00,VWS V14.01,2012-10-22 05:40:00,
2012-10-22 01:41:00,64.1,59.5,30.05,NE,41,2.0,4.0,85,0.00,,---,0.00,0.00,VWS V14.01,2012-10-22 05:41:00,
2012-10-22 01:42:00,63.9,59.3,30.05,ENE,66,1.0,4.0,85,0.00,,---,0.00,0.00,VWS V14.01,2012-10-22 05:42:00,
2012-10-22 01:44:00,64.1,59.5,30.05,NE,39,3.0,6.0,85,0.00,,---,0.00,0.00,VWS V14.01,2012-10-22 05:44:00,
2012-10-22 01:45:00,64.1,59.2,30.05,East,91,2.0,6.0,84,0.00,,---,0.00,0.00,VWS V14.01,2012-10-22 05:45:00,
2012-10-22 01:46:00,64.1,59.2,30.05,ENE,70,3.0,6.0,84,0.00,,---,0.00,0.00,VWS V14.01,2012-10-22 05:46:00,
2012-10-22 01:47:00,64.0,59.4,30.05,East,89,4.0,4.0,85,0.00,,---,0.00,0.00,VWS V14.01,2012-10-22 05:47:00,
2012-10-22 01:49:00,64.2,59.3,30.05,ENE,60,2.0,6.0,84,0.00,,---,0.00,0.00,VWS V14.01,2012-10-22 05:49:00,
2012-10-22 01:50:00,64.2,59.3,30.05,NE,41,2.0,6.0,84,0.00,,---,0.00,0.00,VWS V14.01,2012-10-22 05:50:00,
2012-10-22 01:51:00,64.2,59.3,30.05,NNE,25,2.0,6.0,84,0.00,,---,0.00,0.00,VWS V14.01,2012-10-22 05:51:00,
2012-10-22 01:52:00,64.1,59.5,30.05,NE,53,2.0,6.0,85,0.00,,---,0.00,0.00,VWS V14.01,2012-10-22 05:52:00,
2012-10-22 01:53:00,64.2,59.3,30.05,NE,50,0.0,6.0,84,0.00,,---,0.00,0.00,VWS V14.01,2012-10-22 05:53:00,
2012-10-22 01:54:00,64.2,59.3,30.05,ENE,77,3.0,6.0,84,0.00,,---,0.00,0.00,VWS V14.01,2012-10-22 05:54:00,
2012-10-22 01:55:00,64.2,59.3,30.05,ENE,61,2.0,6.0,84,0.00,,---,0.00,0.00,VWS V14.01,2012-10-22 05:55:00,
2012-10-22 01:56:00,64.2,59.3,30.05,NNE,30,1.0,6.0,84,0.00,,---,0.00,0.00,VWS V14.01,2012-10-22 05:56:00,
2012-10-22 01:57:00,64.2,59.3,30.05,ENE,60,3.0,6.0,84,0.00,,---,0.00,0.00,VWS V14.01,2012-10-22 05:57:00,
2012-10-22 01:58:00,64.3,59.4,30.05,ENE,76,1.0,6.0,84,0.00,,---,0.00,0.00,VWS V14.01,2012-10-22 05:58:00,
2012-10-22 02:00:00,64.3,59.4,30.05,ENE,76,2.0,2.0,84,0.00,,---,0.00,0.00,VWS V14.01,2012-10-22 06:00:00,
2012-10-22 02:01:00,64.3,59.4,30.05,NE,50,1.0,3.0,84,0.00,,---,0.00,0.00,VWS V14.01,2012-10-22 06:01:00,
2012-10-22 02:02:00,64.2,59.3,30.05,NE,50,2.0,6.0,84,0.00,,---,0.00,0.00,VWS V14.01,2012-10-22 06:02:00,
2012-10-22 02:04:00,64.3,59.4,30.06,NNE,31,0.0,3.0,84,0.00,,---,0.00,0.00,VWS V14.01,2012-10-22 06:04:00,
2012-10-22 02:05:00,64.3,59.4,30.05,NNE,31,0.0,3.0,84,0.00,,---,0.00,0.00,VWS V14.01,2012-10-22 06:05:00,
2012-10-22 02:06:00,64.3,59.4,30.05,NNE,31,0.0,3.0,84,0.00,,---,0.00,0.00,VWS V14.01,2012-10-22 06:06:00,
2012-10-22 02:07:00,64.3,59.4,30.05,ENE,76,1.0,6.0,84,0.00,,---,0.00,0.00,VWS V14.01,2012-10-22 06:07:00,
2012-10-22 02:08:00,64.2,59.3,30.05,NE,39,0.0,3.0,84,0.00,,---,0.00,0.00,VWS V14.01,2012-10-22 06:08:00,
2012-10-22 02:09:00,64.2,59.3,30.05,NE,39,0.0,3.0,84,0.00,,---,0.00,0.00,VWS V14.01,2012-10-22 06:09:00,
2012-10-22 02:10:00,64.2,59.6,30.05,NE,39,0.0,3.0,85,0.00,,---,0.00,0.00,VWS V14.01,2012-10-22 06:10:00,
2012-10-22 02:11:00,64.3,59.7,30.05,NE,39,0.0,3.0,85,0.00,,---,0.00,0.00,VWS V14.01,2012-10-22 06:11:00,
2012-10-22 02:12:00,64.3,59.4,30.05,NNE,29,1.0,3.0,84,0.00,,---,0.00,0.00,VWS V14.01,2012-10-22 06:12:00,
2012-10-22 02:13:00,64.3,60.0,30.05,NE,43,1.0,3.0,86,0.00,,---,0.00,0.00,VWS V14.01,2012-10-22 06:13:00,
2012-10-22 02:14:00,64.3,60.0,30.05,NE,43,1.0,3.0,86,0.00,,---,0.00,0.00,VWS V14.01,2012-10-22 06:14:00,
2012-10-22 02:15:00,64.3,60.0,30.05,NNE,32,0.0,3.0,86,0.00,,---,0.00,0.00,VWS V14.01,2012-10-22 06:15:00,
2012-10-22 02:16:00,64.3,60.0,30.05,NE,55,3.0,3.0,86,0.00,,---,0.00,0.00,VWS V14.01,2012-10-22 06:16:00,
2012-10-22 02:17:00,64.3,59.4,30.05,NE,39,0.0,3.0,84,0.00,,---,0.00,0.00,VWS V14.01,2012-10-22 06:17:00,
2012-10-22 02:18:00,64.3,60.0,30.05,North,351,0.0,3.0,86,0.00,,---,0.00,0.00,VWS V14.01,2012-10-22 06:18:00,
2012-10-22 02:19:00,64.3,59.7,30.05,ENE,62,2.0,4.0,85,0.00,,---,0.00,0.00,VWS V14.01,2012-10-22 06:19:00,
2012-10-22 02:20:00,64.3,59.7,30.05,NE,54,0.0,4.0,85,0.00,,---,0.00,0.00,VWS V14.01,2012-10-22 06:20:00,
2012-10-22 02:21:00,64.3,59.7,30.05,NE,54,0.0,4.0,85,0.00,,---,0.00,0.00,VWS V14.01,2012-10-22 06:21:00,
2012-10-22 02:22:00,64.3,60.0,30.05,NE,43,1.0,3.0,86,0.00,,---,0.00,0.00,VWS V14.01,2012-10-22 06:22:00,
2012-10-22 02:24:00,64.3,59.7,30.05,NNE,31,3.0,4.0,85,0.00,,---,0.00,0.00,VWS V14.01,2012-10-22 06:24:00,
2012-10-22 02:27:00,64.3,60.0,30.05,North,351,0.0,3.0,86,0.00,,---,0.00,0.00,VWS V14.01,2012-10-22 06:27:00,
2012-10-22 02:28:00,64.3,59.7,30.05,NE,56,0.0,4.0,85,0.00,,---,0.00,0.00,VWS V14.01,2012-10-22 06:28:00,
2012-10-22 02:29:00,64.3,59.7,30.05,ENE,70,2.0,4.0,85,0.00,,---,0.00,0.00,VWS V14.01,2012-10-22 06:29:00,
2012-10-22 02:31:00,64.3,59.7,30.05,NE,43,0.0,4.0,85,0.00,,---,0.00,0.00,VWS V14.01,2012-10-22 06:31:00,
2012-10-22 02:32:00,64.3,59.7,30.05,NE,55,0.0,4.0,85,0.00,,---,0.00,0.00,VWS V14.01,2012-10-22 06:32:00,
2012-10-22 02:34:00,64.3,59.7,30.05,North,10,1.0,4.0,85,0.00,,---,0.00,0.00,VWS V14.01,2012-10-22 06:34:00,
2012-10-22 02:36:00,64.3,59.7,30.05,East,87,3.0,4.0,85,0.00,,---,0.00,0.00,VWS V14.01,2012-10-22 06:36:00,
2012-10-22 02:37:00,64.3,59.7,30.05,NE,56,0.0,4.0,85,0.00,,---,0.00,0.00,VWS V14.01,2012-10-22 06:37:00,
2012-10-22 02:38:00,64.3,59.7,30.05,NE,39,2.0,4.0,85,0.00,,---,0.00,0.00,VWS V14.01,2012-10-22 06:38:00,
2012-10-22 02:39:00,64.3,59.7,30.05,NE,54,1.0,4.0,85,0.00,,---,0.00,0.00,VWS V14.01,2012-10-22 06:39:00,
2012-10-22 02:41:00,64.3,59.7,30.05,ENE,64,1.0,4.0,85,0.00,,---,0.00,0.00,VWS V14.01,2012-10-22 06:41:00,
2012-10-22 02:42:00,64.3,59.7,30.05,NE,45,0.0,4.0,85,0.00,,---,0.00,0.00,VWS V14.01,2012-10-22 06:42:00,
2012-10-22 02:43:00,64.3,59.7,30.05,NNE,32,0.0,4.0,85,0.00,,---,0.00,0.00,VWS V14.01,2012-10-22 06:43:00,
2012-10-22 02:44:00,64.3,59.7,30.05,NNE,32,1.0,4.0,85,0.00,,---,0.00,0.00,VWS V14.01,2012-10-22 06:44:00,
2012-10-22 02:45:00,64.4,59.8,30.05,NNE,32,0.0,4.0,85,0.00,,---,0.00,0.00,VWS V14.01,2012-10-22 06:45:00,
2012-10-22 02:46:00,64.4,59.8,30.05,NNE,32,0.0,4.0,85,0.00,,---,0.00,0.00,VWS V14.01,2012-10-22 06:46:00,
2012-10-22 02:47:00,64.4,60.1,30.05,NNE,12,0.0,4.0,86,0.00,,---,0.00,0.00,VWS V14.01,2012-10-22 06:47:00,
2012-10-22 02:48:00,64.3,59.7,30.05,NNE,24,0.0,4.0,85,0.00,,---,0.00,0.00,VWS V14.01,2012-10-22 06:48:00,
2012-10-22 02:49:00,64.5,60.2,30.05,ENE,63,3.0,4.0,86,0.00,,---,0.00,0.00,VWS V14.01,2012-10-22 06:49:00,
2012-10-22 02:50:00,64.4,60.1,30.05,NNE,20,1.0,4.0,86,0.00,,---,0.00,0.00,VWS V14.01,2012-10-22 06:50:00,
2012-10-22 02:51:00,64.4,60.1,30.05,ENE,62,2.0,4.0,86,0.00,,---,0.00,0.00,VWS V14.01,2012-10-22 06:51:00,
2012-10-22 02:52:00,64.3,59.7,30.05,NNE,32,0.0,4.0,85,0.00,,---,0.00,0.00,VWS V14.01,2012-10-22 06:52:00,
2012-10-22 02:53:00,64.4,60.1,30.05,NE,40,0.0,4.0,86,0.00,,---,0.00,0.00,VWS V14.01,2012-10-22 06:53:00,
2012-10-22 02:54:00,64.4,59.8,30.05,NE,51,2.0,4.0,85,0.00,,---,0.00,0.00,VWS V14.01,2012-10-22 06:54:00,
2012-10-22 02:55:00,64.3,59.7,30.05,ENE,70,2.0,4.0,85,0.00,,---,0.00,0.00,VWS V14.01,2012-10-22 06:55:00,
2012-10-22 02:56:00,64.3,59.7,30.05,NE,54,1.0,4.0,85,0.00,,---,0.00,0.00,VWS V14.01,2012-10-22 06:56:00,
2012-10-22 02:57:00,64.4,60.1,30.05,NNE,13,0.0,4.0,86,0.00,,---,0.00,0.00,VWS V14.01,2012-10-22 06:57:00,
2012-10-22 02:58:00,64.3,59.7,30.05,ENE,58,1.0,4.0,85,0.00,,---,0.00,0.00,VWS V14.01,2012-10-22 06:58:00,
2012-10-22 03:00:00,64.3,59.7,30.05,NE,48,0.0,2.0,85,0.00,,---,0.00,0.00,VWS V14.01,2012-10-22 07:00:00,
2012-10-22 03:01:00,64.3,59.7,30.05,NE,48,0.0,2.0,85,0.00,,---,0.00,0.00,VWS V14.01,2012-10-22 07:01:00,
2012-10-22 03:03:00,64.4,60.1,30.05,NE,40,0.0,4.0,86,0.00,,---,0.00,0.00,VWS V14.01,2012-10-22 07:03:00,
2012-10-22 03:04:00,64.2,59.6,30.05,NNE,32,1.0,2.0,85,0.00,,---,0.00,0.00,VWS V14.01,2012-10-22 07:04:00,
2012-10-22 03:05:00,64.2,59.6,30.04,NNE,32,0.0,2.0,85,0.00,,---,0.00,0.00,VWS V14.01,2012-10-22 07:05:00,
2012-10-22 03:06:00,64.2,59.9,30.04,NNE,32,0.0,2.0,86,0.00,,---,0.00,0.00,VWS V14.01,2012-10-22 07:06:00,
2012-10-22 03:07:00,64.1,59.8,30.05,NNE,32,0.0,2.0,86,0.00,,---,0.00,0.00,VWS V14.01,2012-10-22 07:07:00,
2012-10-22 03:08:00,64.3,59.7,30.05,ENE,58,1.0,4.0,85,0.00,,---,0.00,0.00,VWS V14.01,2012-10-22 07:08:00,
2012-10-22 03:09:00,64.1,59.8,30.04,East,92,2.0,2.0,86,0.00,,---,0.00,0.00,VWS V14.01,2012-10-22 07:09:00,
2012-10-22 03:10:00,64.1,60.2,30.05,NE,52,1.0,2.0,87,0.00,,---,0.00,0.00,VWS V14.01,2012-10-22 07:10:00,
2012-10-22 03:11:00,64.1,60.2,30.05,NE,51,1.0,2.0,87,0.00,,---,0.00,0.00,VWS V14.01,2012-10-22 07:11:00,
2012-10-22 03:12:00,64.1,60.2,30.04,East,88,1.0,2.0,87,0.00,,---,0.00,0.00,VWS V14.01,2012-10-22 07:12:00,
2012-10-22 03:13:00,64.2,59.6,30.05,NNE,32,0.0,2.0,85,0.00,,---,0.00,0.00,VWS V14.01,2012-10-22 07:13:00,
2012-10-22 03:14:00,64.0,59.7,30.04,NE,41,1.0,5.0,86,0.00,,---,0.00,0.00,VWS V14.01,2012-10-22 07:14:00,
2012-10-22 03:15:00,64.0,59.7,30.04,NE,41,0.0,5.0,86,0.00,,---,0.00,0.00,VWS V14.01,2012-10-22 07:15:00,
2012-10-22 03:16:00,64.0,59.7,30.04,North,357,0.0,5.0,86,0.00,,---,0.00,0.00,VWS V14.01,2012-10-22 07:16:00,
2012-10-22 03:17:00,64.0,59.7,30.04,NE,42,1.0,5.0,86,0.00,,---,0.00,0.00,VWS V14.01,2012-10-22 07:17:00,
2012-10-22 03:18:00,64.1,59.8,30.05,NNE,32,0.0,2.0,86,0.00,,---,0.00,0.00,VWS V14.01,2012-10-22 07:18:00,
2012-10-22 03:19:00,63.9,59.6,30.04,NE,55,1.0,5.0,86,0.00,,---,0.00,0.00,VWS V14.01,2012-10-22 07:19:00,
2012-10-22 03:20:00,63.9,59.6,30.04,ENE,59,0.0,5.0,86,0.00,,---,0.00,0.00,VWS V14.01,2012-10-22 07:20:00,
2012-10-22 03:21:00,63.9,59.6,30.04,NE,48,2.0,5.0,86,0.00,,---,0.00,0.00,VWS V14.01,2012-10-22 07:21:00,
2012-10-22 03:22:00,63.9,59.6,30.04,ENE,60,1.0,5.0,86,0.00,,---,0.00,0.00,VWS V14.01,2012-10-22 07:22:00,
2012-10-22 03:23:00,64.1,59.8,30.04,ENE,69,5.0,5.0,86,0.00,,---,0.00,0.00,VWS V14.01,2012-10-22 07:23:00,
2012-10-22 03:24:00,63.9,59.6,30.04,NNE,24,1.0,5.0,86,0.00,,---,0.00,0.00,VWS V14.01,2012-10-22 07:24:00,
2012-10-22 03:25:00,63.8,59.5,30.04,NNE,31,1.0,5.0,86,0.00,,---,0.00,0.00,VWS V14.01,2012-10-22 07:25:00,
2012-10-22 03:27:00,63.8,59.5,30.04,ENE,71,0.0,5.0,86,0.00,,---,0.00,0.00,VWS V14.01,2012-10-22 07:27:00,
2012-10-22 03:28:00,64.0,59.7,30.04,NE,54,4.0,5.0,86,0.00,,---,0.00,0.00,VWS V14.01,2012-10-22 07:28:00,
2012-10-22 03:29:00,63.8,59.5,30.04,NE,36,1.0,5.0,86,0.00,,---,0.00,0.00,VWS V14.01,2012-10-22 07:29:00,
2012-10-22 03:30:00,63.8,59.5,30.04,NNE,23,1.0,5.0,86,0.00,,---,0.00,0.00,VWS V14.01,2012-10-22 07:30:00,
2012-10-22 03:31:00,63.8,59.5,30.04,NNE,28,1.0,5.0,86,0.00,,---,0.00,0.00,VWS V14.01,2012-10-22 07:31:00,
2012-10-22 03:32:00,63.8,59.5,30.04,NE,49,0.0,5.0,86,0.00,,---,0.00,0.00,VWS V14.01,2012-10-22 07:32:00,
2012-10-22 03:33:00,63.9,59.6,30.04,ESE,108,2.0,5.0,86,0.00,,---,0.00,0.00,VWS V14.01,2012-10-22 07:33:00,
2012-10-22 03:34:00,63.7,59.4,30.04,NNE,33,4.0,5.0,86,0.00,,---,0.00,0.00,VWS V14.01,2012-10-22 07:34:00,
2012-10-22 03:35:00,63.7,59.4,30.04,ENE,70,4.0,5.0,86,0.00,,---,0.00,0.00,VWS V14.01,2012-10-22 07:35:00,
2012-10-22 03:36:00,63.7,59.4,30.04,NE,49,1.0,5.0,86,0.00,,---,0.00,0.00,VWS V14.01,2012-10-22 07:36:00,
2012-10-22 03:37:00,63.7,59.4,30.04,NE,51,2.0,5.0,86,0.00,,---,0.00,0.00,VWS V14.01,2012-10-22 07:37:00,
2012-10-22 03:38:00,63.8,59.5,30.04,ENE,71,0.0,5.0,86,0.00,,---,0.00,0.00,VWS V14.01,2012-10-22 07:38:00,
2012-10-22 03:39:00,63.7,59.4,30.04,NE,52,1.0,5.0,86,0.00,,---,0.00,0.00,VWS V14.01,2012-10-22 07:39:00,
2012-10-22 03:40:00,63.6,59.3,30.04,ENE,62,4.0,5.0,86,0.00,,---,0.00,0.00,VWS V14.01,2012-10-22 07:40:00,
2012-10-22 03:41:00,63.6,59.3,30.04,NE,55,2.0,5.0,86,0.00,,---,0.00,0.00,VWS V14.01,2012-10-22 07:41:00,
2012-10-22 03:43:00,63.8,59.5,30.04,NE,35,0.0,5.0,86,0.00,,---,0.00,0.00,VWS V14.01,2012-10-22 07:43:00,
2012-10-22 03:45:00,63.5,59.2,30.04,ENE,61,1.0,5.0,86,0.00,,---,0.00,0.00,VWS V14.01,2012-10-22 07:45:00,
2012-10-22 03:47:00,63.4,59.2,30.04,ENE,77,0.0,5.0,86,0.00,,---,0.00,0.00,VWS V14.01,2012-10-22 07:47:00,
2012-10-22 03:48:00,63.7,59.4,30.04,NE,52,0.0,5.0,86,0.00,,---,0.00,0.00,VWS V14.01,2012-10-22 07:48:00,
2012-10-22 03:50:00,63.4,59.2,30.04,NE,45,2.0,5.0,86,0.00,,---,0.00,0.00,VWS V14.01,2012-10-22 07:50:00,
2012-10-22 03:51:00,63.4,59.2,30.04,ENE,68,2.0,5.0,86,0.00,,---,0.00,0.00,VWS V14.01,2012-10-22 07:51:00,
2012-10-22 03:53:00,63.6,59.3,30.04,ENE,70,0.0,5.0,86,0.00,,---,0.00,0.00,VWS V14.01,2012-10-22 07:53:00,
2012-10-22 03:55:00,63.3,59.0,30.04,NE,52,2.0,5.0,86,0.00,,---,0.00,0.00,VWS V14.01,2012-10-22 07:55:00,
2012-10-22 03:56:00,63.3,59.0,30.04,North,6,1.0,5.0,86,0.00,,---,0.00,0.00,VWS V14.01,2012-10-22 07:56:00,
2012-10-22 03:57:00,63.3,59.0,30.04,ENE,68,1.0,5.0,86,0.00,,---,0.00,0.00,VWS V14.01,2012-10-22 07:57:00,
2012-10-22 03:58:00,63.4,59.2,30.04,ENE,77,1.0,5.0,86,0.00,,---,0.00,0.00,VWS V14.01,2012-10-22 07:58:00,
2012-10-22 03:59:00,63.2,59.3,30.04,ENE,64,0.0,5.0,87,0.00,,---,0.00,0.00,VWS V14.01,2012-10-22 07:59:00,
2012-10-22 04:00:00,63.3,59.4,30.04,NNE,21,1.0,2.0,87,0.00,,---,0.00,0.00,VWS V14.01,2012-10-22 08:00:00,
2012-10-22 04:01:00,63.3,59.4,30.04,ENE,75,0.0,2.0,87,0.00,,---,0.00,0.00,VWS V14.01,2012-10-22 08:01:00,
2012-10-22 04:02:00,63.3,59.4,30.03,ENE,75,1.0,2.0,87,0.00,,---,0.00,0.00,VWS V14.01,2012-10-22 08:02:00,
2012-10-22 04:03:00,63.3,59.0,30.04,NNE,29,4.0,5.0,86,0.00,,---,0.00,0.00,VWS V14.01,2012-10-22 08:03:00,
2012-10-22 04:04:00,63.3,59.4,30.03,NNE,27,3.0,5.0,87,0.00,,---,0.00,0.00,VWS V14.01,2012-10-22 08:04:00,
2012-10-22 04:05:00,63.3,59.4,30.03,ENE,72,3.0,5.0,87,0.00,,---,0.00,0.00,VWS V14.01,2012-10-22 08:05:00,
2012-10-22 04:06:00,63.3,59.4,30.04,ENE,60,1.0,5.0,87,0.00,,---,0.00,0.00,VWS V14.01,2012-10-22 08:06:00,
2012-10-22 04:07:00,63.3,59.4,30.03,NE,40,0.0,5.0,87,0.00,,---,0.00,0.00,VWS V14.01,2012-10-22 08:07:00,
2012-10-22 04:08:00,63.2,59.3,30.04,ENE,77,1.0,5.0,87,0.00,,---,0.00,0.00,VWS V14.01,2012-10-22 08:08:00,
2012-10-22 04:10:00,63.3,59.4,30.03,East,85,2.0,5.0,87,0.00,,---,0.00,0.00,VWS V14.01,2012-10-22 08:10:00,
2012-10-22 04:11:00,63.3,59.4,30.03,ENE,64,2.0,5.0,87,0.00,,---,0.00,0.00,VWS V14.01,2012-10-22 08:11:00,
2012-10-22 04:12:00,63.3,59.4,30.03,ENE,68,0.0,5.0,87,0.00,,---,0.00,0.00,VWS V14.01,2012-10-22 08:12:00,
2012-10-22 04:13:00,63.3,59.4,30.03,ENE,72,0.0,3.0,87,0.00,,---,0.00,0.00,VWS V14.01,2012-10-22 08:13:00,
2012-10-22 04:14:00,63.3,59.4,30.03,ENE,68,1.0,5.0,87,0.00,,---,0.00,0.00,VWS V14.01,2012-10-22 08:14:00,
2012-10-22 04:16:00,63.3,59.4,30.03,ENE,62,4.0,5.0,87,0.00,,---,0.00,0.00,VWS V14.01,2012-10-22 08:16:00,
2012-10-22 04:17:00,63.3,59.0,30.03,ENE,68,1.0,5.0,86,0.00,,---,0.00,0.00,VWS V14.01,2012-10-22 08:17:00,
2012-10-22 04:18:00,63.3,59.0,30.03,ESE,110,0.0,5.0,86,0.00,,---,0.00,0.00,VWS V14.01,2012-10-22 08:18:00,
2012-10-22 04:19:00,63.2,59.0,30.03,ENE,66,0.0,5.0,86,0.00,,---,0.00,0.00,VWS V14.01,2012-10-22 08:19:00,
2012-10-22 04:20:00,63.2,59.0,30.03,ENE,68,2.0,5.0,86,0.00,,---,0.00,0.00,VWS V14.01,2012-10-22 08:20:00,
2012-10-22 04:21:00,63.2,59.0,30.03,NE,56,3.0,5.0,86,0.00,,---,0.00,0.00,VWS V14.01,2012-10-22 08:21:00,
2012-10-22 04:22:00,63.2,59.0,30.03,NNE,26,1.0,5.0,86,0.00,,---,0.00,0.00,VWS V14.01,2012-10-22 08:22:00,
2012-10-22 04:23:00,63.3,59.4,30.03,ENE,68,2.0,5.0,87,0.00,,---,0.00,0.00,VWS V14.01,2012-10-22 08:23:00,
2012-10-22 04:24:00,63.2,59.0,30.03,ENE,71,1.0,5.0,86,0.00,,---,0.00,0.00,VWS V14.01,2012-10-22 08:24:00,
2012-10-22 04:26:00,63.2,59.0,30.03,ENE,65,1.0,5.0,86,0.00,,---,0.00,0.00,VWS V14.01,2012-10-22 08:26:00,
2012-10-22 04:27:00,63.2,59.0,30.03,ENE,60,2.0,5.0,86,0.00,,---,0.00,0.00,VWS V14.01,2012-10-22 08:27:00,
2012-10-22 04:28:00,63.2,59.0,30.03,ENE,68,1.0,5.0,86,0.00,,---,0.00,0.00,VWS V14.01,2012-10-22 08:28:00,
2012-10-22 04:29:00,63.2,59.0,30.03,ENE,62,2.0,5.0,86,0.00,,---,0.00,0.00,VWS V14.01,2012-10-22 08:29:00,
2012-10-22 04:30:00,63.2,59.0,30.03,East,88,0.0,5.0,86,0.00,,---,0.00,0.00,VWS V14.01,2012-10-22 08:30:00,
2012-10-22 04:31:00,63.2,59.0,30.03,East,87,2.0,5.0,86,0.00,,---,0.00,0.00,VWS V14.01,2012-10-22 08:31:00,
2012-10-22 04:32:00,63.2,59.0,30.03,NNE,32,1.0,5.0,86,0.00,,---,0.00,0.00,VWS V14.01,2012-10-22 08:32:00,
2012-10-22 04:33:00,63.2,59.0,30.03,ENE,71,2.0,5.0,86,0.00,,---,0.00,0.00,VWS V14.01,2012-10-22 08:33:00,
2012-10-22 04:34:00,63.2,59.0,30.03,NE,42,0.0,5.0,86,0.00,,---,0.00,0.00,VWS V14.01,2012-10-22 08:34:00,
2012-10-22 04:35:00,63.2,59.0,30.03,ENE,68,2.0,5.0,86,0.00,,---,0.00,0.00,VWS V14.01,2012-10-22 08:35:00,
2012-10-22 04:36:00,63.2,59.0,30.03,NE,40,1.0,5.0,86,0.00,,---,0.00,0.00,VWS V14.01,2012-10-22 08:36:00,
2012-10-22 04:37:00,63.2,59.0,30.03,East,91,2.0,5.0,86,0.00,,---,0.00,0.00,VWS V14.01,2012-10-22 08:37:00,
2012-10-22 04:38:00,63.2,59.0,30.03,ENE,62,1.0,5.0,86,0.00,,---,0.00,0.00,VWS V14.01,2012-10-22 08:38:00,
2012-10-22 04:39:00,63.3,59.4,30.03,NE,55,3.0,5.0,87,0.00,,---,0.00,0.00,VWS V14.01,2012-10-22 08:39:00,
2012-10-22 04:40:00,63.3,59.0,30.03,NE,50,0.0,5.0,86,0.00,,---,0.00,0.00,VWS V14.01,2012-10-22 08:40:00,
2012-10-22 04:42:00,63.3,59.0,30.03,NNE,25,2.0,5.0,86,0.00,,---,0.00,0.00,VWS V14.01,2012-10-22 08:42:00,
2012-10-22 04:43:00,63.2,59.0,30.03,NE,42,0.0,5.0,86,0.00,,---,0.00,0.00,VWS V14.01,2012-10-22 08:43:00,
2012-10-22 04:45:00,63.4,59.2,30.03,ENE,61,0.0,5.0,86,0.00,,---,0.00,0.00,VWS V14.01,2012-10-22 08:45:00,
2012-10-22 04:46:00,63.4,59.2,30.03,ENE,66,3.0,5.0,86,0.00,,---,0.00,0.00,VWS V14.01,2012-10-22 08:46:00,
2012-10-22 04:48:00,63.3,59.4,30.03,ENE,67,2.0,5.0,87,0.00,,---,0.00,0.00,VWS V14.01,2012-10-22 08:48:00,
2012-10-22 04:49:00,63.4,59.2,30.03,ENE,72,1.0,5.0,86,0.00,,---,0.00,0.00,VWS V14.01,2012-10-22 08:49:00,
2012-10-22 04:50:00,63.4,59.2,30.03,East,79,3.0,5.0,86,0.00,,---,0.00,0.00,VWS V14.01,2012-10-22 08:50:00,
2012-10-22 04:51:00,63.3,59.0,30.03,ENE,77,0.0,5.0,86,0.00,,---,0.00,0.00,VWS V14.01,2012-10-22 08:51:00,
2012-10-22 04:52:00,63.3,59.0,30.03,ENE,77,0.0,5.0,86,0.00,,---,0.00,0.00,VWS V14.01,2012-10-22 08:52:00,
2012-10-22 04:53:00,63.3,59.0,30.03,ENE,70,1.0,5.0,86,0.00,,---,0.00,0.00,VWS V14.01,2012-10-22 08:53:00,
2012-10-22 04:54:00,63.3,59.0,30.03,ENE,62,2.0,5.0,86,0.00,,---,0.00,0.00,VWS V14.01,2012-10-22 08:54:00,
2012-10-22 04:55:00,63.3,59.0,30.03,East,79,3.0,5.0,86,0.00,,---,0.00,0.00,VWS V14.01,2012-10-22 08:55:00,
2012-10-22 04:56:00,63.3,59.0,30.03,ENE,72,1.0,5.0,86,0.00,,---,0.00,0.00,VWS V14.01,2012-10-22 08:56:00,
2012-10-22 04:57:00,63.3,59.0,30.03,ENE,72,0.0,5.0,86,0.00,,---,0.00,0.00,VWS V14.01,2012-10-22 08:57:00,
2012-10-22 04:58:00,63.4,59.2,30.03,ENE,72,2.0,5.0,86,0.00,,---,0.00,0.00,VWS V14.01,2012-10-22 08:58:00,
2012-10-22 04:59:00,63.3,59.0,30.03,ENE,74,1.0,5.0,86,0.00,,---,0.00,0.00,VWS V14.01,2012-10-22 08:59:00,
2012-10-22 05:00:00,63.3,59.0,30.03,ENE,74,1.0,1.0,86,0.00,,---,0.00,0.00,VWS V14.01,2012-10-22 09:00:00,
2012-10-22 05:02:00,63.2,59.0,30.03,ENE,74,0.0,1.0,86,0.00,,---,0.00,0.00,VWS V14.01,2012-10-22 09:02:00,
2012-10-22 05:03:00,63.3,59.0,30.03,NE,54,1.0,5.0,86,0.00,,---,0.00,0.00,VWS V14.01,2012-10-22 09:03:00,
2012-10-22 05:04:00,63.2,59.0,30.03,ENE,59,2.0,2.0,86,0.00,,---,0.00,0.00,VWS V14.01,2012-10-22 09:04:00,
2012-10-22 05:05:00,63.2,59.0,30.03,ENE,59,0.0,2.0,86,0.00,,---,0.00,0.00,VWS V14.01,2012-10-22 09:05:00,
2012-10-22 05:06:00,63.2,59.0,30.03,NE,56,2.0,2.0,86,0.00,,---,0.00,0.00,VWS V14.01,2012-10-22 09:06:00,
2012-10-22 05:08:00,63.3,59.0,30.03,NNE,31,1.0,5.0,86,0.00,,---,0.00,0.00,VWS V14.01,2012-10-22 09:08:00,
2012-10-22 05:09:00,63.1,58.8,30.03,ENE,60,0.0,3.0,86,0.00,,---,0.00,0.00,VWS V14.01,2012-10-22 09:09:00,
2012-10-22 05:10:00,63.1,59.2,30.03,NE,48,1.0,3.0,87,0.00,,---,0.00,0.00,VWS V14.01,2012-10-22 09:10:00,
2012-10-22 05:11:00,63.1,59.2,30.03,NNE,17,2.0,3.0,87,0.00,,---,0.00,0.00,VWS V14.01,2012-10-22 09:11:00,
2012-10-22 05:12:00,63.1,59.2,30.03,ENE,64,2.0,3.0,87,0.00,,---,0.00,0.00,VWS V14.01,2012-10-22 09:12:00,
2012-10-22 05:13:00,63.2,59.0,30.03,ENE,59,0.0,2.0,86,0.00,,---,0.00,0.00,VWS V14.01,2012-10-22 09:13:00,
2012-10-22 05:14:00,63.1,59.2,30.03,NE,45,3.0,5.0,87,0.00,,---,0.00,0.00,VWS V14.01,2012-10-22 09:14:00,
2012-10-22 05:15:00,63.2,59.3,30.03,NNE,27,0.0,5.0,87,0.00,,---,0.00,0.00,VWS V14.01,2012-10-22 09:15:00,
2012-10-22 05:16:00,63.2,59.3,30.03,NNE,27,2.0,5.0,87,0.00,,---,0.00,0.00,VWS V14.01,2012-10-22 09:16:00,
2012-10-22 05:17:00,63.2,59.3,30.03,ENE,64,4.0,5.0,87,0.00,,---,0.00,0.00,VWS V14.01,2012-10-22 09:17:00,
2012-10-22 05:18:00,63.1,58.8,30.03,ENE,60,0.0,3.0,86,0.00,,---,0.00,0.00,VWS V14.01,2012-10-22 09:18:00,
2012-10-22 05:20:00,63.2,59.3,30.03,ENE,62,2.0,5.0,87,0.00,,---,0.00,0.00,VWS V14.01,2012-10-22 09:20:00,
2012-10-22 05:23:00,63.1,59.2,30.03,ENE,66,1.0,5.0,87,0.00,,---,0.00,0.00,VWS V14.01,2012-10-22 09:23:00,
2012-10-22 05:24:00,63.3,59.0,30.04,East,89,1.0,5.0,86,0.00,,---,0.00,0.00,VWS V14.01,2012-10-22 09:24:00,
2012-10-22 05:25:00,63.3,59.4,30.04,East,79,1.0,5.0,87,0.00,,---,0.00,0.00,VWS V14.01,2012-10-22 09:25:00,
2012-10-22 05:27:00,63.4,59.5,30.04,ENE,74,0.0,5.0,87,0.00,,---,0.00,0.00,VWS V14.01,2012-10-22 09:27:00,
2012-10-22 05:28:00,63.2,59.3,30.03,NE,49,1.0,5.0,87,0.00,,---,0.00,0.00,VWS V14.01,2012-10-22 09:28:00,
2012-10-22 05:29:00,63.4,59.5,30.04,East,79,0.0,5.0,87,0.00,,---,0.00,0.00,VWS V14.01,2012-10-22 09:29:00,
2012-10-22 05:31:00,63.4,59.5,30.04,NE,55,2.0,5.0,87,0.00,,---,0.00,0.00,VWS V14.01,2012-10-22 09:31:00,
2012-10-22 05:32:00,63.4,59.5,30.04,ENE,73,3.0,5.0,87,0.00,,---,0.00,0.00,VWS V14.01,2012-10-22 09:32:00,
2012-10-22 05:33:00,63.3,59.0,30.04,East,89,2.0,5.0,86,0.00,,---,0.00,0.00,VWS V14.01,2012-10-22 09:33:00,
2012-10-22 05:34:00,63.4,59.5,30.04,NE,38,0.0,5.0,87,0.00,,---,0.00,0.00,VWS V14.01,2012-10-22 09:34:00,
2012-10-22 05:35:00,63.4,59.5,30.04,ENE,62,2.0,5.0,87,0.00,,---,0.00,0.00,VWS V14.01,2012-10-22 09:35:00,
2012-10-22 05:36:00,63.4,59.5,30.04,East,83,0.0,5.0,87,0.00,,---,0.00,0.00,VWS V14.01,2012-10-22 09:36:00,
2012-10-22 05:37:00,63.3,59.4,30.04,NNE,29,2.0,5.0,87,0.00,,---,0.00,0.00,VWS V14.01,2012-10-22 09:37:00,
2012-10-22 05:38:00,63.4,59.2,30.04,East,79,3.0,5.0,86,0.00,,---,0.00,0.00,VWS V14.01,2012-10-22 09:38:00,
2012-10-22 05:39:00,63.3,59.4,30.04,ENE,75,0.0,5.0,87,0.00,,---,0.00,0.00,VWS V14.01,2012-10-22 09:39:00,
2012-10-22 05:40:00,63.3,59.4,30.04,ENE,58,1.0,5.0,87,0.00,,---,0.00,0.00,VWS V14.01,2012-10-22 09:40:00,
2012-10-22 05:41:00,63.3,59.4,30.04,ENE,58,1.0,5.0,87,0.00,,---,0.00,0.00,VWS V14.01,2012-10-22 09:41:00,
2012-10-22 05:42:00,63.3,59.4,30.04,ENE,72,4.0,5.0,87,0.00,,---,0.00,0.00,VWS V14.01,2012-10-22 09:42:00,
2012-10-22 05:43:00,63.4,59.5,30.04,NNE,32,0.0,5.0,87,0.00,,---,0.00,0.00,VWS V14.01,2012-10-22 09:43:00,
2012-10-22 05:44:00,63.3,59.4,30.04,ENE,66,3.0,5.0,87,0.00,,---,0.00,0.00,VWS V14.01,2012-10-22 09:44:00,
2012-10-22 05:46:00,63.3,59.4,30.04,ENE,74,0.0,5.0,87,0.00,,---,0.00,0.00,VWS V14.01,2012-10-22 09:46:00,
2012-10-22 05:47:00,63.3,59.4,30.04,ENE,74,0.0,5.0,87,0.00,,---,0.00,0.00,VWS V14.01,2012-10-22 09:47:00,
2012-10-22 05:48:00,63.3,59.4,30.04,ENE,75,2.0,5.0,87,0.00,,---,0.00,0.00,VWS V14.01,2012-10-22 09:48:00,
2012-10-22 05:49:00,63.3,59.4,30.04,ENE,74,1.0,5.0,87,0.00,,---,0.00,0.00,VWS V14.01,2012-10-22 09:49:00,
2012-10-22 05:50:00,63.2,59.3,30.04,ENE,74,0.0,5.0,87,0.00,,---,0.00,0.00,VWS V14.01,2012-10-22 09:50:00,
2012-10-22 05:51:00,63.2,59.3,30.04,ENE,74,0.0,5.0,87,0.00,,---,0.00,0.00,VWS V14.01,2012-10-22 09:51:00,
2012-10-22 05:52:00,63.2,59.3,30.04,ENE,74,0.0,5.0,87,0.00,,---,0.00,0.00,VWS V14.01,2012-10-22 09:52:00,
2012-10-22 05:53:00,63.3,59.4,30.04,NE,54,0.0,5.0,87,0.00,,---,0.00,0.00,VWS V14.01,2012-10-22 09:53:00,
2012-10-22 05:54:00,63.2,59.6,30.04,ENE,74,0.0,5.0,88,0.00,,---,0.00,0.00,VWS V14.01,2012-10-22 09:54:00,
2012-10-22 05:55:00,63.2,59.6,30.04,NE,45,0.0,5.0,88,0.00,,---,0.00,0.00,VWS V14.01,2012-10-22 09:55:00,
2012-10-22 05:57:00,63.2,59.6,30.04,NE,44,3.0,5.0,88,0.00,,---,0.00,0.00,VWS V14.01,2012-10-22 09:57:00,
2012-10-22 05:58:00,63.3,59.4,30.04,ENE,74,0.0,5.0,87,0.00,,---,0.00,0.00,VWS V14.01,2012-10-22 09:58:00,
2012-10-22 05:59:00,63.2,59.6,30.04,NE,54,2.0,5.0,88,0.00,,---,0.00,0.00,VWS V14.01,2012-10-22 09:59:00,
2012-10-22 06:00:00,63.3,59.0,30.03,ENE,74,0.0,5.0,86,0.00,,---,0.00,0.00,VWS V14.01,2012-10-22 10:00:00,
2012-10-22 06:01:00,63.2,59.6,30.05,ENE,63,2.0,4.0,88,0.00,,---,0.00,0.00,VWS V14.01,2012-10-22 10:01:00,
2012-10-22 06:02:00,63.1,59.5,30.05,ENE,77,1.0,4.0,88,0.00,,---,0.00,0.00,VWS V14.01,2012-10-22 10:02:00,
2012-10-22 06:03:00,63.2,59.6,30.04,ENE,74,0.0,5.0,88,0.00,,---,0.00,0.00,VWS V14.01,2012-10-22 10:03:00,
2012-10-22 06:04:00,63.1,59.5,30.05,North,4,1.0,4.0,88,0.00,,---,0.00,0.00,VWS V14.01,2012-10-22 10:04:00,
2012-10-22 06:05:00,63.1,59.5,30.05,ENE,59,1.0,4.0,88,0.00,,---,0.00,0.00,VWS V14.01,2012-10-22 10:05:00,
2012-10-22 06:07:00,63.1,59.5,30.05,North,350,2.0,4.0,88,0.00,,---,0.00,0.00,VWS V14.01,2012-10-22 10:07:00,
2012-10-22 06:08:00,63.2,59.6,30.04,NE,44,0.0,5.0,88,0.00,,---,0.00,0.00,VWS V14.01,2012-10-22 10:08:00,
2012-10-22 06:09:00,63.2,59.6,30.05,North,350,0.0,4.0,88,0.00,,---,0.00,0.00,VWS V14.01,2012-10-22 10:09:00,
2012-10-22 06:10:00,63.2,59.6,30.05,North,350,0.0,4.0,88,0.00,,---,0.00,0.00,VWS V14.01,2012-10-22 10:10:00,
2012-10-22 06:11:00,63.2,59.6,30.05,East,88,0.0,4.0,88,0.00,,---,0.00,0.00,VWS V14.01,2012-10-22 10:11:00,
2012-10-22 06:12:00,63.3,59.7,30.05,East,88,0.0,4.0,88,0.00,,---,0.00,0.00,VWS V14.01,2012-10-22 10:12:00,
2012-10-22 06:13:00,63.1,59.5,30.05,NNE,22,2.0,4.0,88,0.00,,---,0.00,0.00,VWS V14.01,2012-10-22 10:13:00,
2012-10-22 06:14:00,63.3,60.0,30.05,NNE,25,2.0,4.0,89,0.00,,---,0.00,0.00,VWS V14.01,2012-10-22 10:14:00,
2012-10-22 06:15:00,63.3,60.0,30.05,ENE,62,3.0,4.0,89,0.00,,---,0.00,0.00,VWS V14.01,2012-10-22 10:15:00,
2012-10-22 06:16:00,63.3,59.7,30.05,ENE,77,2.0,4.0,88,0.00,,---,0.00,0.00,VWS V14.01,2012-10-22 10:16:00,
2012-10-22 06:17:00,63.3,59.7,30.05,NE,48,2.0,5.0,88,0.00,,---,0.00,0.00,VWS V14.01,2012-10-22 10:17:00,
2012-10-22 06:18:00,63.2,59.6,30.05,North,350,0.0,4.0,88,0.00,,---,0.00,0.00,VWS V14.01,2012-10-22 10:18:00,
2012-10-22 06:20:00,63.3,59.7,30.05,NNE,30,0.0,5.0,88,0.00,,---,0.00,0.00,VWS V14.01,2012-10-22 10:20:00,
2012-10-22 06:22:00,63.3,59.7,30.05,ENE,68,2.0,5.0,88,0.00,,---,0.00,0.00,VWS V14.01,2012-10-22 10:22:00,
2012-10-22 06:23:00,63.3,60.0,30.05,ENE,62,4.0,4.0,89,0.00,,---,0.00,0.00,VWS V14.01,2012-10-22 10:23:00,
2012-10-22 06:24:00,63.3,59.7,30.05,NNE,30,1.0,5.0,88,0.00,,---,0.00,0.00,VWS V14.01,2012-10-22 10:24:00,
2012-10-22 06:25:00,63.3,59.7,30.05,ENE,71,2.0,5.0,88,0.00,,---,0.00,0.00,VWS V14.01,2012-10-22 10:25:00,
2012-10-22 06:26:00,63.3,59.7,30.05,ENE,61,2.0,5.0,88,0.00,,---,0.00,0.00,VWS V14.01,2012-10-22 10:26:00,
2012-10-22 06:27:00,63.2,59.6,30.05,NE,54,1.0,5.0,88,0.00,,---,0.00,0.00,VWS V14.01,2012-10-22 10:27:00,
2012-10-22 06:28:00,63.3,59.7,30.05,NE,46,1.0,5.0,88,0.00,,---,0.00,0.00,VWS V14.01,2012-10-22 10:28:00,
2012-10-22 06:29:00,63.2,59.6,30.05,ENE,77,3.0,5.0,88,0.00,,---,0.00,0.00,VWS V14.01,2012-10-22 10:29:00,
2012-10-22 06:30:00,63.2,59.6,30.05,East,79,0.0,5.0,88,0.00,,---,0.00,0.00,VWS V14.01,2012-10-22 10:30:00,
2012-10-22 06:31:00,63.2,59.6,30.06,NNE,32,2.0,5.0,88,0.00,,---,0.00,0.00,VWS V14.01,2012-10-22 10:31:00,
2012-10-22 06:32:00,63.2,59.6,30.05,ENE,72,0.0,5.0,88,0.00,,---,0.00,0.00,VWS V14.01,2012-10-22 10:32:00,
2012-10-22 06:33:00,63.3,59.7,30.05,NNE,23,1.0,5.0,88,0.00,,---,0.00,0.00,VWS V14.01,2012-10-22 10:33:00,
2012-10-22 06:34:00,63.2,59.6,30.05,NE,46,0.0,5.0,88,0.00,,---,0.00,0.00,VWS V14.01,2012-10-22 10:34:00,
2012-10-22 06:35:00,63.2,59.6,30.05,NE,46,0.0,5.0,88,0.00,,---,0.00,0.00,VWS V14.01,2012-10-22 10:35:00,
2012-10-22 06:36:00,63.2,59.6,30.05,NE,45,1.0,5.0,88,0.00,,---,0.00,0.00,VWS V14.01,2012-10-22 10:36:00,
2012-10-22 06:37:00,63.2,59.6,30.06,NE,44,0.0,5.0,88,0.00,,---,0.00,0.00,VWS V14.01,2012-10-22 10:37:00,
2012-10-22 06:38:00,63.3,59.7,30.05,East,81,1.0,5.0,88,0.00,,---,0.00,0.00,VWS V14.01,2012-10-22 10:38:00,
2012-10-22 06:39:00,63.2,59.6,30.06,East,79,1.0,5.0,88,0.00,,---,0.00,0.00,VWS V14.01,2012-10-22 10:39:00,
2012-10-22 06:40:00,63.2,59.6,30.06,ENE,70,2.0,5.0,88,0.00,,---,0.00,0.00,VWS V14.01,2012-10-22 10:40:00,
2012-10-22 06:41:00,63.2,59.6,30.06,ENE,70,0.0,5.0,88,0.00,,---,0.00,0.00,VWS V14.01,2012-10-22 10:41:00,
2012-10-22 06:43:00,63.2,59.6,30.05,NE,46,0.0,5.0,88,0.00,,---,0.00,0.00,VWS V14.01,2012-10-22 10:43:00,
2012-10-22 06:44:00,63.2,59.6,30.06,NE,56,2.0,6.0,88,0.00,,---,0.00,0.00,VWS V14.01,2012-10-22 10:44:00,
2012-10-22 06:45:00,63.2,59.6,30.06,ENE,65,1.0,6.0,88,0.00,,---,0.00,0.00,VWS V14.01,2012-10-22 10:45:00,
2012-10-22 06:46:00,63.2,59.6,30.06,ENE,62,1.0,6.0,88,0.00,,---,0.00,0.00,VWS V14.01,2012-10-22 10:46:00,
2012-10-22 06:47:00,63.1,59.5,30.06,ENE,64,1.0,6.0,88,0.00,,---,0.00,0.00,VWS V14.01,2012-10-22 10:47:00,
2012-10-22 06:48:00,63.2,59.6,30.06,East,79,1.0,5.0,88,0.00,,---,0.00,0.00,VWS V14.01,2012-10-22 10:48:00,
2012-10-22 06:49:00,63.1,59.5,30.06,ENE,60,2.0,6.0,88,0.00,,---,0.00,0.00,VWS V14.01,2012-10-22 10:49:00,
2012-10-22 06:51:00,63.1,59.5,30.06,NE,42,3.0,6.0,88,0.00,,---,0.00,0.00,VWS V14.01,2012-10-22 10:51:00,
2012-10-22 06:52:00,63.1,59.5,30.06,ENE,60,2.0,6.0,88,0.00,,---,0.00,0.00,VWS V14.01,2012-10-22 10:52:00,
2012-10-22 06:53:00,63.2,59.6,30.06,ENE,62,0.0,6.0,88,0.00,,---,0.00,0.00,VWS V14.01,2012-10-22 10:53:00,
2012-10-22 06:54:00,63.1,59.5,30.06,ENE,76,3.0,6.0,88,0.00,,---,0.00,0.00,VWS V14.01,2012-10-22 10:54:00,
2012-10-22 06:55:00,63.0,59.4,30.06,East,81,2.0,6.0,88,0.00,,---,0.00,0.00,VWS V14.01,2012-10-22 10:55:00,
2012-10-22 06:56:00,63.0,59.4,30.06,NE,52,1.0,6.0,88,0.00,,---,0.00,0.00,VWS V14.01,2012-10-22 10:56:00,
2012-10-22 06:57:00,63.0,59.4,30.06,NE,52,0.0,6.0,88,0.00,,---,0.00,0.00,VWS V14.01,2012-10-22 10:57:00,
2012-10-22 06:58:00,63.1,59.5,30.06,ENE,60,0.0,6.0,88,0.00,,---,0.00,0.00,VWS V14.01,2012-10-22 10:58:00,
2012-10-22 06:59:00,62.9,59.3,30.06,NE,52,0.0,6.0,88,0.00,,---,0.00,0.00,VWS V14.01,2012-10-22 10:59:00,
2012-10-22 07:00:00,62.9,59.3,30.06,ENE,66,2.0,2.0,88,0.00,,---,0.00,0.00,VWS V14.01,2012-10-22 11:00:00,
2012-10-22 07:01:00,62.9,59.3,30.06,NE,37,3.0,3.0,88,0.00,,---,0.00,0.00,VWS V14.01,2012-10-22 11:01:00,
2012-10-22 07:02:00,62.9,59.6,30.06,NE,37,1.0,4.0,89,0.00,,---,0.00,0.00,VWS V14.01,2012-10-22 11:02:00,
2012-10-22 07:03:00,63.1,59.5,30.06,ENE,66,1.0,6.0,88,0.00,,---,0.00,0.00,VWS V14.01,2012-10-22 11:03:00,
2012-10-22 07:04:00,62.9,59.6,30.06,ENE,68,2.0,4.0,89,0.00,,---,0.00,0.00,VWS V14.01,2012-10-22 11:04:00,
2012-10-22 07:05:00,62.9,59.6,30.06,NNE,24,2.0,4.0,89,0.00,,---,0.00,0.00,VWS V14.01,2012-10-22 11:05:00,
2012-10-22 07:06:00,62.9,59.6,30.06,NNE,27,0.0,4.0,89,0.00,,---,0.00,0.00,VWS V14.01,2012-10-22 11:06:00,
2012-10-22 07:07:00,62.9,59.6,30.06,ENE,60,0.0,4.0,89,0.00,,---,0.00,0.00,VWS V14.01,2012-10-22 11:07:00,
2012-10-22 07:08:00,62.9,59.3,30.06,NE,52,0.0,6.0,88,0.00,,---,0.00,0.00,VWS V14.01,2012-10-22 11:08:00,
2012-10-22 07:10:00,62.9,59.6,30.07,NE,35,0.0,4.0,89,0.00,,---,0.00,0.00,VWS V14.01,2012-10-22 11:10:00,
2012-10-22 07:11:00,62.9,59.6,30.06,NE,50,1.0,4.0,89,0.00,,---,0.00,0.00,VWS V14.01,2012-10-22 11:11:00,
2012-10-22 07:12:00,62.9,59.6,30.07,ENE,71,1.0,4.0,89,0.00,,---,0.00,0.00,VWS V14.01,2012-10-22 11:12:00,
2012-10-22 07:13:00,62.9,59.6,30.06,NNE,23,1.0,4.0,89,0.00,,---,0.00,0.00,VWS V14.01,2012-10-22 11:13:00,
2012-10-22 07:14:00,63.0,59.7,30.07,NE,50,1.0,5.0,89,0.00,,---,0.00,0.00,VWS V14.01,2012-10-22 11:14:00,
2012-10-22 07:15:00,63.0,59.7,30.07,NE,50,2.0,5.0,89,0.00,,---,0.00,0.00,VWS V14.01,2012-10-22 11:15:00,
2012-10-22 07:16:00,62.9,59.6,30.07,NNE,23,0.0,5.0,89,0.00,,---,0.00,0.00,VWS V14.01,2012-10-22 11:16:00,
2012-10-22 07:17:00,62.9,59.6,30.07,NNE,28,1.0,5.0,89,0.00,,---,0.00,0.00,VWS V14.01,2012-10-22 11:17:00,
2012-10-22 07:18:00,62.9,59.6,30.06,ENE,61,0.0,4.0,89,0.00,,---,0.00,0.00,VWS V14.01,2012-10-22 11:18:00,
2012-10-22 07:19:00,62.9,59.6,30.07,ENE,62,0.0,5.0,89,0.00,,---,0.00,0.00,VWS V14.01,2012-10-22 11:19:00,
2012-10-22 07:20:00,63.0,59.7,30.07,ENE,62,3.0,5.0,89,0.00,,---,0.00,0.00,VWS V14.01,2012-10-22 11:20:00,
2012-10-22 07:22:00,63.0,59.7,30.07,ENE,58,2.0,5.0,89,0.00,,---,0.00,0.00,VWS V14.01,2012-10-22 11:22:00,
2012-10-22 07:23:00,63.0,59.7,30.07,NE,50,1.0,5.0,89,0.00,,---,0.00,0.00,VWS V14.01,2012-10-22 11:23:00,
2012-10-22 07:25:00,63.0,59.7,30.07,ENE,71,3.0,5.0,89,0.00,,---,0.00,0.00,VWS V14.01,2012-10-22 11:25:00,
2012-10-22 07:27:00,62.9,59.6,30.07,ESE,102,0.0,5.0,89,0.00,,---,0.00,5.00,VWS V14.01,2012-10-22 11:27:00,
2012-10-22 07:28:00,62.9,59.6,30.07,NE,50,1.0,5.0,89,0.00,,---,0.00,5.00,VWS V14.01,2012-10-22 11:28:00,
2012-10-22 07:29:00,62.9,59.6,30.07,ENE,62,1.0,5.0,89,0.00,,---,0.00,0.00,VWS V14.01,2012-10-22 11:29:00,
2012-10-22 07:30:00,62.9,59.6,30.07,ENE,60,1.0,5.0,89,0.00,,---,0.00,5.00,VWS V14.01,2012-10-22 11:30:00,
2012-10-22 07:31:00,62.9,59.6,30.07,ENE,78,2.0,5.0,89,0.00,,---,0.00,5.00,VWS V14.01,2012-10-22 11:31:00,
2012-10-22 07:32:00,62.9,59.6,30.07,NE,56,1.0,5.0,89,0.00,,---,0.00,7.00,VWS V14.01,2012-10-22 11:32:00,
2012-10-22 07:33:00,62.8,59.5,30.07,NE,55,0.0,5.0,89,0.00,,---,0.00,7.00,VWS V14.01,2012-10-22 11:33:00,
2012-10-22 07:34:00,63.0,59.7,30.07,NE,56,0.0,5.0,89,0.00,,---,0.00,0.00,VWS V14.01,2012-10-22 11:34:00,
2012-10-22 07:35:00,62.8,59.5,30.07,ENE,59,3.0,5.0,89,0.00,,---,0.00,9.00,VWS V14.01,2012-10-22 11:35:00,
2012-10-22 07:37:00,62.8,59.5,30.07,ENE,76,2.0,5.0,89,0.00,,---,0.00,9.00,VWS V14.01,2012-10-22 11:37:00,
2012-10-22 07:38:00,62.9,59.6,30.07,NE,43,3.0,5.0,89,0.00,,---,0.00,9.00,VWS V14.01,2012-10-22 11:38:00,
2012-10-22 07:39:00,62.9,59.6,30.07,ENE,59,2.0,5.0,89,0.00,,---,0.00,5.00,VWS V14.01,2012-10-22 11:39:00,
2012-10-22 07:40:00,62.9,59.6,30.07,ENE,58,6.0,6.0,89,0.00,,---,0.00,11.00,VWS V14.01,2012-10-22 11:40:00,
2012-10-22 07:41:00,62.9,59.6,30.08,ENE,60,1.0,6.0,89,0.00,,---,0.00,11.00,VWS V14.01,2012-10-22 11:41:00,
2012-10-22 07:42:00,62.9,59.6,30.07,ENE,70,2.0,6.0,89,0.00,,---,0.00,12.00,VWS V14.01,2012-10-22 11:42:00,
2012-10-22 07:43:00,62.9,59.6,30.07,ENE,61,0.0,6.0,89,0.00,,---,0.00,12.00,VWS V14.01,2012-10-22 11:43:00,
2012-10-22 07:44:00,62.8,59.5,30.07,NE,39,0.0,5.0,89,0.00,,---,0.00,7.00,VWS V14.01,2012-10-22 11:44:00,
2012-10-22 07:45:00,63.0,59.7,30.08,East,92,4.0,6.0,89,0.00,,---,0.00,14.00,VWS V14.01,2012-10-22 11:45:00,
2012-10-22 07:47:00,63.0,59.7,30.08,NNE,27,1.0,6.0,89,0.00,,---,0.00,16.00,VWS V14.01,2012-10-22 11:47:00,
2012-10-22 07:48:00,63.0,59.7,30.08,NNE,27,1.0,6.0,89,0.00,,---,0.00,16.00,VWS V14.01,2012-10-22 11:48:00,
2012-10-22 07:49:00,62.9,59.6,30.07,NE,53,2.0,5.0,89,0.00,,---,0.00,11.00,VWS V14.01,2012-10-22 11:49:00,
2012-10-22 07:51:00,63.0,60.0,30.08,ENE,77,4.0,6.0,90,0.00,,---,0.00,18.00,VWS V14.01,2012-10-22 11:51:00,
2012-10-22 07:52:00,63.1,60.1,30.08,ENE,63,1.0,6.0,90,0.00,,---,0.00,18.00,VWS V14.01,2012-10-22 11:52:00,
2012-10-22 07:53:00,63.1,60.1,30.08,ENE,63,0.0,6.0,90,0.00,,---,0.00,19.00,VWS V14.01,2012-10-22 11:53:00,
2012-10-22 07:54:00,63.0,59.7,30.08,NNE,33,2.0,6.0,89,0.00,,---,0.00,14.00,VWS V14.01,2012-10-22 11:54:00,
2012-10-22 07:55:00,63.1,60.1,30.08,NE,56,0.0,6.0,90,0.00,,---,0.00,21.00,VWS V14.01,2012-10-22 11:55:00,
2012-10-22 07:56:00,63.2,60.2,30.08,NE,56,2.0,6.0,90,0.00,,---,0.00,21.00,VWS V14.01,2012-10-22 11:56:00,
2012-10-22 07:57:00,63.2,60.2,30.08,NE,55,2.0,6.0,90,0.00,,---,0.00,21.00,VWS V14.01,2012-10-22 11:57:00,
2012-10-22 07:58:00,63.2,60.2,30.08,ENE,62,1.0,6.0,90,0.00,,---,0.00,23.00,VWS V14.01,2012-10-22 11:58:00,
2012-10-22 07:59:00,63.0,59.7,30.08,ENE,59,3.0,6.0,89,0.00,,---,0.00,16.00,VWS V14.01,2012-10-22 11:59:00,
2012-10-22 08:00:00,63.3,60.3,30.08,NE,43,0.0,1.0,90,0.00,,---,0.00,23.00,VWS V14.01,2012-10-22 12:00:00,
2012-10-22 08:01:00,63.3,60.3,30.08,ENE,74,0.0,2.0,90,0.00,,---,0.00,25.00,VWS V14.01,2012-10-22 12:01:00,
2012-10-22 08:02:00,63.3,60.3,30.08,ENE,59,2.0,4.0,90,0.00,,---,0.00,25.00,VWS V14.01,2012-10-22 12:02:00,
2012-10-22 08:03:00,63.3,60.3,30.08,ENE,66,2.0,4.0,90,0.00,,---,0.00,26.00,VWS V14.01,2012-10-22 12:03:00,
2012-10-22 08:04:00,63.1,60.1,30.08,North,9,2.0,6.0,90,0.00,,---,0.00,21.00,VWS V14.01,2012-10-22 12:04:00,
2012-10-22 08:06:00,63.4,60.4,30.08,NE,45,0.0,4.0,90,0.00,,---,0.00,33.00,VWS V14.01,2012-10-22 12:06:00,
2012-10-22 08:07:00,63.5,60.5,30.08,ENE,72,1.0,4.0,90,0.00,,---,0.00,33.00,VWS V14.01,2012-10-22 12:07:00,
2012-10-22 08:08:00,63.5,60.5,30.08,East,86,3.0,4.0,90,0.00,,---,0.00,28.00,VWS V14.01,2012-10-22 12:08:00,
2012-10-22 08:09:00,63.2,60.2,30.08,NE,43,1.0,1.0,90,0.00,,---,0.00,23.00,VWS V14.01,2012-10-22 12:09:00,
2012-10-22 08:10:00,63.6,60.6,30.08,NE,55,3.0,4.0,90,0.00,,---,0.00,30.00,VWS V14.01,2012-10-22 12:10:00,
2012-10-22 08:11:00,63.6,60.6,30.08,East,81,5.0,5.0,90,0.00,,---,0.00,30.00,VWS V14.01,2012-10-22 12:11:00,
2012-10-22 08:12:00,63.6,60.3,30.08,ENE,62,0.0,5.0,89,0.00,,---,0.00,37.00,VWS V14.01,2012-10-22 12:12:00,
2012-10-22 08:14:00,63.4,60.4,30.08,ENE,67,2.0,4.0,90,0.00,,---,0.00,26.00,VWS V14.01,2012-10-22 12:14:00,
2012-10-22 08:15:00,63.8,60.5,30.08,North,349,1.0,5.0,89,0.00,,---,0.00,33.00,VWS V14.01,2012-10-22 12:15:00,
2012-10-22 08:16:00,63.9,60.6,30.08,ENE,60,3.0,5.0,89,0.00,,---,0.00,33.00,VWS V14.01,2012-10-22 12:16:00,
2012-10-22 08:17:00,63.9,60.6,30.08,NE,41,1.0,5.0,89,0.00,,---,0.00,33.00,VWS V14.01,2012-10-22 12:17:00,
2012-10-22 08:18:00,64.0,60.7,30.08,NE,55,3.0,5.0,89,0.00,,---,0.00,33.00,VWS V14.01,2012-10-22 12:18:00,
2012-10-22 08:19:00,63.6,60.6,30.08,ENE,67,2.0,4.0,90,0.00,,---,0.00,28.00,VWS V14.01,2012-10-22 12:19:00,
2012-10-22 08:20:00,64.2,60.9,30.08,ENE,58,1.0,5.0,89,0.00,,---,0.00,56.00,VWS V14.01,2012-10-22 12:20:00,
2012-10-22 08:21:00,64.2,60.9,30.08,ENE,74,2.0,5.0,89,0.00,,---,0.00,69.00,VWS V14.01,2012-10-22 12:21:00,
2012-10-22 08:22:00,64.3,61.0,30.08,NE,42,3.0,5.0,89,0.00,,---,0.00,69.00,VWS V14.01,2012-10-22 12:22:00,
2012-10-22 08:23:00,64.3,61.0,30.09,NNE,12,2.0,5.0,89,0.00,,---,0.00,56.00,VWS V14.01,2012-10-22 12:23:00,
2012-10-22 08:24:00,63.8,60.5,30.08,ENE,68,4.0,5.0,89,0.00,,---,0.00,40.00,VWS V14.01,2012-10-22 12:24:00,
2012-10-22 08:25:00,64.5,61.2,30.09,NNE,27,1.0,5.0,89,0.00,,---,0.00,46.00,VWS V14.01,2012-10-22 12:25:00,
2012-10-22 08:26:00,64.6,61.3,30.09,NE,43,3.0,5.0,89,0.00,,---,0.00,60.00,VWS V14.01,2012-10-22 12:26:00,
2012-10-22 08:27:00,64.7,61.1,30.09,NW,323,0.0,5.0,88,0.00,,---,0.00,63.00,VWS V14.01,2012-10-22 12:27:00,
2012-10-22 08:28:00,64.8,61.2,30.09,NE,40,1.0,5.0,88,0.00,,---,0.00,56.00,VWS V14.01,2012-10-22 12:28:00,
2012-10-22 08:29:00,64.1,60.8,30.08,ENE,58,2.0,5.0,89,0.00,,---,0.00,46.00,VWS V14.01,2012-10-22 12:29:00,
2012-10-22 08:30:00,65.0,61.4,30.09,NNE,23,1.0,5.0,88,0.00,,---,0.00,60.00,VWS V14.01,2012-10-22 12:30:00,
2012-10-22 08:31:00,65.0,61.4,30.09,NNE,23,0.0,5.0,88,0.00,,---,0.00,105.00,VWS V14.01,2012-10-22 12:31:00,
2012-10-22 08:32:00,65.1,61.5,30.09,NNE,23,0.0,5.0,88,0.00,,---,0.00,156.00,VWS V14.01,2012-10-22 12:32:00,
2012-10-22 08:33:00,65.2,61.6,30.09,NNE,23,0.0,5.0,88,0.00,,---,0.00,165.00,VWS V14.01,2012-10-22 12:33:00,
2012-10-22 08:34:00,64.5,60.9,30.09,ENE,62,1.0,5.0,88,0.00,,---,0.00,46.00,VWS V14.01,2012-10-22 12:34:00,
2012-10-22 08:35:00,65.3,61.7,30.09,NNE,23,0.0,5.0,88,0.00,,---,0.00,163.00,VWS V14.01,2012-10-22 12:35:00,
2012-10-22 08:36:00,65.3,61.7,30.09,NNE,23,0.0,5.0,88,0.00,,---,0.00,163.00,VWS V14.01,2012-10-22 12:36:00,
2012-10-22 08:37:00,65.4,61.8,30.09,NNE,23,1.0,5.0,88,0.00,,---,0.00,167.00,VWS V14.01,2012-10-22 12:37:00,
2012-10-22 08:38:00,65.6,62.0,30.09,NNE,23,0.0,5.0,88,0.00,,---,0.00,167.00,VWS V14.01,2012-10-22 12:38:00,
2012-10-22 08:39:00,64.9,61.3,30.09,NNE,14,0.0,5.0,88,0.00,,---,0.00,60.00,VWS V14.01,2012-10-22 12:39:00,
2012-10-22 08:40:00,65.8,62.2,30.09,NNE,23,0.0,5.0,88,0.00,,---,0.00,153.00,VWS V14.01,2012-10-22 12:40:00,
2012-10-22 08:41:00,65.8,62.2,30.09,NNE,24,1.0,5.0,88,0.00,,---,0.00,163.00,VWS V14.01,2012-10-22 12:41:00,
2012-10-22 08:42:00,65.9,61.9,30.09,East,89,2.0,5.0,87,0.00,,---,0.00,171.00,VWS V14.01,2012-10-22 12:42:00,
2012-10-22 08:43:00,66.0,62.0,30.09,East,89,0.0,5.0,87,0.00,,---,0.00,135.00,VWS V14.01,2012-10-22 12:43:00,
2012-10-22 08:44:00,65.3,61.7,30.09,NNE,23,0.0,5.0,88,0.00,,---,0.00,163.00,VWS V14.01,2012-10-22 12:44:00,
2012-10-22 08:45:00,66.3,62.6,30.09,NW,308,2.0,5.0,88,0.00,,---,0.00,132.00,VWS V14.01,2012-10-22 12:45:00,
2012-10-22 08:46:00,66.4,62.4,30.09,ENE,64,0.0,5.0,87,0.00,,---,0.00,53.00,VWS V14.01,2012-10-22 12:46:00,
2012-10-22 08:47:00,66.5,62.5,30.09,East,79,1.0,5.0,87,0.00,,---,0.00,53.00,VWS V14.01,2012-10-22 12:47:00,
2012-10-22 08:48:00,66.6,62.6,30.09,North,356,0.0,5.0,87,0.00,,---,0.00,144.00,VWS V14.01,2012-10-22 12:48:00,
2012-10-22 08:49:00,65.8,62.2,30.09,NNE,23,0.0,5.0,88,0.00,,---,0.00,153.00,VWS V14.01,2012-10-22 12:49:00,
2012-10-22 08:51:00,66.9,62.9,30.09,East,81,1.0,5.0,87,0.00,,---,0.00,88.00,VWS V14.01,2012-10-22 12:51:00,
2012-10-22 08:52:00,67.0,62.7,30.09,ENE,72,2.0,5.0,86,0.00,,---,0.00,88.00,VWS V14.01,2012-10-22 12:52:00,
2012-10-22 08:53:00,67.1,62.8,30.09,ENE,68,2.0,5.0,86,0.00,,---,0.00,51.00,VWS V14.01,2012-10-22 12:53:00,
2012-10-22 08:54:00,66.2,62.5,30.09,NE,53,4.0,5.0,88,0.00,,---,0.00,132.00,VWS V14.01,2012-10-22 12:54:00,
2012-10-22 08:55:00,67.3,62.6,30.09,NE,36,1.0,5.0,85,0.00,,---,0.00,49.00,VWS V14.01,2012-10-22 12:55:00,
2012-10-22 08:56:00,67.4,62.7,30.09,ENE,60,2.0,5.0,85,0.00,,---,0.00,74.00,VWS V14.01,2012-10-22 12:56:00,
2012-10-22 08:57:00,67.6,62.9,30.09,ENE,60,0.0,5.0,85,0.00,,---,0.00,62.00,VWS V14.01,2012-10-22 12:57:00,
2012-10-22 08:59:00,66.8,62.8,30.09,ESE,102,0.0,5.0,87,0.00,,---,0.00,95.00,VWS V14.01,2012-10-22 12:59:00,
2012-10-22 09:00:00,67.9,63.2,30.10,NE,39,0.0,1.0,85,0.00,,---,0.00,113.00,VWS V14.01,2012-10-22 13:00:00,
2012-10-22 09:01:00,67.9,63.2,30.10,East,89,2.0,2.0,85,0.00,,---,0.00,156.00,VWS V14.01,2012-10-22 13:01:00,
2012-10-22 09:02:00,68.0,63.0,30.10,NW,326,0.0,2.0,84,0.00,,---,0.00,83.00,VWS V14.01,2012-10-22 13:02:00,
2012-10-22 09:03:00,68.1,63.4,30.10,NE,52,1.0,2.0,85,0.00,,---,0.00,81.00,VWS V14.01,2012-10-22 13:03:00,
2012-10-22 09:04:00,67.3,63.0,30.09,ESE,110,1.0,5.0,86,0.00,,---,0.00,49.00,VWS V14.01,2012-10-22 13:04:00,
2012-10-22 09:05:00,68.2,63.2,30.10,NNE,26,1.0,6.0,84,0.00,,---,0.00,84.00,VWS V14.01,2012-10-22 13:05:00,
2012-10-22 09:06:00,68.3,62.9,30.10,NNW,341,1.0,7.0,83,0.00,,---,0.00,83.00,VWS V14.01,2012-10-22 13:06:00,
2012-10-22 09:07:00,68.4,63.0,30.10,NE,37,3.0,7.0,83,0.00,,---,0.00,83.00,VWS V14.01,2012-10-22 13:07:00,
2012-10-22 09:08:00,68.5,63.1,30.10,ENE,62,0.0,7.0,83,0.00,,---,0.00,111.00,VWS V14.01,2012-10-22 13:08:00,
2012-10-22 09:09:00,67.8,63.1,30.10,NE,39,0.0,0.0,85,0.00,,---,0.00,113.00,VWS V14.01,2012-10-22 13:09:00,
2012-10-22 09:11:00,68.8,64.1,30.10,ENE,61,0.0,7.0,85,0.00,,---,0.00,123.00,VWS V14.01,2012-10-22 13:11:00,
2012-10-22 09:13:00,69.0,64.0,30.10,NNW,346,2.0,7.0,84,0.00,,---,0.00,60.00,VWS V14.01,2012-10-22 13:13:00,
2012-10-22 09:14:00,68.2,63.5,30.10,ENE,72,3.0,6.0,85,0.00,,---,0.00,84.00,VWS V14.01,2012-10-22 13:14:00,
2012-10-22 09:16:00,69.3,64.3,30.10,NNE,27,2.0,7.0,84,0.00,,---,0.00,116.00,VWS V14.01,2012-10-22 13:16:00,
2012-10-22 09:17:00,69.3,63.9,30.10,ENE,61,2.0,7.0,83,0.00,,---,0.00,148.00,VWS V14.01,2012-10-22 13:17:00,
2012-10-22 09:18:00,69.3,63.6,30.10,NE,48,0.0,7.0,82,0.00,,---,0.00,206.00,VWS V14.01,2012-10-22 13:18:00,
2012-10-22 09:19:00,68.6,63.6,30.10,ENE,61,0.0,7.0,84,0.00,,---,0.00,105.00,VWS V14.01,2012-10-22 13:19:00,
2012-10-22 09:21:00,69.6,63.9,30.10,ENE,73,1.0,7.0,82,0.00,,---,0.00,88.00,VWS V14.01,2012-10-22 13:21:00,
2012-10-22 09:23:00,69.8,64.1,30.10,NE,37,0.0,7.0,82,0.00,,---,0.00,81.00,VWS V14.01,2012-10-22 13:23:00,
2012-10-22 09:24:00,69.1,64.1,30.10,NNE,14,1.0,7.0,84,0.00,,---,0.00,88.00,VWS V14.01,2012-10-22 13:24:00,
2012-10-22 09:25:00,70.0,64.3,30.10,ENE,75,0.0,7.0,82,0.00,,---,0.00,142.00,VWS V14.01,2012-10-22 13:25:00,
2012-10-22 09:26:00,70.1,64.0,30.10,East,91,3.0,7.0,81,0.00,,---,0.00,109.00,VWS V14.01,2012-10-22 13:26:00,
2012-10-22 09:27:00,70.1,64.0,30.10,NNE,27,1.0,7.0,81,0.00,,---,0.00,134.00,VWS V14.01,2012-10-22 13:27:00,
2012-10-22 09:28:00,70.2,64.1,30.10,ENE,61,0.0,7.0,81,0.00,,---,0.00,137.00,VWS V14.01,2012-10-22 13:28:00,
2012-10-22 09:29:00,69.5,64.5,30.10,East,92,1.0,7.0,84,0.00,,---,0.00,216.00,VWS V14.01,2012-10-22 13:29:00,
2012-10-22 09:30:00,70.4,64.7,30.10,North,10,1.0,7.0,82,0.00,,---,0.00,209.00,VWS V14.01,2012-10-22 13:30:00,
2012-10-22 09:31:00,70.5,64.4,30.10,North,10,1.0,7.0,81,0.00,,---,0.00,209.00,VWS V14.01,2012-10-22 13:31:00,
2012-10-22 09:32:00,70.6,64.5,30.10,NE,36,1.0,7.0,81,0.00,,---,0.00,209.00,VWS V14.01,2012-10-22 13:32:00,
2012-10-22 09:33:00,70.7,64.6,30.10,ENE,68,0.0,7.0,81,0.00,,---,0.00,149.00,VWS V14.01,2012-10-22 13:33:00,
2012-10-22 09:34:00,70.0,64.3,30.10,ENE,75,2.0,7.0,82,0.00,,---,0.00,163.00,VWS V14.01,2012-10-22 13:34:00,
2012-10-22 09:35:00,70.9,64.8,30.10,NNE,31,3.0,7.0,81,0.00,,---,0.00,90.00,VWS V14.01,2012-10-22 13:35:00,
2012-10-22 09:37:00,71.0,64.2,30.10,NE,52,4.0,7.0,79,0.00,,---,0.00,153.00,VWS V14.01,2012-10-22 13:37:00,
2012-10-22 09:39:00,70.4,64.7,30.10,ENE,76,2.0,7.0,82,0.00,,---,0.00,200.00,VWS V14.01,2012-10-22 13:39:00,
2012-10-22 09:40:00,71.2,64.4,30.10,North,6,0.0,7.0,79,0.00,,---,0.00,160.00,VWS V14.01,2012-10-22 13:40:00,
2012-10-22 09:41:00,71.3,64.5,30.10,NW,312,2.0,7.0,79,0.00,,---,0.00,160.00,VWS V14.01,2012-10-22 13:41:00,
2012-10-22 09:42:00,71.3,64.1,30.10,East,99,2.0,7.0,78,0.00,,---,0.00,216.00,VWS V14.01,2012-10-22 13:42:00,
2012-10-22 09:43:00,71.5,64.3,30.10,NE,50,1.0,7.0,78,0.00,,---,0.00,279.00,VWS V14.01,2012-10-22 13:43:00,
2012-10-22 09:44:00,70.9,64.8,30.10,East,93,3.0,7.0,81,0.00,,---,0.00,90.00,VWS V14.01,2012-10-22 13:44:00,
2012-10-22 09:45:00,71.7,64.8,30.10,ESE,104,2.0,7.0,79,0.00,,---,0.00,165.00,VWS V14.01,2012-10-22 13:45:00,
2012-10-22 09:46:00,71.7,64.8,30.10,NE,41,1.0,7.0,79,0.00,,---,0.00,207.00,VWS V14.01,2012-10-22 13:46:00,
2012-10-22 09:47:00,71.8,64.9,30.10,NE,56,1.0,7.0,79,0.00,,---,0.00,234.00,VWS V14.01,2012-10-22 13:47:00,
2012-10-22 09:49:00,71.2,64.7,30.10,North,3,2.0,7.0,80,0.00,,---,0.00,160.00,VWS V14.01,2012-10-22 13:49:00,
2012-10-22 09:50:00,72.0,65.1,30.10,ESE,104,4.0,7.0,79,0.00,,---,0.00,153.00,VWS V14.01,2012-10-22 13:50:00,
2012-10-22 09:51:00,72.1,64.9,30.10,NE,54,2.0,7.0,78,0.00,,---,0.00,243.00,VWS V14.01,2012-10-22 13:51:00,
2012-10-22 09:52:00,72.2,65.0,30.10,NE,35,0.0,7.0,78,0.00,,---,0.00,341.00,VWS V14.01,2012-10-22 13:52:00,
2012-10-22 09:53:00,72.3,65.4,30.10,NE,55,1.0,7.0,79,0.00,,---,0.00,371.00,VWS V14.01,2012-10-22 13:53:00,
2012-10-22 09:54:00,71.6,64.4,30.10,NE,41,0.0,7.0,78,0.00,,---,0.00,165.00,VWS V14.01,2012-10-22 13:54:00,
2012-10-22 09:55:00,72.5,65.3,30.10,NE,43,0.0,7.0,78,0.00,,---,0.00,466.00,VWS V14.01,2012-10-22 13:55:00,
2012-10-22 09:56:00,72.5,65.6,30.10,ENE,76,0.0,7.0,79,0.00,,---,0.00,469.00,VWS V14.01,2012-10-22 13:56:00,
2012-10-22 09:58:00,72.8,65.9,30.10,NNE,24,0.0,7.0,79,0.00,,---,0.00,473.00,VWS V14.01,2012-10-22 13:58:00,
2012-10-22 09:59:00,71.9,65.0,30.10,ENE,74,2.0,7.0,79,0.00,,---,0.00,153.00,VWS V14.01,2012-10-22 13:59:00,
2012-10-22 10:00:00,73.0,66.1,30.10,NE,50,0.0,3.0,79,0.00,,---,0.00,388.00,VWS V14.01,2012-10-22 14:00:00,
2012-10-22 10:02:00,73.1,65.8,30.10,East,93,0.0,3.0,78,0.00,,---,0.00,406.00,VWS V14.01,2012-10-22 14:02:00,
2012-10-22 10:03:00,73.2,65.9,30.10,East,93,0.0,3.0,78,0.00,,---,0.00,406.00,VWS V14.01,2012-10-22 14:03:00,
2012-10-22 10:04:00,72.5,65.3,30.10,NE,43,0.0,7.0,78,0.00,,---,0.00,466.00,VWS V14.01,2012-10-22 14:04:00,
2012-10-22 10:05:00,73.3,65.7,30.10,ESE,112,0.0,3.0,77,0.00,,---,0.00,403.00,VWS V14.01,2012-10-22 14:05:00,
2012-10-22 10:08:00,73.5,65.5,30.10,North,359,0.0,5.0,76,0.00,,---,0.00,499.00,VWS V14.01,2012-10-22 14:08:00,
2012-10-22 10:09:00,73.0,66.1,30.10,NE,50,0.0,3.0,79,0.00,,---,0.00,403.00,VWS V14.01,2012-10-22 14:09:00,
2012-10-22 10:10:00,73.8,66.2,30.10,SE,135,1.0,5.0,77,0.00,,---,0.00,517.00,VWS V14.01,2012-10-22 14:10:00,
2012-10-22 10:11:00,73.8,66.2,30.10,East,80,1.0,5.0,77,0.00,,---,0.00,519.00,VWS V14.01,2012-10-22 14:11:00,
2012-10-22 10:13:00,74.1,65.7,30.10,NE,39,0.0,5.0,75,0.00,,---,0.00,529.00,VWS V14.01,2012-10-22 14:13:00,
2012-10-22 10:14:00,73.2,66.3,30.10,ESE,112,0.0,3.0,79,0.00,,---,0.00,387.00,VWS V14.01,2012-10-22 14:14:00,
2012-10-22 10:16:00,74.4,66.7,30.10,NE,50,2.0,5.0,77,0.00,,---,0.00,538.00,VWS V14.01,2012-10-22 14:16:00,
2012-10-22 10:17:00,74.5,66.1,30.10,North,356,2.0,5.0,75,0.00,,---,0.00,543.00,VWS V14.01,2012-10-22 14:17:00,
2012-10-22 10:18:00,74.5,65.7,30.10,East,79,2.0,5.0,74,0.00,,---,0.00,548.00,VWS V14.01,2012-10-22 14:18:00,
2012-10-22 10:19:00,73.8,66.2,30.10,SE,135,0.0,5.0,77,0.00,,---,0.00,517.00,VWS V14.01,2012-10-22 14:19:00,
2012-10-22 10:20:00,74.7,65.5,30.10,NNE,31,5.0,5.0,73,0.00,,---,0.00,552.00,VWS V14.01,2012-10-22 14:20:00,
2012-10-22 10:21:00,74.8,65.6,30.10,East,91,0.0,5.0,73,0.00,,---,0.00,552.00,VWS V14.01,2012-10-22 14:21:00,
2012-10-22 10:22:00,74.9,66.4,30.10,ENE,77,4.0,5.0,75,0.00,,---,0.00,561.00,VWS V14.01,2012-10-22 14:22:00,
2012-10-22 10:23:00,75.0,65.8,30.10,NNE,12,1.0,5.0,73,0.00,,---,0.00,563.00,VWS V14.01,2012-10-22 14:23:00,
2012-10-22 10:24:00,74.3,66.6,30.10,North,360,1.0,5.0,77,0.00,,---,0.00,534.00,VWS V14.01,2012-10-22 14:24:00,
2012-10-22 10:26:00,75.5,65.8,30.09,East,82,6.0,6.0,72,0.00,,---,0.00,492.00,VWS V14.01,2012-10-22 14:26:00,
2012-10-22 10:27:00,75.6,65.1,30.09,ESE,102,4.0,6.0,70,0.00,,---,0.00,406.00,VWS V14.01,2012-10-22 14:27:00,
2012-10-22 10:28:00,75.7,66.0,30.09,East,84,2.0,6.0,72,0.00,,---,0.00,332.00,VWS V14.01,2012-10-22 14:28:00,
2012-10-22 10:29:00,74.7,65.5,30.10,NW,308,2.0,5.0,73,0.00,,---,0.00,552.00,VWS V14.01,2012-10-22 14:29:00,
2012-10-22 10:30:00,75.9,65.8,30.09,NE,55,1.0,6.0,71,0.00,,---,0.00,415.00,VWS V14.01,2012-10-22 14:30:00,
2012-10-22 10:33:00,76.1,66.8,30.09,WNW,289,0.0,6.0,73,0.00,,---,0.00,438.00,VWS V14.01,2012-10-22 14:33:00,
2012-10-22 10:34:00,75.4,66.5,30.09,ESE,102,1.0,5.0,74,0.00,,---,0.00,563.00,VWS V14.01,2012-10-22 14:34:00,
2012-10-22 10:35:00,76.2,65.7,30.09,East,81,0.0,6.0,70,0.00,,---,0.00,438.00,VWS V14.01,2012-10-22 14:35:00,
2012-10-22 10:36:00,76.3,67.0,30.09,East,81,0.0,6.0,73,0.00,,---,0.00,603.00,VWS V14.01,2012-10-22 14:36:00,
2012-10-22 10:37:00,76.5,67.2,30.09,NE,55,5.0,6.0,73,0.00,,---,0.00,606.00,VWS V14.01,2012-10-22 14:37:00,
2012-10-22 10:38:00,76.6,65.7,30.09,ENE,58,1.0,6.0,69,0.00,,---,0.00,608.00,VWS V14.01,2012-10-22 14:38:00,
2012-10-22 10:39:00,75.8,65.7,30.09,NE,55,1.0,6.0,71,0.00,,---,0.00,415.00,VWS V14.01,2012-10-22 14:39:00,
2012-10-22 10:40:00,76.8,66.3,30.09,East,84,2.0,6.0,70,0.00,,---,0.00,612.00,VWS V14.01,2012-10-22 14:40:00,
2012-10-22 10:41:00,76.9,66.4,30.09,East,84,0.0,6.0,70,0.00,,---,0.00,619.00,VWS V14.01,2012-10-22 14:41:00,
2012-10-22 10:42:00,77.1,66.6,30.09,NNE,19,2.0,6.0,70,0.00,,---,0.00,622.00,VWS V14.01,2012-10-22 14:42:00,
2012-10-22 10:44:00,76.2,65.7,30.09,East,81,0.0,6.0,70,0.00,,---,0.00,438.00,VWS V14.01,2012-10-22 14:44:00,
2012-10-22 10:45:00,77.4,66.0,30.09,NNE,31,6.0,8.0,68,0.00,,---,0.00,624.00,VWS V14.01,2012-10-22 14:45:00,
2012-10-22 10:46:00,77.4,65.2,30.09,ESE,104,8.0,13.0,66,0.00,,---,0.00,629.00,VWS V14.01,2012-10-22 14:46:00,
2012-10-22 10:47:00,77.3,65.1,30.09,NNE,33,4.0,13.0,66,0.00,,---,0.00,635.00,VWS V14.01,2012-10-22 14:47:00,
2012-10-22 10:48:00,77.3,65.5,30.09,ENE,75,4.0,13.0,67,0.00,,---,0.00,636.00,VWS V14.01,2012-10-22 14:48:00,
2012-10-22 10:49:00,76.8,66.3,30.09,East,84,2.0,6.0,70,0.00,,---,0.00,612.00,VWS V14.01,2012-10-22 14:49:00,
2012-10-22 10:50:00,77.3,66.3,30.09,North,3,1.0,13.0,69,0.00,,---,0.00,638.00,VWS V14.01,2012-10-22 14:50:00,
2012-10-22 10:51:00,77.4,65.6,30.09,NE,51,3.0,13.0,67,0.00,,---,0.00,642.00,VWS V14.01,2012-10-22 14:51:00,
2012-10-22 10:52:00,77.5,65.7,30.09,NNW,344,3.0,13.0,67,0.00,,---,0.00,647.00,VWS V14.01,2012-10-22 14:52:00,
2012-10-22 10:53:00,77.5,66.1,30.09,ENE,72,14.0,14.0,68,0.00,,---,0.00,647.00,VWS V14.01,2012-10-22 14:53:00,
2012-10-22 10:54:00,77.4,66.0,30.09,East,101,5.0,8.0,68,0.00,,---,0.00,624.00,VWS V14.01,2012-10-22 14:54:00,
2012-10-22 10:56:00,77.6,66.2,30.09,East,95,1.0,14.0,68,0.00,,---,0.00,652.00,VWS V14.01,2012-10-22 14:56:00,
2012-10-22 10:59:00,77.3,66.3,30.09,North,3,1.0,13.0,69,0.00,,---,0.00,638.00,VWS V14.01,2012-10-22 14:59:00,
2012-10-22 11:00:00,77.9,66.5,30.09,East,93,4.0,5.0,68,0.00,,---,0.00,663.00,VWS V14.01,2012-10-22 15:00:00,
2012-10-22 11:01:00,78.0,66.2,30.09,West,280,0.0,5.0,67,0.00,,---,0.00,663.00,VWS V14.01,2012-10-22 15:01:00,
2012-10-22 11:02:00,78.0,66.2,30.09,East,96,0.0,5.0,67,0.00,,---,0.00,664.00,VWS V14.01,2012-10-22 15:02:00,
2012-10-22 11:04:00,77.5,65.7,30.09,WNW,289,2.0,14.0,67,0.00,,---,0.00,650.00,VWS V14.01,2012-10-22 15:04:00,
2012-10-22 11:05:00,78.5,66.6,30.09,East,87,4.0,5.0,67,0.00,,---,0.00,673.00,VWS V14.01,2012-10-22 15:05:00,
2012-10-22 11:06:00,78.5,65.8,30.09,ESE,105,2.0,5.0,65,0.00,,---,0.00,675.00,VWS V14.01,2012-10-22 15:06:00,
2012-10-22 11:09:00,78.7,65.5,30.09,North,358,1.0,5.0,64,0.00,,---,0.00,677.00,VWS V14.01,2012-10-22 15:09:00,
2012-10-22 11:10:00,77.9,66.5,30.09,NE,39,2.0,5.0,68,0.00,,---,0.00,663.00,VWS V14.01,2012-10-22 15:10:00,
2012-10-22 11:13:00,79.2,66.0,30.08,ENE,75,3.0,6.0,64,0.00,,---,0.00,687.00,VWS V14.01,2012-10-22 15:13:00,
2012-10-22 11:14:00,79.2,66.0,30.09,East,101,1.0,6.0,64,0.00,,---,0.00,689.00,VWS V14.01,2012-10-22 15:14:00,
2012-10-22 11:15:00,78.5,66.6,30.09,East,98,4.0,5.0,67,0.00,,---,0.00,673.00,VWS V14.01,2012-10-22 15:15:00,
2012-10-22 11:16:00,79.5,67.6,30.08,ENE,70,2.0,6.0,67,0.00,,---,0.00,693.00,VWS V14.01,2012-10-22 15:16:00,
2012-10-22 11:17:00,79.6,66.8,30.09,ENE,72,4.0,6.0,65,0.00,,---,0.00,693.00,VWS V14.01,2012-10-22 15:17:00,
2012-10-22 11:18:00,79.6,65.9,30.09,SE,129,1.0,7.0,63,0.00,,---,0.00,698.00,VWS V14.01,2012-10-22 15:18:00,
2012-10-22 11:19:00,79.7,66.5,30.08,ENE,72,3.0,7.0,64,0.00,,---,0.00,698.00,VWS V14.01,2012-10-22 15:19:00,
2012-10-22 11:20:00,78.8,66.9,30.09,NE,39,3.0,5.0,67,0.00,,---,0.00,682.00,VWS V14.01,2012-10-22 15:20:00,
2012-10-22 11:21:00,79.7,66.0,30.09,ENE,69,1.0,9.0,63,0.00,,---,0.00,701.00,VWS V14.01,2012-10-22 15:21:00,
2012-10-22 11:22:00,79.7,66.9,30.09,NE,50,6.0,9.0,65,0.00,,---,0.00,705.00,VWS V14.01,2012-10-22 15:22:00,
2012-10-22 11:23:00,79.7,65.1,30.09,NE,42,7.0,11.0,61,0.00,,---,0.00,705.00,VWS V14.01,2012-10-22 15:23:00,
2012-10-22 11:24:00,79.7,65.1,30.08,NNE,23,5.0,11.0,61,0.00,,---,0.00,707.00,VWS V14.01,2012-10-22 15:24:00,
2012-10-22 11:25:00,79.3,67.0,30.08,East,87,1.0,6.0,66,0.00,,---,0.00,693.00,VWS V14.01,2012-10-22 15:25:00,
2012-10-22 11:26:00,79.7,66.0,30.09,ENE,64,10.0,11.0,63,0.00,,---,0.00,710.00,VWS V14.01,2012-10-22 15:26:00,
2012-10-22 11:27:00,79.6,64.5,30.09,NNE,23,5.0,11.0,60,0.00,,---,0.00,710.00,VWS V14.01,2012-10-22 15:27:00,
2012-10-22 11:28:00,79.6,65.0,30.09,ENE,75,3.0,11.0,61,0.00,,---,0.00,714.00,VWS V14.01,2012-10-22 15:28:00,
2012-10-22 11:29:00,79.6,65.4,30.09,ENE,69,7.0,11.0,62,0.00,,---,0.00,715.00,VWS V14.01,2012-10-22 15:29:00,
2012-10-22 11:30:00,79.7,65.1,30.09,ENE,69,2.0,9.0,61,0.00,,---,0.00,701.00,VWS V14.01,2012-10-22 15:30:00,
2012-10-22 11:31:00,79.5,65.3,30.08,SE,126,3.0,11.0,62,0.00,,---,0.00,717.00,VWS V14.01,2012-10-22 15:31:00,
2012-10-22 11:32:00,79.5,64.9,30.08,East,83,2.0,11.0,61,0.00,,---,0.00,715.00,VWS V14.01,2012-10-22 15:32:00,
2012-10-22 11:33:00,79.5,65.3,30.09,ENE,73,10.0,11.0,62,0.00,,---,0.00,717.00,VWS V14.01,2012-10-22 15:33:00,
2012-10-22 11:34:00,79.6,64.5,30.09,East,79,5.0,11.0,60,0.00,,---,0.00,724.00,VWS V14.01,2012-10-22 15:34:00,
2012-10-22 11:35:00,79.7,65.1,30.09,NE,49,2.0,11.0,61,0.00,,---,0.00,710.00,VWS V14.01,2012-10-22 15:35:00,
2012-10-22 11:37:00,79.8,65.6,30.09,East,82,1.0,11.0,62,0.00,,---,0.00,722.00,VWS V14.01,2012-10-22 15:37:00,
2012-10-22 11:38:00,79.9,65.7,30.08,NE,53,1.0,11.0,62,0.00,,---,0.00,731.00,VWS V14.01,2012-10-22 15:38:00,
2012-10-22 11:39:00,80.2,66.0,30.08,ENE,73,2.0,11.0,62,0.00,,---,0.00,729.00,VWS V14.01,2012-10-22 15:39:00,
2012-10-22 11:40:00,79.5,65.3,30.08,SE,126,3.0,11.0,62,0.00,,---,0.00,717.00,VWS V14.01,2012-10-22 15:40:00,
2012-10-22 11:42:00,80.4,65.7,30.08,East,88,5.0,11.0,61,0.00,,---,0.00,735.00,VWS V14.01,2012-10-22 15:42:00,
2012-10-22 11:43:00,80.3,65.6,30.08,NE,49,3.0,11.0,61,0.00,,---,0.00,735.00,VWS V14.01,2012-10-22 15:43:00,
2012-10-22 11:45:00,79.6,65.0,30.08,ENE,77,7.0,11.0,61,0.00,,---,0.00,722.00,VWS V14.01,2012-10-22 15:45:00,
2012-10-22 11:46:00,80.5,65.3,30.08,East,97,11.0,11.0,60,0.00,,---,0.00,744.00,VWS V14.01,2012-10-22 15:46:00,
2012-10-22 11:47:00,80.4,64.8,30.08,NNE,22,3.0,11.0,59,0.00,,---,0.00,747.00,VWS V14.01,2012-10-22 15:47:00,
2012-10-22 11:48:00,80.4,65.3,30.08,NW,308,1.0,11.0,60,0.00,,---,0.00,745.00,VWS V14.01,2012-10-22 15:48:00,
2012-10-22 11:49:00,80.3,65.6,30.08,ENE,78,3.0,11.0,61,0.00,,---,0.00,745.00,VWS V14.01,2012-10-22 15:49:00,
2012-10-22 11:50:00,80.3,66.1,30.08,ENE,69,5.0,11.0,62,0.00,,---,0.00,745.00,VWS V14.01,2012-10-22 15:50:00,
2012-10-22 11:51:00,80.3,65.6,30.08,ESE,122,1.0,11.0,61,0.00,,---,0.00,737.00,VWS V14.01,2012-10-22 15:51:00,
2012-10-22 11:52:00,80.4,65.3,30.08,East,95,4.0,11.0,60,0.00,,---,0.00,747.00,VWS V14.01,2012-10-22 15:52:00,
2012-10-22 11:53:00,80.6,65.4,30.08,ENE,64,3.0,11.0,60,0.00,,---,0.00,759.00,VWS V14.01,2012-10-22 15:53:00,
2012-10-22 11:54:00,80.6,65.0,30.08,ENE,66,3.0,11.0,59,0.00,,---,0.00,756.00,VWS V14.01,2012-10-22 15:54:00,
2012-10-22 11:55:00,80.5,65.3,30.08,ENE,58,5.0,11.0,60,0.00,,---,0.00,744.00,VWS V14.01,2012-10-22 15:55:00,
2012-10-22 11:56:00,80.5,65.3,30.08,North,1,1.0,11.0,60,0.00,,---,0.00,752.00,VWS V14.01,2012-10-22 15:56:00,
2012-10-22 11:57:00,80.6,65.9,30.08,NE,38,4.0,11.0,61,0.00,,---,0.00,756.00,VWS V14.01,2012-10-22 15:57:00,
2012-10-22 11:58:00,80.6,65.9,30.08,ENE,67,3.0,11.0,61,0.00,,---,0.00,759.00,VWS V14.01,2012-10-22 15:58:00,
2012-10-22 11:59:00,80.6,65.4,30.07,ESE,109,3.0,11.0,60,0.00,,---,0.00,761.00,VWS V14.01,2012-10-22 15:59:00,
2012-10-22 12:00:00,80.3,65.6,30.08,SSW,193,3.0,11.0,61,0.00,,---,0.00,735.00,VWS V14.01,2012-10-22 16:00:00,
2012-10-22 12:01:00,80.7,65.5,30.07,NNE,33,2.0,5.0,60,0.00,,---,0.00,763.00,VWS V14.01,2012-10-22 16:01:00,
2012-10-22 12:03:00,80.9,67.1,30.07,North,357,2.0,5.0,63,0.00,,---,0.00,803.00,VWS V14.01,2012-10-22 16:03:00,
2012-10-22 12:04:00,80.9,66.2,30.07,NE,47,3.0,9.0,61,0.00,,---,0.00,803.00,VWS V14.01,2012-10-22 16:04:00,
2012-10-22 12:06:00,80.5,65.3,30.08,North,2,0.0,11.0,60,0.00,,---,0.00,756.00,VWS V14.01,2012-10-22 16:06:00,
2012-10-22 12:07:00,81.2,66.5,30.07,ENE,69,12.0,13.0,61,0.00,,---,0.00,853.00,VWS V14.01,2012-10-22 16:07:00,
2012-10-22 12:08:00,81.4,65.2,30.07,SSE,164,4.0,13.0,58,0.00,,---,0.00,863.00,VWS V14.01,2012-10-22 16:08:00,
2012-10-22 12:09:00,81.7,66.0,30.07,ESE,103,6.0,13.0,59,0.00,,---,0.00,835.00,VWS V14.01,2012-10-22 16:09:00,
2012-10-22 12:10:00,81.9,65.7,30.07,ENE,67,2.0,13.0,58,0.00,,---,0.00,835.00,VWS V14.01,2012-10-22 16:10:00,
2012-10-22 12:11:00,80.7,65.5,30.07,NE,52,2.0,5.0,60,0.00,,---,0.00,763.00,VWS V14.01,2012-10-22 16:11:00,
2012-10-22 12:12:00,82.1,64.9,30.07,NE,50,9.0,13.0,56,0.00,,---,0.00,863.00,VWS V14.01,2012-10-22 16:12:00,
2012-10-22 12:14:00,82.0,65.3,30.07,SSW,208,4.0,13.0,57,0.00,,---,0.00,833.00,VWS V14.01,2012-10-22 16:14:00,
2012-10-22 12:15:00,81.9,65.2,30.07,ENE,77,10.0,13.0,57,0.00,,---,0.00,833.00,VWS V14.01,2012-10-22 16:15:00,
2012-10-22 12:16:00,80.9,66.2,30.07,ENE,68,2.0,9.0,61,0.00,,---,0.00,853.00,VWS V14.01,2012-10-22 16:16:00,
2012-10-22 12:17:00,81.7,65.0,30.07,ESE,106,6.0,13.0,57,0.00,,---,0.00,833.00,VWS V14.01,2012-10-22 16:17:00,
2012-10-22 12:18:00,81.6,64.9,30.07,SSW,198,3.0,13.0,57,0.00,,---,0.00,833.00,VWS V14.01,2012-10-22 16:18:00,
2012-10-22 12:20:00,81.2,64.0,30.07,NNW,348,4.0,13.0,56,0.00,,---,0.00,158.00,VWS V14.01,2012-10-22 16:20:00,
2012-10-22 12:21:00,82.1,64.9,30.07,ENE,68,5.0,13.0,56,0.00,,---,0.00,826.00,VWS V14.01,2012-10-22 16:21:00,
2012-10-22 12:22:00,80.8,64.2,30.07,SE,133,3.0,13.0,57,0.00,,---,0.00,163.00,VWS V14.01,2012-10-22 16:22:00,
2012-10-22 12:23:00,80.5,64.9,30.07,NNW,344,1.0,13.0,59,0.00,,---,0.00,163.00,VWS V14.01,2012-10-22 16:23:00,
2012-10-22 12:24:00,80.6,65.0,30.07,WNW,294,2.0,13.0,59,0.00,,---,0.00,163.00,VWS V14.01,2012-10-22 16:24:00,
2012-10-22 12:25:00,80.8,64.7,30.07,SSE,161,1.0,13.0,58,0.00,,---,0.00,858.00,VWS V14.01,2012-10-22 16:25:00,
2012-10-22 12:26:00,81.8,65.1,30.07,NE,47,4.0,13.0,57,0.00,,---,0.00,833.00,VWS V14.01,2012-10-22 16:26:00,
2012-10-22 12:27:00,81.4,65.2,30.07,ENE,69,4.0,13.0,58,0.00,,---,0.00,826.00,VWS V14.01,2012-10-22 16:27:00,
2012-10-22 12:28:00,81.8,65.1,30.07,ENE,58,4.0,13.0,57,0.00,,---,0.00,916.00,VWS V14.01,2012-10-22 16:28:00,
2012-10-22 12:29:00,82.0,65.3,30.07,East,81,3.0,13.0,57,0.00,,---,0.00,954.00,VWS V14.01,2012-10-22 16:29:00,
2012-10-22 12:30:00,82.1,65.4,30.07,NE,52,8.0,13.0,57,0.00,,---,0.00,991.00,VWS V14.01,2012-10-22 16:30:00,
2012-10-22 12:31:00,81.0,63.8,30.07,SSE,156,2.0,13.0,56,0.00,,---,0.00,163.00,VWS V14.01,2012-10-22 16:31:00,
2012-10-22 12:32:00,82.0,65.3,30.07,ENE,65,2.0,13.0,57,0.00,,---,0.00,947.00,VWS V14.01,2012-10-22 16:32:00,
2012-10-22 12:33:00,82.1,65.4,30.06,East,90,5.0,13.0,57,0.00,,---,0.00,947.00,VWS V14.01,2012-10-22 16:33:00,
2012-10-22 12:34:00,82.1,65.4,30.07,NE,36,5.0,13.0,57,0.00,,---,0.00,947.00,VWS V14.01,2012-10-22 16:34:00,
2012-10-22 12:35:00,82.1,65.4,30.06,NE,46,4.0,13.0,57,0.00,,---,0.00,947.00,VWS V14.01,2012-10-22 16:35:00,
2012-10-22 12:36:00,81.1,64.9,30.07,SE,136,3.0,13.0,58,0.00,,---,0.00,865.00,VWS V14.01,2012-10-22 16:36:00,
2012-10-22 12:37:00,82.1,65.4,30.07,NE,50,6.0,13.0,57,0.00,,---,0.00,963.00,VWS V14.01,2012-10-22 16:37:00,
2012-10-22 12:38:00,82.1,65.4,30.06,ENE,72,7.0,13.0,57,0.00,,---,0.00,990.00,VWS V14.01,2012-10-22 16:38:00,
2012-10-22 12:39:00,82.2,66.0,30.06,ESE,123,4.0,13.0,58,0.00,,---,0.00,972.00,VWS V14.01,2012-10-22 16:39:00,
2012-10-22 12:41:00,82.1,64.9,30.06,ESE,107,5.0,13.0,56,0.00,,---,0.00,991.00,VWS V14.01,2012-10-22 16:41:00,
2012-10-22 12:42:00,82.3,66.6,30.06,SE,140,1.0,13.0,59,0.00,,---,0.00,954.00,VWS V14.01,2012-10-22 16:42:00,
2012-10-22 12:43:00,82.4,67.1,30.06,ENE,68,4.0,13.0,60,0.00,,---,0.00,954.00,VWS V14.01,2012-10-22 16:43:00,
2012-10-22 12:44:00,82.3,65.6,30.06,ENE,73,9.0,13.0,57,0.00,,---,0.00,954.00,VWS V14.01,2012-10-22 16:44:00,
2012-10-22 12:45:00,82.2,65.0,30.06,ENE,59,5.0,13.0,56,0.00,,---,0.00,954.00,VWS V14.01,2012-10-22 16:45:00,
2012-10-22 12:46:00,82.0,64.8,30.07,NE,41,4.0,13.0,56,0.00,,---,0.00,963.00,VWS V14.01,2012-10-22 16:46:00,
2012-10-22 12:47:00,81.7,65.0,30.06,NE,47,3.0,13.0,57,0.00,,---,0.00,954.00,VWS V14.01,2012-10-22 16:47:00,
2012-10-22 12:48:00,81.4,64.2,30.06,East,85,5.0,13.0,56,0.00,,---,0.00,954.00,VWS V14.01,2012-10-22 16:48:00,
2012-10-22 12:49:00,81.2,65.5,30.06,NE,47,0.0,13.0,59,0.00,,---,0.00,954.00,VWS V14.01,2012-10-22 16:49:00,
2012-10-22 12:50:00,81.1,64.9,30.06,SE,139,6.0,13.0,58,0.00,,---,0.00,178.00,VWS V14.01,2012-10-22 16:50:00,
2012-10-22 12:51:00,82.3,66.1,30.06,SSE,152,2.0,13.0,58,0.00,,---,0.00,954.00,VWS V14.01,2012-10-22 16:51:00,
2012-10-22 12:52:00,80.7,64.1,30.06,SE,129,4.0,13.0,57,0.00,,---,0.00,155.00,VWS V14.01,2012-10-22 16:52:00,
2012-10-22 12:53:00,80.6,64.0,30.06,ESE,104,8.0,13.0,57,0.00,,---,0.00,155.00,VWS V14.01,2012-10-22 16:53:00,
2012-10-22 12:54:00,80.8,64.7,30.06,East,79,5.0,13.0,58,0.00,,---,0.00,882.00,VWS V14.01,2012-10-22 16:54:00,
2012-10-22 12:55:00,81.1,65.4,30.06,SE,139,0.0,13.0,59,0.00,,---,0.00,889.00,VWS V14.01,2012-10-22 16:55:00,
2012-10-22 12:56:00,81.8,64.6,30.06,ENE,76,1.0,13.0,56,0.00,,---,0.00,954.00,VWS V14.01,2012-10-22 16:56:00,
2012-10-22 12:57:00,82.1,65.4,30.06,South,176,4.0,13.0,57,0.00,,---,0.00,911.00,VWS V14.01,2012-10-22 16:57:00,
2012-10-22 12:58:00,82.4,65.1,30.05,SE,144,3.0,13.0,56,0.00,,---,0.00,932.00,VWS V14.01,2012-10-22 16:58:00,
2012-10-22 12:59:00,82.7,65.4,30.05,ENE,73,4.0,13.0,56,0.00,,---,0.00,946.00,VWS V14.01,2012-10-22 16:59:00,
2012-10-22 13:00:00,82.9,65.6,30.05,East,87,4.0,6.0,56,0.00,,---,0.00,946.00,VWS V14.01,2012-10-22 17:00:00,
2012-10-22 13:01:00,80.8,64.2,30.06,ESE,112,2.0,13.0,57,0.00,,---,0.00,155.00,VWS V14.01,2012-10-22 17:01:00,
2012-10-22 13:02:00,83.3,66.0,30.05,ESE,104,8.0,10.0,56,0.00,,---,0.00,904.00,VWS V14.01,2012-10-22 17:02:00,
2012-10-22 13:03:00,83.4,65.0,30.05,South,176,6.0,10.0,54,0.00,,---,0.00,947.00,VWS V14.01,2012-10-22 17:03:00,
2012-10-22 13:04:00,83.4,65.6,30.05,ENE,75,5.0,10.0,55,0.00,,---,0.00,930.00,VWS V14.01,2012-10-22 17:04:00,
2012-10-22 13:05:00,83.5,65.7,30.05,NE,35,6.0,10.0,55,0.00,,---,0.00,930.00,VWS V14.01,2012-10-22 17:05:00,
2012-10-22 13:06:00,81.7,65.0,30.06,ESE,107,4.0,13.0,57,0.00,,---,0.00,911.00,VWS V14.01,2012-10-22 17:06:00,
2012-10-22 13:07:00,83.2,64.8,30.05,NE,52,5.0,14.0,54,0.00,,---,0.00,107.00,VWS V14.01,2012-10-22 17:07:00,
2012-10-22 13:08:00,83.0,64.7,30.05,East,96,5.0,14.0,54,0.00,,---,0.00,113.00,VWS V14.01,2012-10-22 17:08:00,
2012-10-22 13:10:00,82.2,63.9,30.05,NE,53,3.0,14.0,54,0.00,,---,0.00,826.00,VWS V14.01,2012-10-22 17:10:00,
2012-10-22 13:11:00,83.2,65.9,30.05,East,97,9.0,9.0,56,0.00,,---,0.00,972.00,VWS V14.01,2012-10-22 17:11:00,
2012-10-22 13:12:00,82.0,64.8,30.05,ENE,60,6.0,14.0,56,0.00,,---,0.00,860.00,VWS V14.01,2012-10-22 17:12:00,
2012-10-22 13:13:00,82.1,64.9,30.05,ENE,72,7.0,14.0,56,0.00,,---,0.00,860.00,VWS V14.01,2012-10-22 17:13:00,
2012-10-22 13:14:00,82.2,65.0,30.05,East,93,3.0,14.0,56,0.00,,---,0.00,860.00,VWS V14.01,2012-10-22 17:14:00,
2012-10-22 13:16:00,83.3,65.5,30.05,ESE,111,10.0,14.0,55,0.00,,---,0.00,123.00,VWS V14.01,2012-10-22 17:16:00,
2012-10-22 13:17:00,82.7,65.9,30.05,ENE,75,2.0,14.0,57,0.00,,---,0.00,854.00,VWS V14.01,2012-10-22 17:17:00,
2012-10-22 13:18:00,82.9,65.6,30.05,East,79,7.0,14.0,56,0.00,,---,0.00,860.00,VWS V14.01,2012-10-22 17:18:00,
2012-10-22 13:21:00,82.0,64.8,30.05,East,87,4.0,14.0,56,0.00,,---,0.00,860.00,VWS V14.01,2012-10-22 17:21:00,
2012-10-22 13:22:00,83.6,65.7,30.04,SE,144,1.0,14.0,55,0.00,,---,0.00,951.00,VWS V14.01,2012-10-22 17:22:00,
2012-10-22 13:23:00,83.7,65.8,30.04,NE,54,3.0,14.0,55,0.00,,---,0.00,990.00,VWS V14.01,2012-10-22 17:23:00,
2012-10-22 13:24:00,84.1,65.1,30.04,SSE,156,7.0,14.0,53,0.00,,---,0.00,990.00,VWS V14.01,2012-10-22 17:24:00,
2012-10-22 13:25:00,84.1,65.1,30.04,SE,139,4.0,14.0,53,0.00,,---,0.00,986.00,VWS V14.01,2012-10-22 17:25:00,
2012-10-22 13:26:00,82.5,65.2,30.05,NNE,14,1.0,14.0,56,0.00,,---,0.00,854.00,VWS V14.01,2012-10-22 17:26:00,
2012-10-22 13:27:00,84.1,65.1,30.04,NE,47,2.0,14.0,53,0.00,,---,0.00,986.00,VWS V14.01,2012-10-22 17:27:00,
2012-10-22 13:28:00,84.1,65.1,30.04,SE,129,1.0,14.0,53,0.00,,---,0.00,986.00,VWS V14.01,2012-10-22 17:28:00,
2012-10-22 13:29:00,83.9,64.4,30.04,East,82,5.0,14.0,52,0.00,,---,0.00,986.00,VWS V14.01,2012-10-22 17:29:00,
2012-10-22 13:30:00,83.7,64.8,30.04,East,95,8.0,14.0,53,0.00,,---,0.00,239.00,VWS V14.01,2012-10-22 17:30:00,
2012-10-22 13:31:00,83.3,66.0,30.04,SSE,154,4.0,14.0,56,0.00,,---,0.00,914.00,VWS V14.01,2012-10-22 17:31:00,
2012-10-22 13:32:00,83.1,65.3,30.04,ENE,66,1.0,14.0,55,0.00,,---,0.00,176.00,VWS V14.01,2012-10-22 17:32:00,
2012-10-22 13:34:00,82.5,65.2,30.04,NE,41,1.0,14.0,56,0.00,,---,0.00,171.00,VWS V14.01,2012-10-22 17:34:00,
2012-10-22 13:35:00,82.0,65.8,30.03,ESE,103,4.0,14.0,58,0.00,,---,0.00,169.00,VWS V14.01,2012-10-22 17:35:00,
2012-10-22 13:36:00,84.1,65.1,30.04,North,8,1.0,14.0,53,0.00,,---,0.00,986.00,VWS V14.01,2012-10-22 17:36:00,
2012-10-22 13:37:00,81.3,65.1,30.03,North,351,1.0,14.0,58,0.00,,---,0.00,195.00,VWS V14.01,2012-10-22 17:37:00,
2012-10-22 13:38:00,81.1,65.4,30.03,NW,314,3.0,14.0,59,0.00,,---,0.00,214.00,VWS V14.01,2012-10-22 17:38:00,
2012-10-22 13:39:00,80.9,65.7,30.03,NE,51,2.0,14.0,60,0.00,,---,0.00,156.00,VWS V14.01,2012-10-22 17:39:00,
2012-10-22 13:40:00,80.7,65.1,30.03,East,89,8.0,14.0,59,0.00,,---,0.00,142.00,VWS V14.01,2012-10-22 17:40:00,
2012-10-22 13:41:00,83.2,65.4,30.04,ENE,78,7.0,14.0,55,0.00,,---,0.00,188.00,VWS V14.01,2012-10-22 17:41:00,
2012-10-22 13:42:00,80.6,65.0,30.03,ENE,64,4.0,14.0,59,0.00,,---,0.00,142.00,VWS V14.01,2012-10-22 17:42:00,
2012-10-22 13:43:00,80.6,64.5,30.03,ENE,66,1.0,14.0,58,0.00,,---,0.00,223.00,VWS V14.01,2012-10-22 17:43:00,
2012-10-22 13:45:00,80.8,65.2,30.03,East,98,7.0,14.0,59,0.00,,---,0.00,223.00,VWS V14.01,2012-10-22 17:45:00,
2012-10-22 13:46:00,81.5,65.3,30.03,NNE,22,1.0,14.0,58,0.00,,---,0.00,172.00,VWS V14.01,2012-10-22 17:46:00,
2012-10-22 13:47:00,81.3,65.1,30.02,ENE,70,6.0,14.0,58,0.00,,---,0.00,826.00,VWS V14.01,2012-10-22 17:47:00,
2012-10-22 13:48:00,81.6,65.9,30.02,SE,141,4.0,14.0,59,0.00,,---,0.00,826.00,VWS V14.01,2012-10-22 17:48:00,
2012-10-22 13:49:00,82.2,66.0,30.02,ENE,73,4.0,14.0,58,0.00,,---,0.00,823.00,VWS V14.01,2012-10-22 17:49:00,
2012-10-22 13:50:00,82.5,65.2,30.02,NE,37,5.0,14.0,56,0.00,,---,0.00,823.00,VWS V14.01,2012-10-22 17:50:00,
2012-10-22 13:51:00,80.6,65.0,30.03,ESE,102,3.0,14.0,59,0.00,,---,0.00,142.00,VWS V14.01,2012-10-22 17:51:00,
2012-10-22 13:52:00,83.1,65.8,30.02,SSW,198,2.0,14.0,56,0.00,,---,0.00,826.00,VWS V14.01,2012-10-22 17:52:00,
2012-10-22 13:53:00,83.2,65.4,30.02,SSE,167,3.0,14.0,55,0.00,,---,0.00,824.00,VWS V14.01,2012-10-22 17:53:00,
2012-10-22 13:54:00,83.4,65.6,30.02,NE,50,4.0,14.0,55,0.00,,---,0.00,824.00,VWS V14.01,2012-10-22 17:54:00,
2012-10-22 13:55:00,83.5,65.1,30.02,NNE,24,2.0,14.0,54,0.00,,---,0.00,824.00,VWS V14.01,2012-10-22 17:55:00,
2012-10-22 13:56:00,81.2,64.5,30.02,ENE,64,5.0,14.0,57,0.00,,---,0.00,826.00,VWS V14.01,2012-10-22 17:56:00,
2012-10-22 13:57:00,83.8,65.9,30.02,SSE,151,4.0,14.0,55,0.00,,---,0.00,830.00,VWS V14.01,2012-10-22 17:57:00,
2012-10-22 13:58:00,84.1,65.1,30.02,East,100,2.0,14.0,53,0.00,,---,0.00,849.00,VWS V14.01,2012-10-22 17:58:00,
2012-10-22 14:00:00,84.3,65.3,30.01,SE,145,4.0,7.0,53,0.00,,---,0.00,849.00,VWS V14.01,2012-10-22 18:00:00,
2012-10-22 14:01:00,82.9,65.1,30.02,ENE,58,2.0,14.0,55,0.00,,---,0.00,826.00,VWS V14.01,2012-10-22 18:01:00,
2012-10-22 14:03:00,84.7,66.2,30.01,East,94,2.0,7.0,54,0.00,,---,0.00,935.00,VWS V14.01,2012-10-22 18:03:00,
2012-10-22 14:04:00,84.9,65.3,30.01,SE,124,6.0,7.0,52,0.00,,---,0.00,935.00,VWS V14.01,2012-10-22 18:04:00,
2012-10-22 14:05:00,84.9,65.3,30.01,SSE,149,2.0,7.0,52,0.00,,---,0.00,935.00,VWS V14.01,2012-10-22 18:05:00,
2012-10-22 14:06:00,83.8,65.9,30.02,ESE,118,5.0,14.0,55,0.00,,---,0.00,830.00,VWS V14.01,2012-10-22 18:06:00,
2012-10-22 14:07:00,84.7,64.6,30.01,East,79,7.0,15.0,51,0.00,,---,0.00,216.00,VWS V14.01,2012-10-22 18:07:00,
2012-10-22 14:08:00,84.4,63.8,30.01,NNE,31,2.0,15.0,50,0.00,,---,0.00,216.00,VWS V14.01,2012-10-22 18:08:00,
2012-10-22 14:09:00,84.1,64.0,30.01,ENE,57,1.0,15.0,51,0.00,,---,0.00,905.00,VWS V14.01,2012-10-22 18:09:00,
2012-10-22 14:10:00,83.7,64.8,30.01,East,79,6.0,15.0,53,0.00,,---,0.00,905.00,VWS V14.01,2012-10-22 18:10:00,
2012-10-22 14:11:00,84.5,65.5,30.01,SSE,147,1.0,7.0,53,0.00,,---,0.00,935.00,VWS V14.01,2012-10-22 18:11:00,
2012-10-22 14:12:00,83.4,64.0,30.01,East,85,3.0,15.0,52,0.00,,---,0.00,905.00,VWS V14.01,2012-10-22 18:12:00,
2012-10-22 14:13:00,83.3,64.4,30.01,SE,129,5.0,15.0,53,0.00,,---,0.00,905.00,VWS V14.01,2012-10-22 18:13:00,
2012-10-22 14:14:00,83.2,64.3,30.01,ENE,77,2.0,15.0,53,0.00,,---,0.00,905.00,VWS V14.01,2012-10-22 18:14:00,
2012-10-22 14:16:00,84.8,64.7,30.01,East,86,8.0,15.0,51,0.00,,---,0.00,216.00,VWS V14.01,2012-10-22 18:16:00,
2012-10-22 14:17:00,83.2,64.8,30.01,NE,46,3.0,15.0,54,0.00,,---,0.00,826.00,VWS V14.01,2012-10-22 18:17:00,
2012-10-22 14:20:00,83.9,65.5,30.01,East,84,6.0,15.0,54,0.00,,---,0.00,840.00,VWS V14.01,2012-10-22 18:20:00,
2012-10-22 14:21:00,83.4,64.0,30.01,ENE,66,3.0,15.0,52,0.00,,---,0.00,905.00,VWS V14.01,2012-10-22 18:21:00,
2012-10-22 14:22:00,84.4,65.9,30.00,SE,141,1.0,15.0,54,0.00,,---,0.00,851.00,VWS V14.01,2012-10-22 18:22:00,
2012-10-22 14:23:00,84.7,66.8,30.00,ENE,59,4.0,15.0,55,0.00,,---,0.00,886.00,VWS V14.01,2012-10-22 18:23:00,
2012-10-22 14:24:00,84.8,65.2,30.00,East,101,5.0,15.0,52,0.00,,---,0.00,886.00,VWS V14.01,2012-10-22 18:24:00,
2012-10-22 14:25:00,84.8,65.2,30.00,NNW,347,1.0,15.0,52,0.00,,---,0.00,886.00,VWS V14.01,2012-10-22 18:25:00,
2012-10-22 14:26:00,83.2,64.8,30.01,ESE,111,3.0,15.0,54,0.00,,---,0.00,826.00,VWS V14.01,2012-10-22 18:26:00,
2012-10-22 14:27:00,84.5,65.0,30.00,SE,132,2.0,15.0,52,0.00,,---,0.00,886.00,VWS V14.01,2012-10-22 18:27:00,
2012-10-22 14:29:00,83.9,64.9,30.00,East,94,4.0,15.0,53,0.00,,---,0.00,121.00,VWS V14.01,2012-10-22 18:29:00,
2012-10-22 14:30:00,83.5,64.6,30.00,East,87,3.0,15.0,53,0.00,,---,0.00,120.00,VWS V14.01,2012-10-22 18:30:00,
2012-10-22 14:31:00,84.3,65.9,30.00,SE,141,1.0,15.0,54,0.00,,---,0.00,851.00,VWS V14.01,2012-10-22 18:31:00,
2012-10-22 14:32:00,82.9,64.6,30.00,East,81,6.0,15.0,54,0.00,,---,0.00,120.00,VWS V14.01,2012-10-22 18:32:00,
2012-10-22 14:33:00,82.5,64.7,30.00,ENE,64,3.0,15.0,55,0.00,,---,0.00,111.00,VWS V14.01,2012-10-22 18:33:00,
2012-10-22 14:34:00,82.1,65.4,30.00,NE,48,6.0,15.0,57,0.00,,---,0.00,111.00,VWS V14.01,2012-10-22 18:34:00,
2012-10-22 14:35:00,81.9,64.2,30.00,East,87,6.0,15.0,55,0.00,,---,0.00,111.00,VWS V14.01,2012-10-22 18:35:00,
2012-10-22 14:36:00,84.6,65.6,30.00,NNE,21,4.0,15.0,53,0.00,,---,0.00,886.00,VWS V14.01,2012-10-22 18:36:00,
2012-10-22 14:37:00,81.8,63.5,30.00,ENE,76,8.0,15.0,54,0.00,,---,0.00,111.00,VWS V14.01,2012-10-22 18:37:00,
2012-10-22 14:38:00,82.0,64.3,30.00,East,89,4.0,15.0,55,0.00,,---,0.00,791.00,VWS V14.01,2012-10-22 18:38:00,
2012-10-22 14:39:00,82.4,63.6,30.00,SE,145,7.0,15.0,53,0.00,,---,0.00,791.00,VWS V14.01,2012-10-22 18:39:00,
2012-10-22 14:40:00,82.7,63.8,30.00,NW,307,1.0,15.0,53,0.00,,---,0.00,789.00,VWS V14.01,2012-10-22 18:40:00,
2012-10-22 14:41:00,82.9,64.6,30.00,ESE,108,4.0,15.0,54,0.00,,---,0.00,120.00,VWS V14.01,2012-10-22 18:41:00,
2012-10-22 14:42:00,83.1,63.7,30.00,SE,126,2.0,15.0,52,0.00,,---,0.00,773.00,VWS V14.01,2012-10-22 18:42:00,
2012-10-22 14:43:00,83.3,63.9,30.00,ESE,108,2.0,15.0,52,0.00,,---,0.00,761.00,VWS V14.01,2012-10-22 18:43:00,
2012-10-22 14:44:00,83.5,64.0,30.00,East,88,3.0,15.0,52,0.00,,---,0.00,761.00,VWS V14.01,2012-10-22 18:44:00,
2012-10-22 14:45:00,83.6,64.1,30.00,South,174,1.0,15.0,52,0.00,,---,0.00,740.00,VWS V14.01,2012-10-22 18:45:00,
2012-10-22 14:46:00,81.8,63.5,30.00,ENE,67,7.0,15.0,54,0.00,,---,0.00,111.00,VWS V14.01,2012-10-22 18:46:00,
2012-10-22 14:47:00,84.1,64.0,30.00,ESE,110,4.0,15.0,51,0.00,,---,0.00,758.00,VWS V14.01,2012-10-22 18:47:00,
2012-10-22 14:48:00,84.2,64.7,30.00,SE,132,10.0,15.0,52,0.00,,---,0.00,758.00,VWS V14.01,2012-10-22 18:48:00,
2012-10-22 14:50:00,84.4,65.4,30.00,East,92,6.0,15.0,53,0.00,,---,0.00,788.00,VWS V14.01,2012-10-22 18:50:00,
2012-10-22 14:51:00,83.1,63.7,30.00,South,188,2.0,15.0,52,0.00,,---,0.00,773.00,VWS V14.01,2012-10-22 18:51:00,
2012-10-22 14:52:00,84.3,63.1,30.00,ENE,69,7.0,15.0,49,0.00,,---,0.00,805.00,VWS V14.01,2012-10-22 18:52:00,
2012-10-22 14:53:00,84.3,63.7,30.00,NE,48,2.0,15.0,50,0.00,,---,0.00,810.00,VWS V14.01,2012-10-22 18:53:00,
2012-10-22 14:54:00,84.5,64.4,30.00,North,6,1.0,15.0,51,0.00,,---,0.00,810.00,VWS V14.01,2012-10-22 18:54:00,
2012-10-22 14:55:00,84.6,65.1,30.00,SE,125,5.0,15.0,52,0.00,,---,0.00,810.00,VWS V14.01,2012-10-22 18:55:00,
2012-10-22 14:56:00,84.1,64.0,30.00,ENE,74,3.0,15.0,51,0.00,,---,0.00,758.00,VWS V14.01,2012-10-22 18:56:00,
2012-10-22 14:57:00,84.6,63.9,30.00,ENE,68,10.0,15.0,50,0.00,,---,0.00,837.00,VWS V14.01,2012-10-22 18:57:00,
2012-10-22 14:58:00,84.6,63.3,30.00,SSE,152,6.0,15.0,49,0.00,,---,0.00,847.00,VWS V14.01,2012-10-22 18:58:00,
2012-10-22 15:00:00,84.7,64.6,29.99,SE,145,3.0,5.0,51,0.00,,---,0.00,861.00,VWS V14.01,2012-10-22 19:00:00,
2012-10-22 15:01:00,84.3,63.1,30.00,East,81,5.0,15.0,49,0.00,,---,0.00,803.00,VWS V14.01,2012-10-22 19:01:00,
2012-10-22 15:03:00,84.4,64.3,30.00,NNE,23,4.0,8.0,51,0.00,,---,0.00,172.00,VWS V14.01,2012-10-22 19:03:00,
2012-10-22 15:04:00,84.1,64.6,30.00,East,97,3.0,10.0,52,0.00,,---,0.00,116.00,VWS V14.01,2012-10-22 19:04:00,
2012-10-22 15:05:00,83.7,63.7,30.00,East,89,7.0,11.0,51,0.00,,---,0.00,100.00,VWS V14.01,2012-10-22 19:05:00,
2012-10-22 15:06:00,84.6,63.9,30.00,SE,136,5.0,15.0,50,0.00,,---,0.00,837.00,VWS V14.01,2012-10-22 19:06:00,
2012-10-22 15:07:00,83.1,62.5,30.00,East,91,2.0,11.0,50,0.00,,---,0.00,111.00,VWS V14.01,2012-10-22 19:07:00,
2012-10-22 15:08:00,82.8,63.9,30.00,ENE,74,4.0,11.0,53,0.00,,---,0.00,111.00,VWS V14.01,2012-10-22 19:08:00,
2012-10-22 15:09:00,82.6,63.2,30.00,ENE,72,4.0,11.0,52,0.00,,---,0.00,111.00,VWS V14.01,2012-10-22 19:09:00,
2012-10-22 15:10:00,82.7,63.3,30.00,North,11,2.0,11.0,52,0.00,,---,0.00,694.00,VWS V14.01,2012-10-22 19:10:00,
2012-10-22 15:11:00,84.7,64.0,30.00,ENE,68,4.0,8.0,50,0.00,,---,0.00,172.00,VWS V14.01,2012-10-22 19:11:00,
2012-10-22 15:13:00,83.1,64.2,29.99,NNE,25,4.0,11.0,53,0.00,,---,0.00,689.00,VWS V14.01,2012-10-22 19:13:00,
2012-10-22 15:14:00,83.2,64.3,29.99,East,84,5.0,11.0,53,0.00,,---,0.00,689.00,VWS V14.01,2012-10-22 19:14:00,
2012-10-22 15:15:00,83.5,63.5,30.00,ENE,72,10.0,11.0,51,0.00,,---,0.00,689.00,VWS V14.01,2012-10-22 19:15:00,
2012-10-22 15:16:00,83.1,62.5,30.00,East,91,2.0,11.0,50,0.00,,---,0.00,111.00,VWS V14.01,2012-10-22 19:16:00,
2012-10-22 15:17:00,83.8,63.2,29.99,NE,47,1.0,11.0,50,0.00,,---,0.00,671.00,VWS V14.01,2012-10-22 19:17:00,
2012-10-22 15:18:00,83.9,62.7,29.99,SE,128,10.0,11.0,49,0.00,,---,0.00,652.00,VWS V14.01,2012-10-22 19:18:00,
2012-10-22 15:20:00,84.0,62.2,29.99,NW,325,2.0,11.0,48,0.00,,---,0.00,671.00,VWS V14.01,2012-10-22 19:20:00,
2012-10-22 15:21:00,83.0,64.7,30.00,ENE,74,2.0,11.0,54,0.00,,---,0.00,689.00,VWS V14.01,2012-10-22 19:21:00,
2012-10-22 15:22:00,84.1,63.5,29.99,ENE,63,6.0,11.0,50,0.00,,---,0.00,666.00,VWS V14.01,2012-10-22 19:22:00,
2012-10-22 15:23:00,84.1,62.9,29.99,ENE,76,3.0,11.0,49,0.00,,---,0.00,666.00,VWS V14.01,2012-10-22 19:23:00,
2012-10-22 15:24:00,84.3,63.1,29.99,East,95,2.0,11.0,49,0.00,,---,0.00,666.00,VWS V14.01,2012-10-22 19:24:00,
2012-10-22 15:25:00,84.5,63.8,29.99,ESE,122,3.0,11.0,50,0.00,,---,0.00,659.00,VWS V14.01,2012-10-22 19:25:00,
2012-10-22 15:26:00,84.7,63.5,29.99,East,84,5.0,11.0,49,0.00,,---,0.00,659.00,VWS V14.01,2012-10-22 19:26:00,
2012-10-22 15:27:00,83.8,63.2,29.99,ENE,68,7.0,11.0,50,0.00,,---,0.00,671.00,VWS V14.01,2012-10-22 19:27:00,
2012-10-22 15:28:00,84.9,62.4,29.99,ESE,118,4.0,11.0,47,0.00,,---,0.00,701.00,VWS V14.01,2012-10-22 19:28:00,
2012-10-22 15:29:00,85.0,63.1,29.99,East,93,5.0,11.0,48,0.00,,---,0.00,701.00,VWS V14.01,2012-10-22 19:29:00,
2012-10-22 15:30:00,85.0,63.1,29.99,ESE,113,5.0,11.0,48,0.00,,---,0.00,738.00,VWS V14.01,2012-10-22 19:30:00,
2012-10-22 15:31:00,85.1,63.8,29.99,ESE,122,2.0,13.0,49,0.00,,---,0.00,745.00,VWS V14.01,2012-10-22 19:31:00,
2012-10-22 15:32:00,84.1,63.5,29.99,East,88,5.0,11.0,50,0.00,,---,0.00,666.00,VWS V14.01,2012-10-22 19:32:00,
2012-10-22 15:33:00,85.1,65.0,29.99,ENE,60,6.0,13.0,51,0.00,,---,0.00,759.00,VWS V14.01,2012-10-22 19:33:00,
2012-10-22 15:34:00,85.1,64.4,29.99,North,355,1.0,13.0,50,0.00,,---,0.00,759.00,VWS V14.01,2012-10-22 19:34:00,
2012-10-22 15:35:00,84.9,64.2,29.99,NNE,14,2.0,13.0,50,0.00,,---,0.00,759.00,VWS V14.01,2012-10-22 19:35:00,
2012-10-22 15:36:00,84.8,64.7,29.99,East,94,9.0,13.0,51,0.00,,---,0.00,759.00,VWS V14.01,2012-10-22 19:36:00,
2012-10-22 15:37:00,84.9,63.0,29.99,South,175,5.0,11.0,48,0.00,,---,0.00,684.00,VWS V14.01,2012-10-22 19:37:00,
2012-10-22 15:38:00,84.4,65.4,29.99,East,87,8.0,13.0,53,0.00,,---,0.00,759.00,VWS V14.01,2012-10-22 19:38:00,
2012-10-22 15:39:00,84.2,64.7,29.99,North,351,2.0,13.0,52,0.00,,---,0.00,759.00,VWS V14.01,2012-10-22 19:39:00,
2012-10-22 15:40:00,83.7,64.2,29.99,East,100,6.0,13.0,52,0.00,,---,0.00,759.00,VWS V14.01,2012-10-22 19:40:00,
2012-10-22 15:41:00,83.4,63.4,29.99,NE,47,3.0,13.0,51,0.00,,---,0.00,192.00,VWS V14.01,2012-10-22 19:41:00,
2012-10-22 15:42:00,85.1,63.8,29.99,ENE,60,3.0,13.0,49,0.00,,---,0.00,761.00,VWS V14.01,2012-10-22 19:42:00,
2012-10-22 15:43:00,83.0,64.7,29.99,East,93,6.0,13.0,54,0.00,,---,0.00,225.00,VWS V14.01,2012-10-22 19:43:00,
2012-10-22 15:44:00,82.9,64.6,29.99,East,89,2.0,13.0,54,0.00,,---,0.00,225.00,VWS V14.01,2012-10-22 19:44:00,
2012-10-22 15:45:00,83.0,64.7,29.99,SE,135,2.0,13.0,54,0.00,,---,0.00,330.00,VWS V14.01,2012-10-22 19:45:00,
2012-10-22 15:46:00,83.1,64.8,29.99,SE,136,1.0,13.0,54,0.00,,---,0.00,394.00,VWS V14.01,2012-10-22 19:46:00,
2012-10-22 15:47:00,84.6,65.1,29.99,NNE,26,2.0,13.0,52,0.00,,---,0.00,759.00,VWS V14.01,2012-10-22 19:47:00,
2012-10-22 15:48:00,83.6,64.1,29.99,ENE,63,4.0,13.0,52,0.00,,---,0.00,394.00,VWS V14.01,2012-10-22 19:48:00,
2012-10-22 15:49:00,83.7,65.3,29.99,NNE,27,1.0,13.0,54,0.00,,---,0.00,394.00,VWS V14.01,2012-10-22 19:49:00,
2012-10-22 15:50:00,83.6,65.2,29.99,ENE,72,3.0,13.0,54,0.00,,---,0.00,322.00,VWS V14.01,2012-10-22 19:50:00,
2012-10-22 15:51:00,83.6,64.1,29.99,East,101,2.0,13.0,52,0.00,,---,0.00,336.00,VWS V14.01,2012-10-22 19:51:00,
2012-10-22 15:52:00,83.1,63.7,29.99,ENE,66,1.0,13.0,52,0.00,,---,0.00,225.00,VWS V14.01,2012-10-22 19:52:00,
2012-10-22 15:54:00,83.6,64.7,29.99,East,81,5.0,13.0,53,0.00,,---,0.00,144.00,VWS V14.01,2012-10-22 19:54:00,
2012-10-22 15:55:00,83.5,63.5,29.99,ENE,75,4.0,13.0,51,0.00,,---,0.00,127.00,VWS V14.01,2012-10-22 19:55:00,
2012-10-22 15:56:00,83.3,63.9,29.99,ENE,64,6.0,13.0,52,0.00,,---,0.00,109.00,VWS V14.01,2012-10-22 19:56:00,
2012-10-22 15:57:00,83.4,65.0,29.99,ENE,62,3.0,13.0,54,0.00,,---,0.00,394.00,VWS V14.01,2012-10-22 19:57:00,
2012-10-22 15:58:00,82.9,62.9,29.99,East,87,5.0,13.0,51,0.00,,---,0.00,77.00,VWS V14.01,2012-10-22 19:58:00,
2012-10-22 15:59:00,82.8,62.8,29.99,East,83,2.0,13.0,51,0.00,,---,0.00,56.00,VWS V14.01,2012-10-22 19:59:00,
2012-10-22 16:00:00,82.6,63.2,29.99,NE,48,7.0,7.0,52,0.00,,---,0.00,49.00,VWS V14.01,2012-10-22 20:00:00,
2012-10-22 16:01:00,82.5,63.1,29.99,NE,54,0.0,7.0,52,0.00,,---,0.00,49.00,VWS V14.01,2012-10-22 20:01:00,
2012-10-22 16:02:00,83.6,64.7,29.99,NNE,31,3.0,13.0,53,0.00,,---,0.00,336.00,VWS V14.01,2012-10-22 20:02:00,
2012-10-22 16:03:00,81.9,63.6,29.99,NE,47,8.0,8.0,54,0.00,,---,0.00,44.00,VWS V14.01,2012-10-22 20:03:00,
2012-10-22 16:04:00,81.7,63.5,29.99,ENE,72,3.0,9.0,54,0.00,,---,0.00,44.00,VWS V14.01,2012-10-22 20:04:00,
2012-10-22 16:05:00,81.6,63.4,29.99,ESE,106,3.0,9.0,54,0.00,,---,0.00,74.00,VWS V14.01,2012-10-22 20:05:00,
2012-10-22 16:06:00,81.5,63.3,29.99,ENE,71,0.0,9.0,54,0.00,,---,0.00,74.00,VWS V14.01,2012-10-22 20:06:00,
2012-10-22 16:07:00,83.1,63.7,29.99,ENE,72,5.0,13.0,52,0.00,,---,0.00,77.00,VWS V14.01,2012-10-22 20:07:00,
2012-10-22 16:08:00,81.5,62.7,29.99,SE,131,1.0,9.0,53,0.00,,---,0.00,86.00,VWS V14.01,2012-10-22 20:08:00,
2012-10-22 16:09:00,81.7,63.5,29.99,East,91,4.0,9.0,54,0.00,,---,0.00,116.00,VWS V14.01,2012-10-22 20:09:00,
2012-10-22 16:11:00,82.2,63.4,29.99,SE,137,1.0,9.0,53,0.00,,---,0.00,123.00,VWS V14.01,2012-10-22 20:11:00,
2012-10-22 16:12:00,82.1,63.8,29.99,ENE,61,1.0,7.0,54,0.00,,---,0.00,42.00,VWS V14.01,2012-10-22 20:12:00,
2012-10-22 16:13:00,82.7,64.9,29.99,NE,54,4.0,9.0,55,0.00,,---,0.00,137.00,VWS V14.01,2012-10-22 20:13:00,
2012-10-22 16:14:00,82.9,64.0,29.99,ENE,70,6.0,9.0,53,0.00,,---,0.00,156.00,VWS V14.01,2012-10-22 20:14:00,
2012-10-22 16:15:00,83.1,63.1,29.99,East,88,6.0,10.0,51,0.00,,---,0.00,153.00,VWS V14.01,2012-10-22 20:15:00,
2012-10-22 16:16:00,83.3,63.3,29.99,North,10,1.0,10.0,51,0.00,,---,0.00,141.00,VWS V14.01,2012-10-22 20:16:00,
2012-10-22 16:17:00,81.5,62.7,29.99,SE,131,2.0,9.0,53,0.00,,---,0.00,56.00,VWS V14.01,2012-10-22 20:17:00,
2012-10-22 16:18:00,83.5,64.0,29.99,NE,40,2.0,10.0,52,0.00,,---,0.00,134.00,VWS V14.01,2012-10-22 20:18:00,
2012-10-22 16:19:00,83.4,64.0,29.99,NE,53,1.0,10.0,52,0.00,,---,0.00,130.00,VWS V14.01,2012-10-22 20:19:00,
2012-10-22 16:20:00,83.2,63.2,29.99,East,88,7.0,10.0,51,0.00,,---,0.00,116.00,VWS V14.01,2012-10-22 20:20:00,
2012-10-22 16:21:00,83.0,63.0,29.99,NE,41,8.0,10.0,51,0.00,,---,0.00,109.00,VWS V14.01,2012-10-22 20:21:00,
2012-10-22 16:22:00,82.5,64.2,29.99,SE,137,0.0,9.0,54,0.00,,---,0.00,137.00,VWS V14.01,2012-10-22 20:22:00,
2012-10-22 16:23:00,82.7,62.8,29.99,NE,55,2.0,10.0,51,0.00,,---,0.00,93.00,VWS V14.01,2012-10-22 20:23:00,
2012-10-22 16:24:00,82.6,62.1,29.99,NE,48,5.0,12.0,50,0.00,,---,0.00,86.00,VWS V14.01,2012-10-22 20:24:00,
2012-10-22 16:25:00,82.5,63.7,29.99,North,8,1.0,12.0,53,0.00,,---,0.00,76.00,VWS V14.01,2012-10-22 20:25:00,
2012-10-22 16:26:00,82.3,63.5,29.99,ENE,72,6.0,12.0,53,0.00,,---,0.00,58.00,VWS V14.01,2012-10-22 20:26:00,
2012-10-22 16:27:00,83.5,64.0,29.99,NE,50,3.0,10.0,52,0.00,,---,0.00,139.00,VWS V14.01,2012-10-22 20:27:00,
2012-10-22 16:28:00,82.1,62.2,29.99,East,91,3.0,12.0,51,0.00,,---,0.00,49.00,VWS V14.01,2012-10-22 20:28:00,
2012-10-22 16:29:00,82.0,62.7,29.99,NNE,27,5.0,12.0,52,0.00,,---,0.00,46.00,VWS V14.01,2012-10-22 20:29:00,
2012-10-22 16:30:00,82.0,62.7,29.99,East,89,6.0,12.0,52,0.00,,---,0.00,47.00,VWS V14.01,2012-10-22 20:30:00,
2012-10-22 16:31:00,81.9,62.6,29.99,East,87,7.0,12.0,52,0.00,,---,0.00,47.00,VWS V14.01,2012-10-22 20:31:00,
2012-10-22 16:32:00,82.8,62.8,29.99,NE,40,7.0,10.0,51,0.00,,---,0.00,109.00,VWS V14.01,2012-10-22 20:32:00,
2012-10-22 16:33:00,81.7,62.4,29.99,East,81,4.0,12.0,52,0.00,,---,0.00,51.00,VWS V14.01,2012-10-22 20:33:00,
2012-10-22 16:34:00,81.6,62.3,29.99,ESE,116,6.0,12.0,52,0.00,,---,0.00,77.00,VWS V14.01,2012-10-22 20:34:00,
2012-10-22 16:35:00,81.6,62.3,29.99,NNE,14,1.0,12.0,52,0.00,,---,0.00,77.00,VWS V14.01,2012-10-22 20:35:00,
2012-10-22 16:36:00,81.6,63.4,29.99,North,358,0.0,12.0,54,0.00,,---,0.00,130.00,VWS V14.01,2012-10-22 20:36:00,
2012-10-22 16:37:00,82.2,62.3,29.99,SE,139,1.0,12.0,51,0.00,,---,0.00,49.00,VWS V14.01,2012-10-22 20:37:00,
2012-10-22 16:38:00,81.8,63.5,29.99,NNE,23,4.0,12.0,54,0.00,,---,0.00,105.00,VWS V14.01,2012-10-22 20:38:00,
2012-10-22 16:39:00,81.9,63.6,29.99,ESE,106,4.0,12.0,54,0.00,,---,0.00,105.00,VWS V14.01,2012-10-22 20:39:00,
2012-10-22 16:40:00,81.9,64.2,29.99,NNE,20,3.0,12.0,55,0.00,,---,0.00,330.00,VWS V14.01,2012-10-22 20:40:00,
2012-10-22 16:41:00,82.1,63.3,29.99,East,85,10.0,12.0,53,0.00,,---,0.00,290.00,VWS V14.01,2012-10-22 20:41:00,
2012-10-22 16:42:00,81.8,61.9,29.99,East,85,4.0,12.0,51,0.00,,---,0.00,49.00,VWS V14.01,2012-10-22 20:42:00,
2012-10-22 16:43:00,82.3,63.5,29.99,SSE,160,2.0,13.0,53,0.00,,---,0.00,200.00,VWS V14.01,2012-10-22 20:43:00,
2012-10-22 16:45:00,82.4,64.1,29.99,NE,45,8.0,14.0,54,0.00,,---,0.00,60.00,VWS V14.01,2012-10-22 20:45:00,
2012-10-22 16:46:00,82.3,64.0,29.99,NE,34,5.0,14.0,54,0.00,,---,0.00,162.00,VWS V14.01,2012-10-22 20:46:00,
2012-10-22 16:47:00,81.7,63.5,29.99,NNW,334,1.0,12.0,54,0.00,,---,0.00,105.00,VWS V14.01,2012-10-22 20:47:00,
2012-10-22 16:49:00,82.3,64.5,29.99,NNE,31,2.0,14.0,55,0.00,,---,0.00,100.00,VWS V14.01,2012-10-22 20:49:00,
2012-10-22 16:50:00,82.3,65.1,29.99,ESE,103,7.0,14.0,56,0.00,,---,0.00,139.00,VWS V14.01,2012-10-22 20:50:00,
2012-10-22 16:51:00,82.3,64.5,29.99,ENE,57,3.0,14.0,55,0.00,,---,0.00,139.00,VWS V14.01,2012-10-22 20:51:00,
2012-10-22 16:52:00,82.3,63.5,29.99,NE,45,5.0,13.0,53,0.00,,---,0.00,200.00,VWS V14.01,2012-10-22 20:52:00,
2012-10-22 16:53:00,82.4,65.1,29.99,SE,132,2.0,14.0,56,0.00,,---,0.00,171.00,VWS V14.01,2012-10-22 20:53:00,
2012-10-22 16:54:00,82.4,65.1,29.99,NE,42,2.0,14.0,56,0.00,,---,0.00,171.00,VWS V14.01,2012-10-22 20:54:00,
2012-10-22 16:56:00,82.6,64.8,29.99,ENE,73,6.0,14.0,55,0.00,,---,0.00,221.00,VWS V14.01,2012-10-22 20:56:00,
2012-10-22 16:57:00,82.3,64.5,29.99,ENE,63,1.0,14.0,55,0.00,,---,0.00,165.00,VWS V14.01,2012-10-22 20:57:00,
2012-10-22 16:58:00,82.6,65.3,29.99,ENE,59,11.0,14.0,56,0.00,,---,0.00,105.00,VWS V14.01,2012-10-22 20:58:00,
2012-10-22 16:59:00,82.5,64.7,29.99,NE,45,7.0,14.0,55,0.00,,---,0.00,100.00,VWS V14.01,2012-10-22 20:59:00,
2012-10-22 17:00:00,82.8,63.4,29.99,ENE,72,2.0,13.0,52,0.00,,---,0.00,56.00,VWS V14.01,2012-10-22 21:00:00,
2012-10-22 17:01:00,82.4,64.6,29.99,NE,41,2.0,9.0,55,0.00,,---,0.00,95.00,VWS V14.01,2012-10-22 21:01:00,
2012-10-22 17:02:00,82.3,65.6,29.99,SE,126,2.0,14.0,57,0.00,,---,0.00,171.00,VWS V14.01,2012-10-22 21:02:00,
2012-10-22 17:03:00,82.2,65.0,29.99,ENE,61,2.0,9.0,56,0.00,,---,0.00,84.00,VWS V14.01,2012-10-22 21:03:00,
2012-10-22 17:04:00,82.1,64.9,29.99,ESE,110,5.0,12.0,56,0.00,,---,0.00,79.00,VWS V14.01,2012-10-22 21:04:00,
2012-10-22 17:05:00,82.0,64.8,29.99,ESE,120,2.0,12.0,56,0.00,,---,0.00,79.00,VWS V14.01,2012-10-22 21:05:00,
2012-10-22 17:06:00,81.9,65.2,29.99,ESE,114,6.0,12.0,57,0.00,,---,0.00,79.00,VWS V14.01,2012-10-22 21:06:00,
2012-10-22 17:07:00,82.6,65.3,29.99,ENE,68,6.0,14.0,56,0.00,,---,0.00,221.00,VWS V14.01,2012-10-22 21:07:00,
2012-10-22 17:08:00,81.7,65.5,29.99,ENE,70,0.0,12.0,58,0.00,,---,0.00,56.00,VWS V14.01,2012-10-22 21:08:00,
2012-10-22 17:09:00,81.4,65.7,29.99,SSE,152,1.0,12.0,59,0.00,,---,0.00,47.00,VWS V14.01,2012-10-22 21:09:00,
2012-10-22 17:10:00,81.3,65.1,29.99,ESE,122,5.0,12.0,58,0.00,,---,0.00,42.00,VWS V14.01,2012-10-22 21:10:00,
2012-10-22 17:11:00,81.2,65.0,29.99,ENE,60,2.0,12.0,58,0.00,,---,0.00,39.00,VWS V14.01,2012-10-22 21:11:00,
2012-10-22 17:12:00,82.2,65.0,29.99,ESE,103,2.0,9.0,56,0.00,,---,0.00,88.00,VWS V14.01,2012-10-22 21:12:00,
2012-10-22 17:13:00,81.1,64.9,29.99,NE,35,6.0,12.0,58,0.00,,---,0.00,35.00,VWS V14.01,2012-10-22 21:13:00,
2012-10-22 17:14:00,81.1,64.9,29.99,SSW,198,3.0,12.0,58,0.00,,---,0.00,33.00,VWS V14.01,2012-10-22 21:14:00,
2012-10-22 17:15:00,81.1,64.9,29.99,NE,53,2.0,12.0,58,0.00,,---,0.00,35.00,VWS V14.01,2012-10-22 21:15:00,
2012-10-22 17:16:00,81.1,65.9,29.99,NE,44,4.0,12.0,60,0.00,,---,0.00,42.00,VWS V14.01,2012-10-22 21:16:00,
2012-10-22 17:17:00,81.7,65.5,29.99,ENE,70,2.0,12.0,58,0.00,,---,0.00,63.00,VWS V14.01,2012-10-22 21:17:00,
2012-10-22 17:19:00,80.8,64.7,29.99,East,91,8.0,12.0,58,0.00,,---,0.00,40.00,VWS V14.01,2012-10-22 21:19:00,
2012-10-22 17:21:00,80.8,65.2,29.99,ENE,71,2.0,12.0,59,0.00,,---,0.00,44.00,VWS V14.01,2012-10-22 21:21:00,
2012-10-22 17:22:00,81.2,65.0,29.99,East,96,6.0,12.0,58,0.00,,---,0.00,35.00,VWS V14.01,2012-10-22 21:22:00,
2012-10-22 17:23:00,80.8,65.2,29.99,ESE,106,4.0,12.0,59,0.00,,---,0.00,42.00,VWS V14.01,2012-10-22 21:23:00,
2012-10-22 17:24:00,80.9,65.2,30.00,East,86,1.0,12.0,59,0.00,,---,0.00,42.00,VWS V14.01,2012-10-22 21:24:00,
2012-10-22 17:26:00,80.9,65.7,30.00,ESE,108,1.0,12.0,60,0.00,,---,0.00,42.00,VWS V14.01,2012-10-22 21:26:00,
2012-10-22 17:27:00,80.9,64.8,29.99,SE,127,7.0,12.0,58,0.00,,---,0.00,37.00,VWS V14.01,2012-10-22 21:27:00,
2012-10-22 17:28:00,80.9,65.2,30.00,NE,44,1.0,12.0,59,0.00,,---,0.00,42.00,VWS V14.01,2012-10-22 21:28:00,
2012-10-22 17:29:00,80.9,65.2,29.99,ESE,122,1.0,12.0,59,0.00,,---,0.00,44.00,VWS V14.01,2012-10-22 21:29:00,
2012-10-22 17:30:00,81.0,65.3,30.00,East,81,4.0,12.0,59,0.00,,---,0.00,44.00,VWS V14.01,2012-10-22 21:30:00,
2012-10-22 17:31:00,81.0,65.3,30.00,NE,48,0.0,12.0,59,0.00,,---,0.00,49.00,VWS V14.01,2012-10-22 21:31:00,
2012-10-22 17:32:00,80.8,65.2,29.99,ENE,70,4.0,12.0,59,0.00,,---,0.00,42.00,VWS V14.01,2012-10-22 21:32:00,
2012-10-22 17:34:00,81.0,66.3,30.00,East,80,1.0,12.0,61,0.00,,---,0.00,84.00,VWS V14.01,2012-10-22 21:34:00,
2012-10-22 17:35:00,81.1,64.9,29.99,East,100,5.0,12.0,58,0.00,,---,0.00,84.00,VWS V14.01,2012-10-22 21:35:00,
2012-10-22 17:36:00,81.1,65.4,30.00,East,83,3.0,12.0,59,0.00,,---,0.00,107.00,VWS V14.01,2012-10-22 21:36:00,
2012-10-22 17:37:00,80.9,65.2,30.00,ENE,65,2.0,12.0,59,0.00,,---,0.00,42.00,VWS V14.01,2012-10-22 21:37:00,
2012-10-22 17:38:00,81.3,65.6,30.00,NE,48,0.0,12.0,59,0.00,,---,0.00,105.00,VWS V14.01,2012-10-22 21:38:00,
2012-10-22 17:39:00,81.4,65.7,30.00,NE,35,5.0,12.0,59,0.00,,---,0.00,84.00,VWS V14.01,2012-10-22 21:39:00,
2012-10-22 17:40:00,81.4,64.7,30.00,NE,49,3.0,14.0,57,0.00,,---,0.00,76.00,VWS V14.01,2012-10-22 21:40:00,
2012-10-22 17:42:00,81.0,65.3,30.00,East,79,3.0,12.0,59,0.00,,---,0.00,49.00,VWS V14.01,2012-10-22 21:42:00,
2012-10-22 17:43:00,81.5,64.3,30.00,NE,35,7.0,14.0,56,0.00,,---,0.00,65.00,VWS V14.01,2012-10-22 21:43:00,
2012-10-22 17:44:00,81.5,63.8,30.00,East,82,7.0,14.0,55,0.00,,---,0.00,62.00,VWS V14.01,2012-10-22 21:44:00,
2012-10-22 17:45:00,81.5,63.8,30.00,NE,37,3.0,14.0,55,0.00,,---,0.00,58.00,VWS V14.01,2012-10-22 21:45:00,
2012-10-22 17:46:00,81.5,64.3,30.00,NE,38,3.0,14.0,56,0.00,,---,0.00,54.00,VWS V14.01,2012-10-22 21:46:00,
2012-10-22 17:47:00,81.3,65.6,30.00,NE,48,2.0,12.0,59,0.00,,---,0.00,105.00,VWS V14.01,2012-10-22 21:47:00,
2012-10-22 17:48:00,81.3,63.1,30.00,NE,50,1.0,14.0,54,0.00,,---,0.00,51.00,VWS V14.01,2012-10-22 21:48:00,
2012-10-22 17:49:00,81.2,64.0,30.00,NE,56,4.0,14.0,56,0.00,,---,0.00,51.00,VWS V14.01,2012-10-22 21:49:00,
2012-10-22 17:50:00,81.2,63.5,30.00,NE,54,7.0,14.0,55,0.00,,---,0.00,47.00,VWS V14.01,2012-10-22 21:50:00,
2012-10-22 17:51:00,81.1,63.4,30.00,NE,54,6.0,14.0,55,0.00,,---,0.00,46.00,VWS V14.01,2012-10-22 21:51:00,
2012-10-22 17:52:00,81.5,64.3,30.00,East,86,9.0,14.0,56,0.00,,---,0.00,76.00,VWS V14.01,2012-10-22 21:52:00,
2012-10-22 17:53:00,80.9,62.7,30.00,ENE,74,4.0,14.0,54,0.00,,---,0.00,42.00,VWS V14.01,2012-10-22 21:53:00,
2012-10-22 17:55:00,80.8,62.6,30.00,NE,43,2.0,14.0,54,0.00,,---,0.00,33.00,VWS V14.01,2012-10-22 21:55:00,
2012-10-22 17:57:00,81.3,63.1,30.00,NE,50,1.0,14.0,54,0.00,,---,0.00,51.00,VWS V14.01,2012-10-22 21:57:00,
2012-10-22 17:58:00,80.7,63.0,30.00,ESE,106,5.0,14.0,55,0.00,,---,0.00,28.00,VWS V14.01,2012-10-22 21:58:00,
2012-10-22 17:59:00,80.6,63.5,30.00,ENE,65,9.0,14.0,56,0.00,,---,0.00,25.00,VWS V14.01,2012-10-22 21:59:00,
2012-10-22 18:00:00,80.5,62.9,30.00,ENE,66,1.0,9.0,55,0.00,,---,0.00,23.00,VWS V14.01,2012-10-22 22:00:00,
2012-10-22 18:01:00,80.4,63.3,30.00,NNE,16,4.0,9.0,56,0.00,,---,0.00,23.00,VWS V14.01,2012-10-22 22:01:00,
2012-10-22 18:02:00,80.9,62.7,30.00,East,84,6.0,14.0,54,0.00,,---,0.00,42.00,VWS V14.01,2012-10-22 22:02:00,
2012-10-22 18:03:00,80.2,63.1,30.00,East,92,2.0,9.0,56,0.00,,---,0.00,23.00,VWS V14.01,2012-10-22 22:03:00,
2012-10-22 18:04:00,80.2,63.1,30.00,ENE,66,2.0,9.0,56,0.00,,---,0.00,21.00,VWS V14.01,2012-10-22 22:04:00,
2012-10-22 18:06:00,79.9,62.8,30.00,ENE,72,3.0,9.0,56,0.00,,---,0.00,19.00,VWS V14.01,2012-10-22 22:06:00,
2012-10-22 18:07:00,80.7,63.0,30.00,East,86,4.0,14.0,55,0.00,,---,0.00,28.00,VWS V14.01,2012-10-22 22:07:00,
2012-10-22 18:08:00,79.7,63.1,30.00,ENE,75,0.0,9.0,57,0.00,,---,0.00,19.00,VWS V14.01,2012-10-22 22:08:00,
2012-10-22 18:11:00,79.4,63.3,30.00,ENE,62,2.0,9.0,58,0.00,,---,0.00,18.00,VWS V14.01,2012-10-22 22:11:00,
2012-10-22 18:12:00,80.2,63.1,30.00,ENE,73,3.0,9.0,56,0.00,,---,0.00,23.00,VWS V14.01,2012-10-22 22:12:00,
2012-10-22 18:13:00,79.3,63.3,30.00,NE,53,1.0,9.0,58,0.00,,---,0.00,16.00,VWS V14.01,2012-10-22 22:13:00,
2012-10-22 18:14:00,79.2,63.7,30.00,ESE,119,3.0,9.0,59,0.00,,---,0.00,16.00,VWS V14.01,2012-10-22 22:14:00,
2012-10-22 18:15:00,79.1,63.1,30.00,NNE,30,4.0,9.0,58,0.00,,---,0.00,16.00,VWS V14.01,2012-10-22 22:15:00,
2012-10-22 18:16:00,79.1,63.1,30.00,ENE,58,4.0,9.0,58,0.00,,---,0.00,16.00,VWS V14.01,2012-10-22 22:16:00,
2012-10-22 18:17:00,79.8,63.2,30.00,ENE,75,0.0,9.0,57,0.00,,---,0.00,19.00,VWS V14.01,2012-10-22 22:17:00,
2012-10-22 18:18:00,78.9,63.4,30.00,NE,54,4.0,9.0,59,0.00,,---,0.00,14.00,VWS V14.01,2012-10-22 22:18:00,
2012-10-22 18:19:00,78.8,63.3,30.00,ENE,57,0.0,9.0,59,0.00,,---,0.00,14.00,VWS V14.01,2012-10-22 22:19:00,
2012-10-22 18:20:00,78.7,63.2,30.00,NE,56,2.0,9.0,59,0.00,,---,0.00,14.00,VWS V14.01,2012-10-22 22:20:00,
2012-10-22 18:21:00,78.7,63.2,30.00,East,81,6.0,9.0,59,0.00,,---,0.00,12.00,VWS V14.01,2012-10-22 22:21:00,
2012-10-22 18:22:00,79.3,63.3,30.00,NE,54,1.0,9.0,58,0.00,,---,0.00,16.00,VWS V14.01,2012-10-22 22:22:00,
2012-10-22 18:23:00,78.6,62.6,30.01,East,95,5.0,9.0,58,0.00,,---,0.00,12.00,VWS V14.01,2012-10-22 22:23:00,
2012-10-22 18:24:00,78.6,62.6,30.01,ENE,73,2.0,9.0,58,0.00,,---,0.00,12.00,VWS V14.01,2012-10-22 22:24:00,
2012-10-22 18:25:00,78.6,62.6,30.01,East,84,6.0,9.0,58,0.00,,---,0.00,11.00,VWS V14.01,2012-10-22 22:25:00,
2012-10-22 18:26:00,78.6,62.6,30.01,ENE,70,1.0,9.0,58,0.00,,---,0.00,11.00,VWS V14.01,2012-10-22 22:26:00,
2012-10-22 18:27:00,78.5,63.0,30.01,East,100,2.0,9.0,59,0.00,,---,0.00,11.00,VWS V14.01,2012-10-22 22:27:00,
2012-10-22 18:28:00,78.9,63.4,30.00,NE,54,4.0,9.0,59,0.00,,---,0.00,14.00,VWS V14.01,2012-10-22 22:28:00,
2012-10-22 18:29:00,78.5,63.5,30.01,NE,44,2.0,9.0,60,0.00,,---,0.00,9.00,VWS V14.01,2012-10-22 22:29:00,
2012-10-22 18:31:00,78.3,62.8,30.01,East,100,1.0,9.0,59,0.00,,---,0.00,9.00,VWS V14.01,2012-10-22 22:31:00,
2012-10-22 18:32:00,78.3,62.8,30.01,East,94,5.0,9.0,59,0.00,,---,0.00,7.00,VWS V14.01,2012-10-22 22:32:00,
2012-10-22 18:33:00,78.6,62.6,30.01,East,95,5.0,9.0,58,0.00,,---,0.00,12.00,VWS V14.01,2012-10-22 22:33:00,
2012-10-22 18:35:00,78.1,63.1,30.01,ENE,75,3.0,9.0,60,0.00,,---,0.00,7.00,VWS V14.01,2012-10-22 22:35:00,
2012-10-22 18:36:00,78.0,63.0,30.01,NE,37,5.0,9.0,60,0.00,,---,0.00,5.00,VWS V14.01,2012-10-22 22:36:00,
2012-10-22 18:38:00,78.5,63.0,30.01,ENE,72,1.0,9.0,59,0.00,,---,0.00,9.00,VWS V14.01,2012-10-22 22:38:00,
2012-10-22 18:39:00,77.8,63.3,30.01,East,94,2.0,9.0,61,0.00,,---,0.00,5.00,VWS V14.01,2012-10-22 22:39:00,
2012-10-22 18:41:00,77.7,63.2,30.01,NE,43,4.0,9.0,61,0.00,,---,0.00,0.00,VWS V14.01,2012-10-22 22:41:00,
2012-10-22 18:42:00,77.6,63.1,30.01,ENE,65,1.0,9.0,61,0.00,,---,0.00,0.00,VWS V14.01,2012-10-22 22:42:00,
2012-10-22 18:43:00,78.2,62.7,30.01,East,91,3.0,9.0,59,0.00,,---,0.00,7.00,VWS V14.01,2012-10-22 22:43:00,
2012-10-22 18:44:00,77.5,63.0,30.01,ENE,62,4.0,9.0,61,0.00,,---,0.00,0.00,VWS V14.01,2012-10-22 22:44:00,
2012-10-22 18:45:00,77.4,62.9,30.01,NE,45,5.0,9.0,61,0.00,,---,0.00,0.00,VWS V14.01,2012-10-22 22:45:00,
2012-10-22 18:47:00,77.4,63.4,30.01,East,87,4.0,9.0,62,0.00,,---,0.00,0.00,VWS V14.01,2012-10-22 22:47:00,
2012-10-22 18:48:00,77.9,63.4,30.01,NE,56,3.0,9.0,61,0.00,,---,0.00,5.00,VWS V14.01,2012-10-22 22:48:00,
2012-10-22 18:49:00,77.3,62.8,30.01,NE,48,6.0,9.0,61,0.00,,---,0.00,0.00,VWS V14.01,2012-10-22 22:49:00,
2012-10-22 18:50:00,77.2,62.7,30.01,ENE,69,2.0,9.0,61,0.00,,---,0.00,0.00,VWS V14.01,2012-10-22 22:50:00,
2012-10-22 18:51:00,77.2,62.7,30.01,ENE,64,0.0,9.0,61,0.00,,---,0.00,0.00,VWS V14.01,2012-10-22 22:51:00,
2012-10-22 18:52:00,77.1,62.6,30.01,ENE,73,2.0,9.0,61,0.00,,---,0.00,0.00,VWS V14.01,2012-10-22 22:52:00,
2012-10-22 18:53:00,77.6,63.1,30.01,East,98,3.0,9.0,61,0.00,,---,0.00,0.00,VWS V14.01,2012-10-22 22:53:00,
2012-10-22 18:54:00,77.1,62.6,30.02,East,85,1.0,9.0,61,0.00,,---,0.00,0.00,VWS V14.01,2012-10-22 22:54:00,
2012-10-22 18:55:00,77.0,63.0,30.02,North,4,3.0,9.0,62,0.00,,---,0.00,0.00,VWS V14.01,2012-10-22 22:55:00,
2012-10-22 18:56:00,77.0,63.0,30.02,ENE,62,4.0,9.0,62,0.00,,---,0.00,0.00,VWS V14.01,2012-10-22 22:56:00,
2012-10-22 18:57:00,77.0,63.0,30.02,East,94,3.0,9.0,62,0.00,,---,0.00,0.00,VWS V14.01,2012-10-22 22:57:00,
2012-10-22 18:58:00,77.3,62.8,30.01,NE,52,2.0,9.0,61,0.00,,---,0.00,0.00,VWS V14.01,2012-10-22 22:58:00,
2012-10-22 18:59:00,76.9,62.9,30.02,ENE,70,2.0,9.0,62,0.00,,---,0.00,0.00,VWS V14.01,2012-10-22 22:59:00,
2012-10-22 19:00:00,76.8,63.3,30.02,NNE,31,1.0,4.0,63,0.00,,---,0.00,0.00,VWS V14.01,2012-10-22 23:00:00,
2012-10-22 19:01:00,76.7,62.7,30.02,East,96,2.0,4.0,62,0.00,,---,0.00,0.00,VWS V14.01,2012-10-22 23:01:00,
2012-10-22 19:03:00,77.1,63.1,30.01,ENE,73,3.0,9.0,62,0.00,,---,0.00,0.00,VWS V14.01,2012-10-22 23:03:00,
2012-10-22 19:04:00,76.6,63.1,30.02,ENE,62,3.0,5.0,63,0.00,,---,0.00,0.00,VWS V14.01,2012-10-22 23:04:00,
2012-10-22 19:05:00,76.5,63.0,30.02,NE,43,0.0,5.0,63,0.00,,---,0.00,0.00,VWS V14.01,2012-10-22 23:05:00,
2012-10-22 19:07:00,76.4,62.9,30.02,ENE,60,1.0,5.0,63,0.00,,---,0.00,0.00,VWS V14.01,2012-10-22 23:07:00,
2012-10-22 19:08:00,76.9,62.9,30.02,East,84,1.0,9.0,62,0.00,,---,0.00,0.00,VWS V14.01,2012-10-22 23:08:00,
2012-10-22 19:09:00,76.2,62.7,30.02,East,87,3.0,5.0,63,0.00,,---,0.00,0.00,VWS V14.01,2012-10-22 23:09:00,
2012-10-22 19:10:00,76.2,62.7,30.02,ENE,76,1.0,5.0,63,0.00,,---,0.00,0.00,VWS V14.01,2012-10-22 23:10:00,
2012-10-22 19:11:00,76.1,62.6,30.02,ENE,70,1.0,5.0,63,0.00,,---,0.00,0.00,VWS V14.01,2012-10-22 23:11:00,
2012-10-22 19:13:00,76.6,62.6,30.02,ESE,121,2.0,5.0,62,0.00,,---,0.00,0.00,VWS V14.01,2012-10-22 23:13:00,
2012-10-22 19:14:00,76.0,63.0,30.02,East,88,7.0,7.0,64,0.00,,---,0.00,0.00,VWS V14.01,2012-10-22 23:14:00,
2012-10-22 19:15:00,75.9,62.9,30.03,East,81,5.0,7.0,64,0.00,,---,0.00,0.00,VWS V14.01,2012-10-22 23:15:00,
2012-10-22 19:16:00,75.9,62.9,30.02,East,83,1.0,7.0,64,0.00,,---,0.00,0.00,VWS V14.01,2012-10-22 23:16:00,
2012-10-22 19:17:00,75.9,62.9,30.02,NNE,31,2.0,7.0,64,0.00,,---,0.00,0.00,VWS V14.01,2012-10-22 23:17:00,
2012-10-22 19:18:00,76.3,63.2,30.02,East,88,1.0,5.0,64,0.00,,---,0.00,0.00,VWS V14.01,2012-10-22 23:18:00,
2012-10-22 19:19:00,75.8,62.8,30.02,East,81,6.0,7.0,64,0.00,,---,0.00,0.00,VWS V14.01,2012-10-22 23:19:00,
2012-10-22 19:21:00,75.7,63.1,30.02,ENE,66,2.0,7.0,65,0.00,,---,0.00,0.00,VWS V14.01,2012-10-22 23:21:00,
2012-10-22 19:22:00,75.7,63.1,30.03,ENE,75,0.0,7.0,65,0.00,,---,0.00,0.00,VWS V14.01,2012-10-22 23:22:00,
2012-10-22 19:23:00,76.0,63.0,30.02,East,86,2.0,5.0,64,0.00,,---,0.00,0.00,VWS V14.01,2012-10-22 23:23:00,
2012-10-22 19:24:00,75.5,62.9,30.03,ENE,64,1.0,7.0,65,0.00,,---,0.00,0.00,VWS V14.01,2012-10-22 23:24:00,
2012-10-22 19:25:00,75.5,62.9,30.03,ENE,57,2.0,7.0,65,0.00,,---,0.00,0.00,VWS V14.01,2012-10-22 23:25:00,
2012-10-22 19:26:00,75.4,62.8,30.03,ENE,58,1.0,7.0,65,0.00,,---,0.00,0.00,VWS V14.01,2012-10-22 23:26:00,
2012-10-22 19:28:00,75.8,62.8,30.02,ENE,71,0.0,7.0,64,0.00,,---,0.00,0.00,VWS V14.01,2012-10-22 23:28:00,
2012-10-22 19:29:00,75.3,63.2,30.03,ENE,62,0.0,7.0,66,0.00,,---,0.00,0.00,VWS V14.01,2012-10-22 23:29:00,
2012-10-22 19:30:00,75.2,63.1,30.03,NE,39,3.0,7.0,66,0.00,,---,0.00,0.00,VWS V14.01,2012-10-22 23:30:00,
2012-10-22 19:31:00,75.3,63.2,30.03,NE,42,3.0,7.0,66,0.00,,---,0.00,0.00,VWS V14.01,2012-10-22 23:31:00,
2012-10-22 19:33:00,75.6,63.0,30.03,ENE,64,0.0,7.0,65,0.00,,---,0.00,0.00,VWS V14.01,2012-10-22 23:33:00,
2012-10-22 19:34:00,75.3,63.6,30.03,ENE,74,2.0,7.0,67,0.00,,---,0.00,0.00,VWS V14.01,2012-10-22 23:34:00,
2012-10-22 19:35:00,75.2,63.5,30.03,North,3,3.0,7.0,67,0.00,,---,0.00,0.00,VWS V14.01,2012-10-22 23:35:00,
2012-10-22 19:36:00,75.3,64.0,30.03,ESE,123,3.0,8.0,68,0.00,,---,0.00,0.00,VWS V14.01,2012-10-22 23:36:00,
2012-10-22 19:37:00,75.3,64.0,30.03,East,79,5.0,8.0,68,0.00,,---,0.00,0.00,VWS V14.01,2012-10-22 23:37:00,
2012-10-22 19:38:00,75.3,63.2,30.03,ENE,62,1.0,7.0,66,0.00,,---,0.00,0.00,VWS V14.01,2012-10-22 23:38:00,
2012-10-22 19:39:00,75.3,64.0,30.03,NE,53,1.0,9.0,68,0.00,,---,0.00,0.00,VWS V14.01,2012-10-22 23:39:00,
2012-10-22 19:40:00,75.3,64.0,30.03,ENE,61,4.0,9.0,68,0.00,,---,0.00,0.00,VWS V14.01,2012-10-22 23:40:00,
2012-10-22 19:41:00,75.2,63.9,30.03,ENE,65,2.0,9.0,68,0.00,,---,0.00,0.00,VWS V14.01,2012-10-22 23:41:00,
2012-10-22 19:42:00,75.2,64.3,30.03,East,94,3.0,9.0,69,0.00,,---,0.00,0.00,VWS V14.01,2012-10-22 23:42:00,
2012-10-22 19:43:00,75.3,63.6,30.03,NNE,25,3.0,7.0,67,0.00,,---,0.00,0.00,VWS V14.01,2012-10-22 23:43:00,
2012-10-22 19:44:00,75.1,64.2,30.04,NE,56,3.0,9.0,69,0.00,,---,0.00,0.00,VWS V14.01,2012-10-22 23:44:00,
2012-10-22 19:45:00,75.1,64.2,30.04,East,83,6.0,9.0,69,0.00,,---,0.00,0.00,VWS V14.01,2012-10-22 23:45:00,
2012-10-22 19:46:00,75.1,64.2,30.04,NE,36,0.0,9.0,69,0.00,,---,0.00,0.00,VWS V14.01,2012-10-22 23:46:00,
2012-10-22 19:47:00,75.1,64.7,30.04,East,83,2.0,9.0,70,0.00,,---,0.00,0.00,VWS V14.01,2012-10-22 23:47:00,
2012-10-22 19:48:00,75.3,64.0,30.03,NE,39,2.0,9.0,68,0.00,,---,0.00,0.00,VWS V14.01,2012-10-22 23:48:00,
2012-10-22 19:49:00,75.0,64.6,30.04,East,97,3.0,9.0,70,0.00,,---,0.00,0.00,VWS V14.01,2012-10-22 23:49:00,
2012-10-22 19:50:00,75.0,64.6,30.04,ENE,77,3.0,9.0,70,0.00,,---,0.00,0.00,VWS V14.01,2012-10-22 23:50:00,
2012-10-22 19:51:00,75.0,64.6,30.04,North,353,3.0,9.0,70,0.00,,---,0.00,0.00,VWS V14.01,2012-10-22 23:51:00,
2012-10-22 19:53:00,75.2,64.3,30.04,East,91,4.0,9.0,69,0.00,,---,0.00,0.00,VWS V14.01,2012-10-22 23:53:00,
2012-10-22 19:54:00,75.0,64.6,30.04,NNE,33,1.0,9.0,70,0.00,,---,0.00,0.00,VWS V14.01,2012-10-22 23:54:00,
2012-10-22 19:56:00,75.0,64.6,30.04,ENE,68,4.0,9.0,70,0.00,,---,0.00,0.00,VWS V14.01,2012-10-22 23:56:00,
2012-10-22 19:57:00,74.9,64.5,30.04,NE,56,0.0,9.0,70,0.00,,---,0.00,0.00,VWS V14.01,2012-10-22 23:57:00,
2012-10-22 19:58:00,75.0,64.6,30.04,ENE,63,7.0,9.0,70,0.00,,---,0.00,0.00,VWS V14.01,2012-10-22 23:58:00,
2012-10-22 19:59:00,74.9,64.9,30.04,WSW,243,0.0,9.0,71,0.00,,---,0.00,0.00,VWS V14.01,2012-10-22 23:59:00,
2012-10-22 20:00:00,74.9,64.9,30.05,ENE,64,7.0,7.0,71,0.00,,---,0.00,0.00,VWS V14.01,2012-10-23 00:00:00,
2012-10-22 20:01:00,74.9,64.9,30.05,SE,127,0.0,7.0,71,0.00,,---,0.00,0.00,VWS V14.01,2012-10-23 00:01:00,
2012-10-22 20:02:00,74.8,64.8,30.05,ENE,58,0.0,7.0,71,0.00,,---,0.00,0.00,VWS V14.01,2012-10-23 00:02:00,
2012-10-22 20:03:00,75.0,64.6,30.04,North,4,0.0,9.0,70,0.00,,---,0.00,0.00,VWS V14.01,2012-10-23 00:03:00,
2012-10-22 20:04:00,74.8,64.8,30.05,ENE,62,7.0,7.0,71,0.00,,---,0.00,0.00,VWS V14.01,2012-10-23 00:04:00,
2012-10-22 20:05:00,74.8,64.8,30.05,ENE,74,4.0,7.0,71,0.00,,---,0.00,0.00,VWS V14.01,2012-10-23 00:05:00,
2012-10-22 20:06:00,74.8,64.8,30.05,NNE,33,0.0,7.0,71,0.00,,---,0.00,0.00,VWS V14.01,2012-10-23 00:06:00,
2012-10-22 20:07:00,74.8,64.8,30.05,East,88,1.0,7.0,71,0.00,,---,0.00,0.00,VWS V14.01,2012-10-23 00:07:00,
2012-10-22 20:08:00,74.9,64.9,30.04,East,91,2.0,9.0,71,0.00,,---,0.00,0.00,VWS V14.01,2012-10-23 00:08:00,
2012-10-22 20:09:00,74.8,64.8,30.05,North,9,1.0,7.0,71,0.00,,---,0.00,0.00,VWS V14.01,2012-10-23 00:09:00,
2012-10-22 20:10:00,74.8,64.8,30.05,NE,39,2.0,7.0,71,0.00,,---,0.00,0.00,VWS V14.01,2012-10-23 00:10:00,
2012-10-22 20:11:00,74.7,64.7,30.05,ESE,113,3.0,7.0,71,0.00,,---,0.00,0.00,VWS V14.01,2012-10-23 00:11:00,
2012-10-22 20:12:00,74.7,65.1,30.05,ENE,72,1.0,7.0,72,0.00,,---,0.00,0.00,VWS V14.01,2012-10-23 00:12:00,
2012-10-22 20:13:00,74.8,64.8,30.05,ENE,78,3.0,7.0,71,0.00,,---,0.00,0.00,VWS V14.01,2012-10-23 00:13:00,
2012-10-22 20:14:00,74.7,65.1,30.05,ESE,112,3.0,7.0,72,0.00,,---,0.00,0.00,VWS V14.01,2012-10-23 00:14:00,
2012-10-22 20:16:00,74.6,65.0,30.05,NE,52,4.0,8.0,72,0.00,,---,0.00,0.00,VWS V14.01,2012-10-23 00:16:00,
2012-10-22 20:17:00,74.6,65.0,30.05,ENE,62,2.0,8.0,72,0.00,,---,0.00,0.00,VWS V14.01,2012-10-23 00:17:00,
2012-10-22 20:18:00,74.8,64.8,30.05,NE,52,3.0,7.0,71,0.00,,---,0.00,0.00,VWS V14.01,2012-10-23 00:18:00,
2012-10-22 20:19:00,74.5,64.9,30.05,ESE,110,2.0,8.0,72,0.00,,---,0.00,0.00,VWS V14.01,2012-10-23 00:19:00,
2012-10-22 20:20:00,74.5,64.9,30.06,East,93,4.0,8.0,72,0.00,,---,0.00,0.00,VWS V14.01,2012-10-23 00:20:00,
2012-10-22 20:22:00,74.5,65.3,30.06,East,85,3.0,8.0,73,0.00,,---,0.00,0.00,VWS V14.01,2012-10-23 00:22:00,
2012-10-22 20:23:00,74.7,65.1,30.05,East,92,3.0,7.0,72,0.00,,---,0.00,0.00,VWS V14.01,2012-10-23 00:23:00,
2012-10-22 20:24:00,74.4,65.2,30.06,NE,45,1.0,8.0,73,0.00,,---,0.00,0.00,VWS V14.01,2012-10-23 00:24:00,
2012-10-22 20:27:00,74.4,65.2,30.06,ENE,67,0.0,8.0,73,0.00,,---,0.00,0.00,VWS V14.01,2012-10-23 00:27:00,
2012-10-22 20:28:00,74.6,65.4,30.05,ENE,60,3.0,8.0,73,0.00,,---,0.00,0.00,VWS V14.01,2012-10-23 00:28:00,
2012-10-22 20:29:00,74.3,65.5,30.06,East,91,1.0,8.0,74,0.00,,---,0.00,0.00,VWS V14.01,2012-10-23 00:29:00,
2012-10-22 20:30:00,74.3,65.1,30.06,East,89,2.0,8.0,73,0.00,,---,0.00,0.00,VWS V14.01,2012-10-23 00:30:00,
2012-10-22 20:32:00,74.2,65.0,30.06,NE,35,0.0,8.0,73,0.00,,---,0.00,0.00,VWS V14.01,2012-10-23 00:32:00,
2012-10-22 20:33:00,74.4,65.2,30.06,ENE,66,3.0,8.0,73,0.00,,---,0.00,0.00,VWS V14.01,2012-10-23 00:33:00,
2012-10-22 20:34:00,74.2,65.0,30.06,East,97,3.0,8.0,73,0.00,,---,0.00,0.00,VWS V14.01,2012-10-23 00:34:00,
2012-10-22 20:36:00,74.1,64.9,30.06,East,86,3.0,8.0,73,0.00,,---,0.00,0.00,VWS V14.01,2012-10-23 00:36:00,
2012-10-22 20:38:00,74.3,65.5,30.06,ENE,67,1.0,8.0,74,0.00,,---,0.00,0.00,VWS V14.01,2012-10-23 00:38:00,
2012-10-22 20:39:00,74.0,65.2,30.06,ESE,112,3.0,8.0,74,0.00,,---,0.00,0.00,VWS V14.01,2012-10-23 00:39:00,
2012-10-22 20:40:00,74.0,65.2,30.06,SE,124,2.0,8.0,74,0.00,,---,0.00,0.00,VWS V14.01,2012-10-23 00:40:00,
2012-10-22 20:41:00,74.0,65.2,30.07,East,97,1.0,8.0,74,0.00,,---,0.00,0.00,VWS V14.01,2012-10-23 00:41:00,
2012-10-22 20:42:00,73.9,65.1,30.07,ENE,68,2.0,8.0,74,0.00,,---,0.00,0.00,VWS V14.01,2012-10-23 00:42:00,
2012-10-22 20:43:00,74.2,65.0,30.06,East,94,5.0,8.0,73,0.00,,---,0.00,0.00,VWS V14.01,2012-10-23 00:43:00,
2012-10-22 20:44:00,73.9,65.1,30.07,NNE,31,1.0,8.0,74,0.00,,---,0.00,0.00,VWS V14.01,2012-10-23 00:44:00,
2012-10-22 20:45:00,73.8,65.0,30.07,East,79,2.0,8.0,74,0.00,,---,0.00,0.00,VWS V14.01,2012-10-23 00:45:00,
2012-10-22 20:46:00,73.8,65.0,30.07,ENE,58,2.0,8.0,74,0.00,,---,0.00,0.00,VWS V14.01,2012-10-23 00:46:00,
2012-10-22 20:48:00,74.0,65.2,30.06,NE,52,1.0,8.0,74,0.00,,---,0.00,0.00,VWS V14.01,2012-10-23 00:48:00,
2012-10-22 20:49:00,73.7,65.3,30.07,East,97,2.0,8.0,75,0.00,,---,0.00,0.00,VWS V14.01,2012-10-23 00:49:00,
2012-10-22 20:51:00,73.6,65.2,30.07,East,88,1.0,8.0,75,0.00,,---,0.00,0.00,VWS V14.01,2012-10-23 00:51:00,
2012-10-22 20:52:00,73.6,65.2,30.07,NE,52,1.0,8.0,75,0.00,,---,0.00,0.00,VWS V14.01,2012-10-23 00:52:00,
2012-10-22 20:53:00,73.9,65.1,30.07,NE,35,3.0,8.0,74,0.00,,---,0.00,0.00,VWS V14.01,2012-10-23 00:53:00,
2012-10-22 20:54:00,73.5,65.1,30.07,NNE,25,0.0,8.0,75,0.00,,---,0.00,0.00,VWS V14.01,2012-10-23 00:54:00,
2012-10-22 20:55:00,73.4,65.0,30.06,ESE,121,1.0,8.0,75,0.00,,---,0.00,0.00,VWS V14.01,2012-10-23 00:55:00,
2012-10-22 20:56:00,73.3,64.9,30.06,East,84,4.0,8.0,75,0.00,,---,0.00,0.00,VWS V14.01,2012-10-23 00:56:00,
2012-10-22 20:57:00,73.3,64.9,30.07,ENE,75,3.0,8.0,75,0.00,,---,0.00,0.00,VWS V14.01,2012-10-23 00:57:00,
2012-10-22 20:58:00,73.7,65.3,30.07,East,82,2.0,8.0,75,0.00,,---,0.00,0.00,VWS V14.01,2012-10-23 00:58:00,
2012-10-22 20:59:00,73.2,65.2,30.07,ENE,60,3.0,8.0,76,0.00,,---,0.00,0.00,VWS V14.01,2012-10-23 00:59:00,
2012-10-22 21:00:00,73.1,65.1,30.07,NE,50,3.0,5.0,76,0.00,,---,0.00,0.00,VWS V14.01,2012-10-23 01:00:00,
2012-10-22 21:01:00,73.1,65.1,30.07,East,88,2.0,5.0,76,0.00,,---,0.00,0.00,VWS V14.01,2012-10-23 01:01:00,
2012-10-22 21:02:00,73.1,65.1,30.07,East,93,3.0,8.0,76,0.00,,---,0.00,0.00,VWS V14.01,2012-10-23 01:02:00,
2012-10-22 21:03:00,73.5,65.1,30.07,NNE,25,0.0,8.0,75,0.00,,---,0.00,0.00,VWS V14.01,2012-10-23 01:03:00,
2012-10-22 21:04:00,73.1,65.1,30.07,NE,39,1.0,8.0,76,0.00,,---,0.00,0.00,VWS V14.01,2012-10-23 01:04:00,
2012-10-22 21:05:00,73.1,65.1,30.07,ENE,71,4.0,8.0,76,0.00,,---,0.00,0.00,VWS V14.01,2012-10-23 01:05:00,
2012-10-22 21:06:00,73.0,65.0,30.07,ENE,77,3.0,8.0,76,0.00,,---,0.00,0.00,VWS V14.01,2012-10-23 01:06:00,
2012-10-22 21:07:00,73.0,65.0,30.07,NE,54,7.0,8.0,76,0.00,,---,0.00,0.00,VWS V14.01,2012-10-23 01:07:00,
2012-10-22 21:08:00,73.2,65.2,30.07,NNE,33,3.0,8.0,76,0.00,,---,0.00,0.00,VWS V14.01,2012-10-23 01:08:00,
2012-10-22 21:09:00,73.0,65.0,30.07,NE,45,4.0,8.0,76,0.00,,---,0.00,0.00,VWS V14.01,2012-10-23 01:09:00,
2012-10-22 21:10:00,73.0,65.0,30.07,ENE,76,2.0,8.0,76,0.00,,---,0.00,0.00,VWS V14.01,2012-10-23 01:10:00,
2012-10-22 21:11:00,73.0,65.0,30.07,East,93,3.0,8.0,76,0.00,,---,0.00,0.00,VWS V14.01,2012-10-23 01:11:00,
2012-10-22 21:12:00,73.0,65.0,30.07,East,101,0.0,8.0,76,0.00,,---,0.00,0.00,VWS V14.01,2012-10-23 01:12:00,
2012-10-22 21:13:00,73.1,65.1,30.07,East,90,0.0,8.0,76,0.00,,---,0.00,0.00,VWS V14.01,2012-10-23 01:13:00,
2012-10-22 21:14:00,73.0,65.4,30.07,NE,38,2.0,8.0,77,0.00,,---,0.00,0.00,VWS V14.01,2012-10-23 01:14:00,
2012-10-22 21:15:00,72.9,65.3,30.07,NE,43,0.0,8.0,77,0.00,,---,0.00,0.00,VWS V14.01,2012-10-23 01:15:00,
2012-10-22 21:16:00,72.9,65.3,30.07,ENE,75,3.0,8.0,77,0.00,,---,0.00,0.00,VWS V14.01,2012-10-23 01:16:00,
2012-10-22 21:17:00,72.9,65.3,30.07,NE,46,3.0,8.0,77,0.00,,---,0.00,0.00,VWS V14.01,2012-10-23 01:17:00,
2012-10-22 21:18:00,73.0,65.0,30.07,ENE,64,3.0,8.0,76,0.00,,---,0.00,0.00,VWS V14.01,2012-10-23 01:18:00,
2012-10-22 21:19:00,72.8,64.8,30.07,North,10,0.0,8.0,76,0.00,,---,0.00,0.00,VWS V14.01,2012-10-23 01:19:00,
2012-10-22 21:20:00,72.8,65.2,30.07,ENE,64,1.0,8.0,77,0.00,,---,0.00,0.00,VWS V14.01,2012-10-23 01:20:00,
2012-10-22 21:21:00,72.8,65.2,30.07,NNE,31,1.0,8.0,77,0.00,,---,0.00,0.00,VWS V14.01,2012-10-23 01:21:00,
2012-10-22 21:22:00,72.8,65.2,30.07,ESE,108,1.0,8.0,77,0.00,,---,0.00,0.00,VWS V14.01,2012-10-23 01:22:00,
2012-10-22 21:23:00,73.0,65.4,30.07,ENE,62,2.0,8.0,77,0.00,,---,0.00,0.00,VWS V14.01,2012-10-23 01:23:00,
2012-10-22 21:24:00,72.6,65.0,30.07,ENE,67,3.0,8.0,77,0.00,,---,0.00,0.00,VWS V14.01,2012-10-23 01:24:00,
2012-10-22 21:25:00,72.6,65.0,30.07,ENE,75,7.0,8.0,77,0.00,,---,0.00,0.00,VWS V14.01,2012-10-23 01:25:00,
2012-10-22 21:27:00,72.6,65.0,30.07,ENE,69,1.0,8.0,77,0.00,,---,0.00,0.00,VWS V14.01,2012-10-23 01:27:00,
2012-10-22 21:28:00,72.8,65.2,30.07,East,89,2.0,8.0,77,0.00,,---,0.00,0.00,VWS V14.01,2012-10-23 01:28:00,
2012-10-22 21:29:00,72.6,65.0,30.07,NNW,327,2.0,8.0,77,0.00,,---,0.00,0.00,VWS V14.01,2012-10-23 01:29:00,
2012-10-22 21:30:00,72.6,65.0,30.07,ESE,110,2.0,8.0,77,0.00,,---,0.00,0.00,VWS V14.01,2012-10-23 01:30:00,
2012-10-22 21:31:00,72.5,64.9,30.07,East,94,4.0,8.0,77,0.00,,---,0.00,0.00,VWS V14.01,2012-10-23 01:31:00,
2012-10-22 21:33:00,72.7,65.1,30.07,NE,50,3.0,8.0,77,0.00,,---,0.00,0.00,VWS V14.01,2012-10-23 01:33:00,
2012-10-22 21:34:00,72.5,64.9,30.07,ESE,118,1.0,8.0,77,0.00,,---,0.00,0.00,VWS V14.01,2012-10-23 01:34:00,
2012-10-22 21:35:00,72.5,64.9,30.07,NE,43,2.0,8.0,77,0.00,,---,0.00,0.00,VWS V14.01,2012-10-23 01:35:00,
2012-10-22 21:36:00,72.4,64.8,30.07,ENE,70,4.0,8.0,77,0.00,,---,0.00,0.00,VWS V14.01,2012-10-23 01:36:00,
2012-10-22 21:37:00,72.4,64.8,30.07,ENE,66,1.0,8.0,77,0.00,,---,0.00,0.00,VWS V14.01,2012-10-23 01:37:00,
2012-10-22 21:38:00,72.6,65.0,30.07,ENE,62,3.0,8.0,77,0.00,,---,0.00,0.00,VWS V14.01,2012-10-23 01:38:00,
2012-10-22 21:39:00,72.4,64.8,30.07,NE,45,0.0,8.0,77,0.00,,---,0.00,0.00,VWS V14.01,2012-10-23 01:39:00,
2012-10-22 21:40:00,72.3,65.1,30.07,NE,51,2.0,8.0,78,0.00,,---,0.00,0.00,VWS V14.01,2012-10-23 01:40:00,
2012-10-22 21:41:00,72.2,65.0,30.07,ENE,62,1.0,8.0,78,0.00,,---,0.00,0.00,VWS V14.01,2012-10-23 01:41:00,
2012-10-22 21:42:00,72.2,65.0,30.07,East,83,5.0,8.0,78,0.00,,---,0.00,0.00,VWS V14.01,2012-10-23 01:42:00,
2012-10-22 21:43:00,72.5,64.9,30.07,ESE,112,5.0,8.0,77,0.00,,---,0.00,0.00,VWS V14.01,2012-10-23 01:43:00,
2012-10-22 21:45:00,72.2,65.0,30.07,East,95,4.0,8.0,78,0.00,,---,0.00,0.00,VWS V14.01,2012-10-23 01:45:00,
2012-10-22 21:46:00,72.1,64.9,30.08,ENE,72,5.0,8.0,78,0.00,,---,0.00,0.00,VWS V14.01,2012-10-23 01:46:00,
2012-10-22 21:47:00,72.1,64.9,30.07,East,93,2.0,8.0,78,0.00,,---,0.00,0.00,VWS V14.01,2012-10-23 01:47:00,
2012-10-22 21:48:00,72.4,64.8,30.07,NNE,17,3.0,8.0,77,0.00,,---,0.00,0.00,VWS V14.01,2012-10-23 01:48:00,
2012-10-22 21:49:00,72.1,64.9,30.08,ENE,75,0.0,8.0,78,0.00,,---,0.00,0.00,VWS V14.01,2012-10-23 01:49:00,
2012-10-22 21:50:00,72.1,64.9,30.08,NNE,18,1.0,8.0,78,0.00,,---,0.00,0.00,VWS V14.01,2012-10-23 01:50:00,
2012-10-22 21:51:00,72.0,64.8,30.08,East,97,4.0,8.0,78,0.00,,---,0.00,0.00,VWS V14.01,2012-10-23 01:51:00,
2012-10-22 21:52:00,72.0,64.8,30.08,NE,34,2.0,8.0,78,0.00,,---,0.00,0.00,VWS V14.01,2012-10-23 01:52:00,
2012-10-22 21:53:00,72.2,65.0,30.07,ENE,63,5.0,8.0,78,0.00,,---,0.00,0.00,VWS V14.01,2012-10-23 01:53:00,
2012-10-22 21:55:00,71.9,64.7,30.08,ENE,61,1.0,8.0,78,0.00,,---,0.00,0.00,VWS V14.01,2012-10-23 01:55:00,
2012-10-22 21:56:00,71.9,64.7,30.08,East,91,7.0,8.0,78,0.00,,---,0.00,0.00,VWS V14.01,2012-10-23 01:56:00,
2012-10-22 21:57:00,71.9,65.0,30.08,East,91,2.0,8.0,79,0.00,,---,0.00,0.00,VWS V14.01,2012-10-23 01:57:00,
2012-10-22 21:58:00,72.1,64.9,30.08,NE,52,1.0,8.0,78,0.00,,---,0.00,0.00,VWS V14.01,2012-10-23 01:58:00,
2012-10-22 21:59:00,71.8,64.9,30.08,NE,37,3.0,8.0,79,0.00,,---,0.00,0.00,VWS V14.01,2012-10-23 01:59:00,
2012-10-22 22:00:00,71.8,64.9,30.08,NE,37,0.0,1.0,79,0.00,,---,0.00,0.00,VWS V14.01,2012-10-23 02:00:00,
2012-10-22 22:01:00,71.7,64.5,30.08,ENE,60,2.0,5.0,78,0.00,,---,0.00,0.00,VWS V14.01,2012-10-23 02:01:00,
2012-10-22 22:02:00,71.7,64.8,30.08,NE,45,2.0,5.0,79,0.00,,---,0.00,0.00,VWS V14.01,2012-10-23 02:02:00,
2012-10-22 22:03:00,71.9,64.7,30.08,NE,44,3.0,8.0,78,0.00,,---,0.00,0.00,VWS V14.01,2012-10-23 02:03:00,
2012-10-22 22:04:00,71.6,64.8,30.08,NE,47,2.0,5.0,79,0.00,,---,0.00,0.00,VWS V14.01,2012-10-23 02:04:00,
2012-10-22 22:05:00,71.5,64.7,30.08,East,98,1.0,5.0,79,0.00,,---,0.00,0.00,VWS V14.01,2012-10-23 02:05:00,
2012-10-22 22:06:00,71.5,64.7,30.08,NE,47,2.0,5.0,79,0.00,,---,0.00,0.00,VWS V14.01,2012-10-23 02:06:00,
2012-10-22 22:08:00,71.8,64.9,30.08,NE,48,4.0,8.0,79,0.00,,---,0.00,0.00,VWS V14.01,2012-10-23 02:08:00,
2012-10-22 22:09:00,71.3,64.8,30.08,NE,52,0.0,5.0,80,0.00,,---,0.00,0.00,VWS V14.01,2012-10-23 02:09:00,
2012-10-22 22:10:00,71.3,64.8,30.08,NE,54,3.0,5.0,80,0.00,,---,0.00,0.00,VWS V14.01,2012-10-23 02:10:00,
2012-10-22 22:11:00,71.3,64.8,30.08,East,93,5.0,6.0,80,0.00,,---,0.00,0.00,VWS V14.01,2012-10-23 02:11:00,
2012-10-22 22:13:00,71.6,64.8,30.08,ENE,73,3.0,5.0,79,0.00,,---,0.00,0.00,VWS V14.01,2012-10-23 02:13:00,
2012-10-22 22:14:00,71.2,64.7,30.08,NE,48,2.0,6.0,80,0.00,,---,0.00,0.00,VWS V14.01,2012-10-23 02:14:00,
2012-10-22 22:15:00,71.1,64.6,30.08,ENE,70,3.0,6.0,80,0.00,,---,0.00,0.00,VWS V14.01,2012-10-23 02:15:00,
2012-10-22 22:17:00,71.1,64.6,30.08,ENE,66,3.0,6.0,80,0.00,,---,0.00,0.00,VWS V14.01,2012-10-23 02:17:00,
2012-10-22 22:18:00,71.3,64.8,30.08,NE,52,0.0,5.0,80,0.00,,---,0.00,0.00,VWS V14.01,2012-10-23 02:18:00,
2012-10-22 22:19:00,71.0,64.5,30.08,ENE,68,4.0,6.0,80,0.00,,---,0.00,0.00,VWS V14.01,2012-10-23 02:19:00,
2012-10-22 22:20:00,71.0,64.5,30.08,ENE,68,3.0,6.0,80,0.00,,---,0.00,0.00,VWS V14.01,2012-10-23 02:20:00,
2012-10-22 22:21:00,71.0,64.5,30.08,ENE,57,1.0,6.0,80,0.00,,---,0.00,0.00,VWS V14.01,2012-10-23 02:21:00,
2012-10-22 22:22:00,71.0,64.5,30.08,ENE,68,1.0,6.0,80,0.00,,---,0.00,0.00,VWS V14.01,2012-10-23 02:22:00,
2012-10-22 22:23:00,71.2,64.7,30.08,NE,51,1.0,6.0,80,0.00,,---,0.00,0.00,VWS V14.01,2012-10-23 02:23:00,
2012-10-22 22:24:00,70.9,64.8,30.08,ENE,64,1.0,6.0,81,0.00,,---,0.00,0.00,VWS V14.01,2012-10-23 02:24:00,
2012-10-22 22:25:00,70.9,64.8,30.08,NNE,33,0.0,6.0,81,0.00,,---,0.00,0.00,VWS V14.01,2012-10-23 02:25:00,
2012-10-22 22:26:00,70.8,64.7,30.08,ENE,75,4.0,6.0,81,0.00,,---,0.00,0.00,VWS V14.01,2012-10-23 02:26:00,
2012-10-22 22:27:00,70.8,64.7,30.08,NE,41,1.0,6.0,81,0.00,,---,0.00,0.00,VWS V14.01,2012-10-23 02:27:00,
2012-10-22 22:28:00,71.0,64.5,30.08,ENE,68,2.0,6.0,80,0.00,,---,0.00,0.00,VWS V14.01,2012-10-23 02:28:00,
2012-10-22 22:29:00,70.7,64.6,30.08,NE,56,1.0,6.0,81,0.00,,---,0.00,0.00,VWS V14.01,2012-10-23 02:29:00,
2012-10-22 22:30:00,70.7,64.6,30.08,NE,47,0.0,6.0,81,0.00,,---,0.00,0.00,VWS V14.01,2012-10-23 02:30:00,
2012-10-22 22:31:00,70.6,64.5,30.08,North,8,2.0,6.0,81,0.00,,---,0.00,0.00,VWS V14.01,2012-10-23 02:31:00,
2012-10-22 22:32:00,70.6,64.5,30.08,ENE,78,2.0,6.0,81,0.00,,---,0.00,0.00,VWS V14.01,2012-10-23 02:32:00,
2012-10-22 22:33:00,70.9,64.8,30.08,East,79,0.0,6.0,81,0.00,,---,0.00,0.00,VWS V14.01,2012-10-23 02:33:00,
2012-10-22 22:34:00,70.6,64.5,30.08,ENE,67,3.0,6.0,81,0.00,,---,0.00,0.00,VWS V14.01,2012-10-23 02:34:00,
2012-10-22 22:35:00,70.6,64.5,30.08,North,8,0.0,6.0,81,0.00,,---,0.00,0.00,VWS V14.01,2012-10-23 02:35:00,
2012-10-22 22:37:00,70.5,64.4,30.08,NE,36,3.0,6.0,81,0.00,,---,0.00,0.00,VWS V14.01,2012-10-23 02:37:00,
2012-10-22 22:38:00,70.7,64.6,30.08,ENE,59,1.0,6.0,81,0.00,,---,0.00,0.00,VWS V14.01,2012-10-23 02:38:00,
2012-10-22 22:39:00,70.5,64.8,30.08,ENE,64,2.0,6.0,82,0.00,,---,0.00,0.00,VWS V14.01,2012-10-23 02:39:00,
2012-10-22 22:40:00,70.4,64.7,30.08,East,96,2.0,6.0,82,0.00,,---,0.00,0.00,VWS V14.01,2012-10-23 02:40:00,
2012-10-22 22:41:00,70.4,64.3,30.08,ENE,68,1.0,6.0,81,0.00,,---,0.00,0.00,VWS V14.01,2012-10-23 02:41:00,
2012-10-22 22:42:00,70.4,64.3,30.08,East,85,1.0,6.0,81,0.00,,---,0.00,0.00,VWS V14.01,2012-10-23 02:42:00,
2012-10-22 22:43:00,70.6,64.5,30.08,ENE,65,1.0,6.0,81,0.00,,---,0.00,0.00,VWS V14.01,2012-10-23 02:43:00,
2012-10-22 22:44:00,70.4,64.7,30.08,ENE,58,3.0,6.0,82,0.00,,---,0.00,0.00,VWS V14.01,2012-10-23 02:44:00,
2012-10-22 22:45:00,70.4,64.3,30.08,ENE,77,2.0,6.0,81,0.00,,---,0.00,0.00,VWS V14.01,2012-10-23 02:45:00,
2012-10-22 22:46:00,70.4,64.7,30.08,ENE,72,1.0,6.0,82,0.00,,---,0.00,0.00,VWS V14.01,2012-10-23 02:46:00,
2012-10-22 22:48:00,70.5,64.8,30.08,ENE,64,2.0,6.0,82,0.00,,---,0.00,0.00,VWS V14.01,2012-10-23 02:48:00,
2012-10-22 22:49:00,70.3,64.2,30.08,ENE,62,4.0,6.0,81,0.00,,---,0.00,0.00,VWS V14.01,2012-10-23 02:49:00,
2012-10-22 22:50:00,70.3,64.2,30.08,ENE,69,2.0,6.0,81,0.00,,---,0.00,0.00,VWS V14.01,2012-10-23 02:50:00,
2012-10-22 22:51:00,70.3,64.2,30.08,ENE,71,3.0,6.0,81,0.00,,---,0.00,0.00,VWS V14.01,2012-10-23 02:51:00,
2012-10-22 22:53:00,70.4,64.7,30.08,ENE,77,4.0,6.0,82,0.00,,---,0.00,0.00,VWS V14.01,2012-10-23 02:53:00,
2012-10-22 22:54:00,70.3,64.2,30.08,ENE,77,2.0,6.0,81,0.00,,---,0.00,0.00,VWS V14.01,2012-10-23 02:54:00,
2012-10-22 22:55:00,70.3,64.2,30.08,ENE,57,3.0,6.0,81,0.00,,---,0.00,0.00,VWS V14.01,2012-10-23 02:55:00,
2012-10-22 22:56:00,70.2,64.1,30.08,NE,44,3.0,6.0,81,0.00,,---,0.00,0.00,VWS V14.01,2012-10-23 02:56:00,
2012-10-22 22:57:00,70.2,64.1,30.08,East,79,3.0,6.0,81,0.00,,---,0.00,0.00,VWS V14.01,2012-10-23 02:57:00,
2012-10-22 22:58:00,70.3,64.2,30.08,East,83,4.0,6.0,81,0.00,,---,0.00,0.00,VWS V14.01,2012-10-23 02:58:00,
2012-10-22 22:59:00,70.2,64.1,30.08,ENE,66,1.0,6.0,81,0.00,,---,0.00,0.00,VWS V14.01,2012-10-23 02:59:00,
2012-10-22 23:00:00,71.8,64.9,30.08,NE,37,1.0,8.0,79,0.00,,---,0.00,0.00,VWS V14.01,2012-10-23 03:00:00,
2012-10-22 23:01:00,70.1,64.0,30.08,ENE,68,0.0,5.0,81,0.00,,---,0.00,0.00,VWS V14.01,2012-10-23 03:01:00,
2012-10-22 23:02:00,70.1,64.0,30.08,ENE,70,1.0,5.0,81,0.00,,---,0.00,0.00,VWS V14.01,2012-10-23 03:02:00,
2012-10-22 23:03:00,70.3,64.2,30.08,ENE,77,2.0,6.0,81,0.00,,---,0.00,0.00,VWS V14.01,2012-10-23 03:03:00,
2012-10-22 23:04:00,70.0,63.9,30.08,ENE,75,2.0,5.0,81,0.00,,---,0.00,0.00,VWS V14.01,2012-10-23 03:04:00,
2012-10-22 23:05:00,70.0,63.9,30.08,NE,38,0.0,5.0,81,0.00,,---,0.00,0.00,VWS V14.01,2012-10-23 03:05:00,
2012-10-22 23:06:00,70.0,63.9,30.08,NE,38,0.0,5.0,81,0.00,,---,0.00,0.00,VWS V14.01,2012-10-23 03:06:00,
2012-10-22 23:08:00,70.0,63.9,30.08,NE,55,2.0,5.0,81,0.00,,---,0.00,0.00,VWS V14.01,2012-10-23 03:08:00,
2012-10-22 23:09:00,70.2,64.1,30.08,ESE,103,2.0,6.0,81,0.00,,---,0.00,0.00,VWS V14.01,2012-10-23 03:09:00,
2012-10-22 23:10:00,69.9,64.2,30.08,ESE,113,2.0,5.0,82,0.00,,---,0.00,0.00,VWS V14.01,2012-10-23 03:10:00,
2012-10-22 23:11:00,69.9,64.2,30.08,East,85,2.0,5.0,82,0.00,,---,0.00,0.00,VWS V14.01,2012-10-23 03:11:00,
2012-10-22 23:12:00,69.9,64.2,30.08,East,85,1.0,5.0,82,0.00,,---,0.00,0.00,VWS V14.01,2012-10-23 03:12:00,
2012-10-22 23:13:00,69.8,64.1,30.08,NE,37,3.0,5.0,82,0.00,,---,0.00,0.00,VWS V14.01,2012-10-23 03:13:00,
2012-10-22 23:14:00,70.0,63.9,30.08,ENE,76,1.0,5.0,81,0.00,,---,0.00,0.00,VWS V14.01,2012-10-23 03:14:00,
2012-10-22 23:15:00,69.7,64.0,30.08,East,101,1.0,5.0,82,0.00,,---,0.00,0.00,VWS V14.01,2012-10-23 03:15:00,
2012-10-22 23:16:00,69.7,64.0,30.08,ENE,75,1.0,5.0,82,0.00,,---,0.00,0.00,VWS V14.01,2012-10-23 03:16:00,
2012-10-22 23:18:00,69.6,63.9,30.08,NE,43,0.0,5.0,82,0.00,,---,0.00,0.00,VWS V14.01,2012-10-23 03:18:00,
2012-10-22 23:19:00,70.0,64.3,30.08,NNE,25,3.0,5.0,82,0.00,,---,0.00,0.00,VWS V14.01,2012-10-23 03:19:00,
2012-10-22 23:20:00,69.5,63.8,30.08,NE,54,1.0,5.0,82,0.00,,---,0.00,0.00,VWS V14.01,2012-10-23 03:20:00,
2012-10-22 23:23:00,69.5,63.8,30.08,NE,40,4.0,8.0,82,0.00,,---,0.00,0.00,VWS V14.01,2012-10-23 03:23:00,
2012-10-22 23:24:00,69.8,64.1,30.08,NE,48,2.0,5.0,82,0.00,,---,0.00,0.00,VWS V14.01,2012-10-23 03:24:00,
2012-10-22 23:26:00,69.5,63.8,30.08,NE,52,0.0,8.0,82,0.00,,---,0.00,0.00,VWS V14.01,2012-10-23 03:26:00,
2012-10-22 23:28:00,69.5,63.8,30.08,NE,40,5.0,8.0,82,0.00,,---,0.00,0.00,VWS V14.01,2012-10-23 03:28:00,
2012-10-22 23:29:00,69.6,63.5,30.08,NE,41,1.0,5.0,81,0.00,,---,0.00,0.00,VWS V14.01,2012-10-23 03:29:00,
2012-10-22 23:30:00,69.4,63.7,30.08,ENE,75,2.0,8.0,82,0.00,,---,0.00,0.00,VWS V14.01,2012-10-23 03:30:00,
2012-10-22 23:31:00,69.4,63.7,30.08,ENE,66,2.0,8.0,82,0.00,,---,0.00,0.00,VWS V14.01,2012-10-23 03:31:00,
2012-10-22 23:32:00,69.4,63.7,30.08,NE,52,2.0,8.0,82,0.00,,---,0.00,0.00,VWS V14.01,2012-10-23 03:32:00,
2012-10-22 23:33:00,69.4,63.7,30.08,ENE,59,3.0,8.0,82,0.00,,---,0.00,0.00,VWS V14.01,2012-10-23 03:33:00,
2012-10-22 23:34:00,69.5,63.8,30.08,East,96,4.0,8.0,82,0.00,,---,0.00,0.00,VWS V14.01,2012-10-23 03:34:00,
2012-10-22 23:35:00,69.4,63.7,30.08,East,100,1.0,8.0,82,0.00,,---,0.00,0.00,VWS V14.01,2012-10-23 03:35:00,
2012-10-22 23:37:00,69.3,63.6,30.08,NE,53,2.0,8.0,82,0.00,,---,0.00,0.00,VWS V14.01,2012-10-23 03:37:00,
2012-10-22 23:38:00,69.3,63.6,30.08,NE,46,0.0,8.0,82,0.00,,---,0.00,0.00,VWS V14.01,2012-10-23 03:38:00,
2012-10-22 23:39:00,69.4,63.7,30.08,ENE,57,2.0,8.0,82,0.00,,---,0.00,0.00,VWS V14.01,2012-10-23 03:39:00,
2012-10-22 23:40:00,69.3,63.6,30.08,ENE,70,2.0,8.0,82,0.00,,---,0.00,0.00,VWS V14.01,2012-10-23 03:40:00,
2012-10-22 23:41:00,69.3,63.6,30.08,ENE,62,0.0,8.0,82,0.00,,---,0.00,0.00,VWS V14.01,2012-10-23 03:41:00,
2012-10-22 23:42:00,69.2,63.5,30.08,ENE,72,1.0,8.0,82,0.00,,---,0.00,0.00,VWS V14.01,2012-10-23 03:42:00,
2012-10-22 23:44:00,69.4,63.7,30.08,East,100,0.0,8.0,82,0.00,,---,0.00,0.00,VWS V14.01,2012-10-23 03:44:00,
2012-10-22 23:45:00,69.2,63.5,30.08,NE,41,2.0,8.0,82,0.00,,---,0.00,0.00,VWS V14.01,2012-10-23 03:45:00,
2012-10-22 23:46:00,69.2,63.5,30.08,NNE,14,0.0,8.0,82,0.00,,---,0.00,0.00,VWS V14.01,2012-10-23 03:46:00,
2012-10-22 23:47:00,69.2,63.5,30.08,East,88,1.0,8.0,82,0.00,,---,0.00,0.00,VWS V14.01,2012-10-23 03:47:00,
2012-10-22 23:48:00,69.2,63.5,30.08,ENE,73,0.0,8.0,82,0.00,,---,0.00,0.00,VWS V14.01,2012-10-23 03:48:00,
2012-10-22 23:49:00,69.3,63.6,30.08,ESE,102,1.0,8.0,82,0.00,,---,0.00,0.00,VWS V14.01,2012-10-23 03:49:00,
2012-10-22 23:51:00,69.2,63.5,30.08,East,83,3.0,8.0,82,0.00,,---,0.00,0.00,VWS V14.01,2012-10-23 03:51:00,
2012-10-22 23:53:00,69.1,63.4,30.08,ESE,103,3.0,8.0,82,0.00,,---,0.00,0.00,VWS V14.01,2012-10-23 03:53:00,
2012-10-22 23:54:00,69.2,63.5,30.08,ENE,60,0.0,8.0,82,0.00,,---,0.00,0.00,VWS V14.01,2012-10-23 03:54:00,
2012-10-22 23:56:00,69.1,63.4,30.08,NE,48,6.0,8.0,82,0.00,,---,0.00,0.00,VWS V14.01,2012-10-23 03:56:00,
2012-10-22 23:57:00,69.0,63.3,30.08,East,85,5.0,8.0,82,0.00,,---,0.00,0.00,VWS V14.01,2012-10-23 03:57:00,
2012-10-22 23:58:00,69.0,63.3,30.08,East,97,1.0,8.0,82,0.00,,---,0.00,0.00,VWS V14.01,2012-10-23 03:58:00,
2012-10-22 23:59:00,69.2,63.5,30.08,ENE,68,1.0,8.0,82,0.00,,---,0.00,0.00,VWS V14.01,2012-10-23 03:59:00,